<?xml version="1.0" encoding="UTF-8" standalone="no" ?>
<gpx xmlns="http://www.topografix.com/GPX/1/1" xmlns:xsi="http://www.w3.org/2001/XMLSchema-instance" xsi:schemaLocation="http://www.topografix.com/GPX/1/1 http://www.topografix.com/GPX/1/1/gpx.xsd" version="1.1" creator="VisuGPX - https://www.visugpx.com">
  <metadata>
    <name>Rando VTT Miserieux  01</name>
    <desc><![CDATA[Rando VTT du club cyclo miserieux]]></desc>
  </metadata>
  <trk>
    <name><![CDATA[2010-05-16T06:40:20Z]]></name>
    <trkseg>
      <trkpt lat="45.98347" lon="4.80513">
        <ele>244.3122559</ele>
        <time>2010-05-16T06:40:21Z</time>
      </trkpt>
      <trkpt lat="45.98346" lon="4.80513">
        <ele>243.3508301</ele>
        <time>2010-05-16T06:40:22Z</time>
      </trkpt>
      <trkpt lat="45.98346" lon="4.80513">
        <ele>242.3896484</ele>
        <time>2010-05-16T06:40:23Z</time>
      </trkpt>
      <trkpt lat="45.98345" lon="4.80515">
        <ele>242.3896484</ele>
        <time>2010-05-16T06:40:29Z</time>
      </trkpt>
      <trkpt lat="45.98346" lon="4.80515">
        <ele>241.9089355</ele>
        <time>2010-05-16T06:40:42Z</time>
      </trkpt>
      <trkpt lat="45.98368" lon="4.80505">
        <ele>236.6217041</ele>
        <time>2010-05-16T06:41:10Z</time>
      </trkpt>
      <trkpt lat="45.98376" lon="4.80498">
        <ele>234.2183838</ele>
        <time>2010-05-16T06:41:13Z</time>
      </trkpt>
      <trkpt lat="45.98383" lon="4.80493">
        <ele>233.7376709</ele>
        <time>2010-05-16T06:41:16Z</time>
      </trkpt>
      <trkpt lat="45.98394" lon="4.80485">
        <ele>233.7376709</ele>
        <time>2010-05-16T06:41:20Z</time>
      </trkpt>
      <trkpt lat="45.98409" lon="4.80463">
        <ele>232.7764893</ele>
        <time>2010-05-16T06:41:27Z</time>
      </trkpt>
      <trkpt lat="45.98418" lon="4.80449">
        <ele>232.2957764</ele>
        <time>2010-05-16T06:41:32Z</time>
      </trkpt>
      <trkpt lat="45.98425" lon="4.80438">
        <ele>232.2957764</ele>
        <time>2010-05-16T06:41:36Z</time>
      </trkpt>
      <trkpt lat="45.98431" lon="4.80415">
        <ele>232.2957764</ele>
        <time>2010-05-16T06:41:42Z</time>
      </trkpt>
      <trkpt lat="45.98443" lon="4.80403">
        <ele>233.2570801</ele>
        <time>2010-05-16T06:41:47Z</time>
      </trkpt>
      <trkpt lat="45.98452" lon="4.80408">
        <ele>234.2183838</ele>
        <time>2010-05-16T06:41:51Z</time>
      </trkpt>
      <trkpt lat="45.98462" lon="4.80427">
        <ele>233.2570801</ele>
        <time>2010-05-16T06:41:58Z</time>
      </trkpt>
      <trkpt lat="45.98466" lon="4.80438">
        <ele>232.7764893</ele>
        <time>2010-05-16T06:42:01Z</time>
      </trkpt>
      <trkpt lat="45.98474" lon="4.80464">
        <ele>231.3343506</ele>
        <time>2010-05-16T06:42:08Z</time>
      </trkpt>
      <trkpt lat="45.98483" lon="4.80498">
        <ele>230.8537598</ele>
        <time>2010-05-16T06:42:17Z</time>
      </trkpt>
      <trkpt lat="45.98491" lon="4.80533">
        <ele>232.2957764</ele>
        <time>2010-05-16T06:42:26Z</time>
      </trkpt>
      <trkpt lat="45.98498" lon="4.80562">
        <ele>234.6990967</ele>
        <time>2010-05-16T06:42:33Z</time>
      </trkpt>
      <trkpt lat="45.98503" lon="4.80596">
        <ele>238.0635986</ele>
        <time>2010-05-16T06:42:41Z</time>
      </trkpt>
      <trkpt lat="45.98509" lon="4.80624">
        <ele>239.9862061</ele>
        <time>2010-05-16T06:42:48Z</time>
      </trkpt>
      <trkpt lat="45.98514" lon="4.8065">
        <ele>241.4282227</ele>
        <time>2010-05-16T06:42:55Z</time>
      </trkpt>
      <trkpt lat="45.98518" lon="4.80675">
        <ele>243.831543</ele>
        <time>2010-05-16T06:43:01Z</time>
      </trkpt>
      <trkpt lat="45.98525" lon="4.80702">
        <ele>243.831543</ele>
        <time>2010-05-16T06:43:08Z</time>
      </trkpt>
      <trkpt lat="45.98532" lon="4.80722">
        <ele>246.2348633</ele>
        <time>2010-05-16T06:43:14Z</time>
      </trkpt>
      <trkpt lat="45.98537" lon="4.8074">
        <ele>245.7541504</ele>
        <time>2010-05-16T06:43:19Z</time>
      </trkpt>
      <trkpt lat="45.9854" lon="4.80765">
        <ele>242.8702393</ele>
        <time>2010-05-16T06:43:24Z</time>
      </trkpt>
      <trkpt lat="45.98546" lon="4.80793">
        <ele>239.9862061</ele>
        <time>2010-05-16T06:43:29Z</time>
      </trkpt>
      <trkpt lat="45.98554" lon="4.80805">
        <ele>239.5054932</ele>
        <time>2010-05-16T06:43:33Z</time>
      </trkpt>
      <trkpt lat="45.98561" lon="4.80818">
        <ele>239.9862061</ele>
        <time>2010-05-16T06:43:38Z</time>
      </trkpt>
      <trkpt lat="45.98565" lon="4.80826">
        <ele>242.8702393</ele>
        <time>2010-05-16T06:43:42Z</time>
      </trkpt>
      <trkpt lat="45.98568" lon="4.80835">
        <ele>244.3122559</ele>
        <time>2010-05-16T06:43:47Z</time>
      </trkpt>
      <trkpt lat="45.98577" lon="4.80853">
        <ele>246.2348633</ele>
        <time>2010-05-16T06:43:56Z</time>
      </trkpt>
      <trkpt lat="45.98583" lon="4.80864">
        <ele>248.6381836</ele>
        <time>2010-05-16T06:44:01Z</time>
      </trkpt>
      <trkpt lat="45.98591" lon="4.80878">
        <ele>250.560791</ele>
        <time>2010-05-16T06:44:09Z</time>
      </trkpt>
      <trkpt lat="45.986" lon="4.8089">
        <ele>253.4447021</ele>
        <time>2010-05-16T06:44:16Z</time>
      </trkpt>
      <trkpt lat="45.9861" lon="4.80911">
        <ele>256.3287354</ele>
        <time>2010-05-16T06:44:25Z</time>
      </trkpt>
      <trkpt lat="45.98615" lon="4.80932">
        <ele>256.3287354</ele>
        <time>2010-05-16T06:44:31Z</time>
      </trkpt>
      <trkpt lat="45.98622" lon="4.80952">
        <ele>257.2900391</ele>
        <time>2010-05-16T06:44:36Z</time>
      </trkpt>
      <trkpt lat="45.98631" lon="4.80981">
        <ele>259.2126465</ele>
        <time>2010-05-16T06:44:42Z</time>
      </trkpt>
      <trkpt lat="45.98642" lon="4.81006">
        <ele>257.770752</ele>
        <time>2010-05-16T06:44:47Z</time>
      </trkpt>
      <trkpt lat="45.98644" lon="4.81013">
        <ele>258.2513428</ele>
        <time>2010-05-16T06:44:48Z</time>
      </trkpt>
      <trkpt lat="45.98659" lon="4.81048">
        <ele>258.2513428</ele>
        <time>2010-05-16T06:44:54Z</time>
      </trkpt>
      <trkpt lat="45.98662" lon="4.81054">
        <ele>258.2513428</ele>
        <time>2010-05-16T06:44:55Z</time>
      </trkpt>
      <trkpt lat="45.98666" lon="4.81067">
        <ele>258.7319336</ele>
        <time>2010-05-16T06:44:57Z</time>
      </trkpt>
      <trkpt lat="45.98678" lon="4.81092">
        <ele>257.770752</ele>
        <time>2010-05-16T06:45:01Z</time>
      </trkpt>
      <trkpt lat="45.98693" lon="4.81117">
        <ele>258.2513428</ele>
        <time>2010-05-16T06:45:05Z</time>
      </trkpt>
      <trkpt lat="45.98705" lon="4.8113">
        <ele>261.6159668</ele>
        <time>2010-05-16T06:45:08Z</time>
      </trkpt>
      <trkpt lat="45.9873" lon="4.81145">
        <ele>265.4613037</ele>
        <time>2010-05-16T06:45:13Z</time>
      </trkpt>
      <trkpt lat="45.98749" lon="4.81153">
        <ele>265.9418945</ele>
        <time>2010-05-16T06:45:17Z</time>
      </trkpt>
      <trkpt lat="45.98762" lon="4.8116">
        <ele>266.9031982</ele>
        <time>2010-05-16T06:45:20Z</time>
      </trkpt>
      <trkpt lat="45.98789" lon="4.81169">
        <ele>270.2677002</ele>
        <time>2010-05-16T06:45:25Z</time>
      </trkpt>
      <trkpt lat="45.98805" lon="4.81178">
        <ele>262.5771484</ele>
        <time>2010-05-16T06:45:28Z</time>
      </trkpt>
      <trkpt lat="45.98821" lon="4.81186">
        <ele>265.4613037</ele>
        <time>2010-05-16T06:45:32Z</time>
      </trkpt>
      <trkpt lat="45.98837" lon="4.81193">
        <ele>269.3065186</ele>
        <time>2010-05-16T06:45:36Z</time>
      </trkpt>
      <trkpt lat="45.98865" lon="4.81207">
        <ele>269.3065186</ele>
        <time>2010-05-16T06:45:42Z</time>
      </trkpt>
      <trkpt lat="45.98876" lon="4.81216">
        <ele>270.2677002</ele>
        <time>2010-05-16T06:45:45Z</time>
      </trkpt>
      <trkpt lat="45.98899" lon="4.81234">
        <ele>259.6933594</ele>
        <time>2010-05-16T06:45:50Z</time>
      </trkpt>
      <trkpt lat="45.98916" lon="4.81243">
        <ele>254.8865967</ele>
        <time>2010-05-16T06:45:54Z</time>
      </trkpt>
      <trkpt lat="45.98952" lon="4.81248">
        <ele>246.7154541</ele>
        <time>2010-05-16T06:45:59Z</time>
      </trkpt>
      <trkpt lat="45.9896" lon="4.8125">
        <ele>245.7541504</ele>
        <time>2010-05-16T06:46:00Z</time>
      </trkpt>
      <trkpt lat="45.98972" lon="4.81254">
        <ele>244.3122559</ele>
        <time>2010-05-16T06:46:02Z</time>
      </trkpt>
      <trkpt lat="45.98978" lon="4.81267">
        <ele>241.9089355</ele>
        <time>2010-05-16T06:46:06Z</time>
      </trkpt>
      <trkpt lat="45.98986" lon="4.8129">
        <ele>239.5054932</ele>
        <time>2010-05-16T06:46:10Z</time>
      </trkpt>
      <trkpt lat="45.98991" lon="4.81303">
        <ele>237.5828857</ele>
        <time>2010-05-16T06:46:12Z</time>
      </trkpt>
      <trkpt lat="45.98997" lon="4.81313">
        <ele>234.6990967</ele>
        <time>2010-05-16T06:46:14Z</time>
      </trkpt>
      <trkpt lat="45.99002" lon="4.81343">
        <ele>237.1022949</ele>
        <time>2010-05-16T06:46:19Z</time>
      </trkpt>
      <trkpt lat="45.99004" lon="4.81353">
        <ele>238.5443115</ele>
        <time>2010-05-16T06:46:21Z</time>
      </trkpt>
      <trkpt lat="45.99011" lon="4.81361">
        <ele>238.5443115</ele>
        <time>2010-05-16T06:46:25Z</time>
      </trkpt>
      <trkpt lat="45.99014" lon="4.81362">
        <ele>239.9862061</ele>
        <time>2010-05-16T06:46:27Z</time>
      </trkpt>
      <trkpt lat="45.99033" lon="4.81365">
        <ele>242.3896484</ele>
        <time>2010-05-16T06:46:34Z</time>
      </trkpt>
      <trkpt lat="45.99044" lon="4.81366">
        <ele>244.7928467</ele>
        <time>2010-05-16T06:46:38Z</time>
      </trkpt>
      <trkpt lat="45.99061" lon="4.8137">
        <ele>248.6381836</ele>
        <time>2010-05-16T06:46:43Z</time>
      </trkpt>
      <trkpt lat="45.9908" lon="4.8138">
        <ele>252.9639893</ele>
        <time>2010-05-16T06:46:50Z</time>
      </trkpt>
      <trkpt lat="45.99086" lon="4.81395">
        <ele>253.4447021</ele>
        <time>2010-05-16T06:46:55Z</time>
      </trkpt>
      <trkpt lat="45.99089" lon="4.81419">
        <ele>254.8865967</ele>
        <time>2010-05-16T06:47:00Z</time>
      </trkpt>
      <trkpt lat="45.99092" lon="4.81456">
        <ele>253.925415</ele>
        <time>2010-05-16T06:47:06Z</time>
      </trkpt>
      <trkpt lat="45.99094" lon="4.81473">
        <ele>253.925415</ele>
        <time>2010-05-16T06:47:09Z</time>
      </trkpt>
      <trkpt lat="45.99098" lon="4.81511">
        <ele>245.7541504</ele>
        <time>2010-05-16T06:47:17Z</time>
      </trkpt>
      <trkpt lat="45.99095" lon="4.8154">
        <ele>243.831543</ele>
        <time>2010-05-16T06:47:24Z</time>
      </trkpt>
      <trkpt lat="45.99085" lon="4.8156">
        <ele>243.3508301</ele>
        <time>2010-05-16T06:47:28Z</time>
      </trkpt>
      <trkpt lat="45.99078" lon="4.81573">
        <ele>242.3896484</ele>
        <time>2010-05-16T06:47:30Z</time>
      </trkpt>
      <trkpt lat="45.9907" lon="4.81612">
        <ele>241.4282227</ele>
        <time>2010-05-16T06:47:35Z</time>
      </trkpt>
      <trkpt lat="45.99071" lon="4.81618">
        <ele>240.9476318</ele>
        <time>2010-05-16T06:47:36Z</time>
      </trkpt>
      <trkpt lat="45.99076" lon="4.8165">
        <ele>239.0249023</ele>
        <time>2010-05-16T06:47:41Z</time>
      </trkpt>
      <trkpt lat="45.99084" lon="4.81698">
        <ele>238.0635986</ele>
        <time>2010-05-16T06:47:47Z</time>
      </trkpt>
      <trkpt lat="45.9909" lon="4.81763">
        <ele>239.0249023</ele>
        <time>2010-05-16T06:47:54Z</time>
      </trkpt>
      <trkpt lat="45.99098" lon="4.81822">
        <ele>242.3896484</ele>
        <time>2010-05-16T06:48:01Z</time>
      </trkpt>
      <trkpt lat="45.99101" lon="4.81837">
        <ele>242.8702393</ele>
        <time>2010-05-16T06:48:04Z</time>
      </trkpt>
      <trkpt lat="45.99102" lon="4.81842">
        <ele>242.8702393</ele>
        <time>2010-05-16T06:48:06Z</time>
      </trkpt>
      <trkpt lat="45.99105" lon="4.81846">
        <ele>241.4282227</ele>
        <time>2010-05-16T06:48:10Z</time>
      </trkpt>
      <trkpt lat="45.99112" lon="4.81857">
        <ele>239.0249023</ele>
        <time>2010-05-16T06:48:16Z</time>
      </trkpt>
      <trkpt lat="45.99116" lon="4.81865">
        <ele>237.5828857</ele>
        <time>2010-05-16T06:48:20Z</time>
      </trkpt>
      <trkpt lat="45.99126" lon="4.81884">
        <ele>235.1796875</ele>
        <time>2010-05-16T06:48:26Z</time>
      </trkpt>
      <trkpt lat="45.9914" lon="4.81911">
        <ele>234.6990967</ele>
        <time>2010-05-16T06:48:32Z</time>
      </trkpt>
      <trkpt lat="45.99153" lon="4.81955">
        <ele>234.6990967</ele>
        <time>2010-05-16T06:48:39Z</time>
      </trkpt>
      <trkpt lat="45.99169" lon="4.82028">
        <ele>236.6217041</ele>
        <time>2010-05-16T06:48:50Z</time>
      </trkpt>
      <trkpt lat="45.99175" lon="4.82057">
        <ele>236.6217041</ele>
        <time>2010-05-16T06:48:55Z</time>
      </trkpt>
      <trkpt lat="45.99178" lon="4.82068">
        <ele>237.1022949</ele>
        <time>2010-05-16T06:48:57Z</time>
      </trkpt>
      <trkpt lat="45.99193" lon="4.82073">
        <ele>239.9862061</ele>
        <time>2010-05-16T06:49:01Z</time>
      </trkpt>
      <trkpt lat="45.99197" lon="4.82073">
        <ele>240.9476318</ele>
        <time>2010-05-16T06:49:02Z</time>
      </trkpt>
      <trkpt lat="45.99222" lon="4.82058">
        <ele>243.3508301</ele>
        <time>2010-05-16T06:49:08Z</time>
      </trkpt>
      <trkpt lat="45.99233" lon="4.82046">
        <ele>243.831543</ele>
        <time>2010-05-16T06:49:11Z</time>
      </trkpt>
      <trkpt lat="45.99244" lon="4.82036">
        <ele>244.7928467</ele>
        <time>2010-05-16T06:49:14Z</time>
      </trkpt>
      <trkpt lat="45.99262" lon="4.82021">
        <ele>247.1960449</ele>
        <time>2010-05-16T06:49:19Z</time>
      </trkpt>
      <trkpt lat="45.99288" lon="4.82018">
        <ele>250.0802002</ele>
        <time>2010-05-16T06:49:26Z</time>
      </trkpt>
      <trkpt lat="45.99322" lon="4.82028">
        <ele>249.5994873</ele>
        <time>2010-05-16T06:49:37Z</time>
      </trkpt>
      <trkpt lat="45.99345" lon="4.8204">
        <ele>251.0413818</ele>
        <time>2010-05-16T06:49:45Z</time>
      </trkpt>
      <trkpt lat="45.99366" lon="4.82054">
        <ele>252.9639893</ele>
        <time>2010-05-16T06:49:53Z</time>
      </trkpt>
      <trkpt lat="45.99375" lon="4.82065">
        <ele>252.9639893</ele>
        <time>2010-05-16T06:49:57Z</time>
      </trkpt>
      <trkpt lat="45.99372" lon="4.82083">
        <ele>256.8093262</ele>
        <time>2010-05-16T06:50:01Z</time>
      </trkpt>
      <trkpt lat="45.99355" lon="4.82111">
        <ele>255.3673096</ele>
        <time>2010-05-16T06:50:08Z</time>
      </trkpt>
      <trkpt lat="45.99336" lon="4.82136">
        <ele>255.3673096</ele>
        <time>2010-05-16T06:50:14Z</time>
      </trkpt>
      <trkpt lat="45.99313" lon="4.82166">
        <ele>254.8865967</ele>
        <time>2010-05-16T06:50:21Z</time>
      </trkpt>
      <trkpt lat="45.99289" lon="4.82196">
        <ele>253.4447021</ele>
        <time>2010-05-16T06:50:28Z</time>
      </trkpt>
      <trkpt lat="45.99258" lon="4.82238">
        <ele>252.0028076</ele>
        <time>2010-05-16T06:50:37Z</time>
      </trkpt>
      <trkpt lat="45.99254" lon="4.82243">
        <ele>252.9639893</ele>
        <time>2010-05-16T06:50:38Z</time>
      </trkpt>
      <trkpt lat="45.99236" lon="4.82254">
        <ele>252.9639893</ele>
        <time>2010-05-16T06:50:42Z</time>
      </trkpt>
      <trkpt lat="45.99232" lon="4.82256">
        <ele>252.9639893</ele>
        <time>2010-05-16T06:50:43Z</time>
      </trkpt>
      <trkpt lat="45.9922" lon="4.82274">
        <ele>251.5220947</ele>
        <time>2010-05-16T06:50:47Z</time>
      </trkpt>
      <trkpt lat="45.99219" lon="4.8228">
        <ele>251.5220947</ele>
        <time>2010-05-16T06:50:48Z</time>
      </trkpt>
      <trkpt lat="45.99222" lon="4.82302">
        <ele>249.5994873</ele>
        <time>2010-05-16T06:50:51Z</time>
      </trkpt>
      <trkpt lat="45.99216" lon="4.82373">
        <ele>244.3122559</ele>
        <time>2010-05-16T06:50:59Z</time>
      </trkpt>
      <trkpt lat="45.99211" lon="4.82413">
        <ele>242.8702393</ele>
        <time>2010-05-16T06:51:03Z</time>
      </trkpt>
      <trkpt lat="45.99197" lon="4.82454">
        <ele>241.4282227</ele>
        <time>2010-05-16T06:51:07Z</time>
      </trkpt>
      <trkpt lat="45.99176" lon="4.82476">
        <ele>239.9862061</ele>
        <time>2010-05-16T06:51:10Z</time>
      </trkpt>
      <trkpt lat="45.99134" lon="4.82511">
        <ele>238.5443115</ele>
        <time>2010-05-16T06:51:16Z</time>
      </trkpt>
      <trkpt lat="45.99116" lon="4.82527">
        <ele>238.5443115</ele>
        <time>2010-05-16T06:51:19Z</time>
      </trkpt>
      <trkpt lat="45.99108" lon="4.82554">
        <ele>238.0635986</ele>
        <time>2010-05-16T06:51:23Z</time>
      </trkpt>
      <trkpt lat="45.99116" lon="4.82586">
        <ele>237.1022949</ele>
        <time>2010-05-16T06:51:27Z</time>
      </trkpt>
      <trkpt lat="45.99121" lon="4.82615">
        <ele>237.1022949</ele>
        <time>2010-05-16T06:51:31Z</time>
      </trkpt>
      <trkpt lat="45.99124" lon="4.82635">
        <ele>238.0635986</ele>
        <time>2010-05-16T06:51:34Z</time>
      </trkpt>
      <trkpt lat="45.99132" lon="4.82667">
        <ele>239.0249023</ele>
        <time>2010-05-16T06:51:39Z</time>
      </trkpt>
      <trkpt lat="45.99141" lon="4.82724">
        <ele>239.0249023</ele>
        <time>2010-05-16T06:51:47Z</time>
      </trkpt>
      <trkpt lat="45.99141" lon="4.82795">
        <ele>238.5443115</ele>
        <time>2010-05-16T06:51:56Z</time>
      </trkpt>
      <trkpt lat="45.99143" lon="4.82841">
        <ele>239.0249023</ele>
        <time>2010-05-16T06:52:02Z</time>
      </trkpt>
      <trkpt lat="45.99145" lon="4.82878">
        <ele>239.9862061</ele>
        <time>2010-05-16T06:52:07Z</time>
      </trkpt>
      <trkpt lat="45.9914" lon="4.82939">
        <ele>241.9089355</ele>
        <time>2010-05-16T06:52:15Z</time>
      </trkpt>
      <trkpt lat="45.99134" lon="4.82974">
        <ele>242.3896484</ele>
        <time>2010-05-16T06:52:20Z</time>
      </trkpt>
      <trkpt lat="45.99121" lon="4.83031">
        <ele>243.831543</ele>
        <time>2010-05-16T06:52:28Z</time>
      </trkpt>
      <trkpt lat="45.99108" lon="4.83085">
        <ele>243.831543</ele>
        <time>2010-05-16T06:52:35Z</time>
      </trkpt>
      <trkpt lat="45.99101" lon="4.83129">
        <ele>244.3122559</ele>
        <time>2010-05-16T06:52:41Z</time>
      </trkpt>
      <trkpt lat="45.99092" lon="4.8318">
        <ele>243.831543</ele>
        <time>2010-05-16T06:52:48Z</time>
      </trkpt>
      <trkpt lat="45.99082" lon="4.83228">
        <ele>245.2734375</ele>
        <time>2010-05-16T06:52:55Z</time>
      </trkpt>
      <trkpt lat="45.99078" lon="4.83286">
        <ele>246.7154541</ele>
        <time>2010-05-16T06:53:03Z</time>
      </trkpt>
      <trkpt lat="45.99077" lon="4.83367">
        <ele>248.1575928</ele>
        <time>2010-05-16T06:53:14Z</time>
      </trkpt>
      <trkpt lat="45.99074" lon="4.83467">
        <ele>253.4447021</ele>
        <time>2010-05-16T06:53:27Z</time>
      </trkpt>
      <trkpt lat="45.99073" lon="4.83555">
        <ele>257.770752</ele>
        <time>2010-05-16T06:53:39Z</time>
      </trkpt>
      <trkpt lat="45.99074" lon="4.83634">
        <ele>256.8093262</ele>
        <time>2010-05-16T06:53:49Z</time>
      </trkpt>
      <trkpt lat="45.99073" lon="4.83692">
        <ele>258.7319336</ele>
        <time>2010-05-16T06:53:57Z</time>
      </trkpt>
      <trkpt lat="45.99078" lon="4.83773">
        <ele>263.5385742</ele>
        <time>2010-05-16T06:54:09Z</time>
      </trkpt>
      <trkpt lat="45.99081" lon="4.83836">
        <ele>265.9418945</ele>
        <time>2010-05-16T06:54:18Z</time>
      </trkpt>
      <trkpt lat="45.99086" lon="4.83903">
        <ele>267.3839111</ele>
        <time>2010-05-16T06:54:27Z</time>
      </trkpt>
      <trkpt lat="45.99091" lon="4.83974">
        <ele>267.3839111</ele>
        <time>2010-05-16T06:54:36Z</time>
      </trkpt>
      <trkpt lat="45.99096" lon="4.84042">
        <ele>269.3065186</ele>
        <time>2010-05-16T06:54:45Z</time>
      </trkpt>
      <trkpt lat="45.99101" lon="4.84123">
        <ele>268.8258057</ele>
        <time>2010-05-16T06:54:56Z</time>
      </trkpt>
      <trkpt lat="45.99107" lon="4.8418">
        <ele>268.3450928</ele>
        <time>2010-05-16T06:55:04Z</time>
      </trkpt>
      <trkpt lat="45.99113" lon="4.84237">
        <ele>267.3839111</ele>
        <time>2010-05-16T06:55:12Z</time>
      </trkpt>
      <trkpt lat="45.99115" lon="4.84251">
        <ele>266.4224854</ele>
        <time>2010-05-16T06:55:14Z</time>
      </trkpt>
      <trkpt lat="45.99117" lon="4.84262">
        <ele>265.4613037</ele>
        <time>2010-05-16T06:55:16Z</time>
      </trkpt>
      <trkpt lat="45.99118" lon="4.84272">
        <ele>264.4998779</ele>
        <time>2010-05-16T06:55:18Z</time>
      </trkpt>
      <trkpt lat="45.99111" lon="4.84289">
        <ele>262.5771484</ele>
        <time>2010-05-16T06:55:22Z</time>
      </trkpt>
      <trkpt lat="45.99068" lon="4.84296">
        <ele>263.0578613</ele>
        <time>2010-05-16T06:55:31Z</time>
      </trkpt>
      <trkpt lat="45.99032" lon="4.84301">
        <ele>263.5385742</ele>
        <time>2010-05-16T06:55:38Z</time>
      </trkpt>
      <trkpt lat="45.98985" lon="4.84305">
        <ele>269.3065186</ele>
        <time>2010-05-16T06:55:47Z</time>
      </trkpt>
      <trkpt lat="45.9894" lon="4.84307">
        <ele>275.0744629</ele>
        <time>2010-05-16T06:55:55Z</time>
      </trkpt>
      <trkpt lat="45.98895" lon="4.84307">
        <ele>278.9196777</ele>
        <time>2010-05-16T06:56:03Z</time>
      </trkpt>
      <trkpt lat="45.98844" lon="4.84303">
        <ele>282.7650146</ele>
        <time>2010-05-16T06:56:12Z</time>
      </trkpt>
      <trkpt lat="45.98791" lon="4.84293">
        <ele>285.6488037</ele>
        <time>2010-05-16T06:56:21Z</time>
      </trkpt>
      <trkpt lat="45.98747" lon="4.84282">
        <ele>289.0135498</ele>
        <time>2010-05-16T06:56:29Z</time>
      </trkpt>
      <trkpt lat="45.98735" lon="4.84277">
        <ele>290.4555664</ele>
        <time>2010-05-16T06:56:32Z</time>
      </trkpt>
      <trkpt lat="45.98725" lon="4.84263">
        <ele>289.9748535</ele>
        <time>2010-05-16T06:56:36Z</time>
      </trkpt>
      <trkpt lat="45.98718" lon="4.84204">
        <ele>293.8200684</ele>
        <time>2010-05-16T06:56:45Z</time>
      </trkpt>
      <trkpt lat="45.98707" lon="4.8413">
        <ele>298.1461182</ele>
        <time>2010-05-16T06:56:55Z</time>
      </trkpt>
      <trkpt lat="45.9869" lon="4.84069">
        <ele>301.0299072</ele>
        <time>2010-05-16T06:57:03Z</time>
      </trkpt>
      <trkpt lat="45.98677" lon="4.84032">
        <ele>302.4719238</ele>
        <time>2010-05-16T06:57:08Z</time>
      </trkpt>
      <trkpt lat="45.9867" lon="4.84004">
        <ele>302.9525146</ele>
        <time>2010-05-16T06:57:12Z</time>
      </trkpt>
      <trkpt lat="45.98658" lon="4.83938">
        <ele>302.9525146</ele>
        <time>2010-05-16T06:57:20Z</time>
      </trkpt>
      <trkpt lat="45.98644" lon="4.83866">
        <ele>302.4719238</ele>
        <time>2010-05-16T06:57:28Z</time>
      </trkpt>
      <trkpt lat="45.98632" lon="4.8376">
        <ele>304.3946533</ele>
        <time>2010-05-16T06:57:39Z</time>
      </trkpt>
      <trkpt lat="45.98624" lon="4.83688">
        <ele>305.8366699</ele>
        <time>2010-05-16T06:57:47Z</time>
      </trkpt>
      <trkpt lat="45.98617" lon="4.83621">
        <ele>307.2785645</ele>
        <time>2010-05-16T06:57:55Z</time>
      </trkpt>
      <trkpt lat="45.98609" lon="4.83528">
        <ele>310.1624756</ele>
        <time>2010-05-16T06:58:06Z</time>
      </trkpt>
      <trkpt lat="45.98607" lon="4.83511">
        <ele>310.6430664</ele>
        <time>2010-05-16T06:58:08Z</time>
      </trkpt>
      <trkpt lat="45.98601" lon="4.83441">
        <ele>313.0465088</ele>
        <time>2010-05-16T06:58:17Z</time>
      </trkpt>
      <trkpt lat="45.98596" lon="4.83386">
        <ele>314.4884033</ele>
        <time>2010-05-16T06:58:25Z</time>
      </trkpt>
      <trkpt lat="45.9859" lon="4.83318">
        <ele>315.4498291</ele>
        <time>2010-05-16T06:58:34Z</time>
      </trkpt>
      <trkpt lat="45.98584" lon="4.8325">
        <ele>315.4498291</ele>
        <time>2010-05-16T06:58:43Z</time>
      </trkpt>
      <trkpt lat="45.98582" lon="4.83208">
        <ele>315.4498291</ele>
        <time>2010-05-16T06:58:49Z</time>
      </trkpt>
      <trkpt lat="45.98578" lon="4.83152">
        <ele>315.9304199</ele>
        <time>2010-05-16T06:58:56Z</time>
      </trkpt>
      <trkpt lat="45.98575" lon="4.8308">
        <ele>317.3724365</ele>
        <time>2010-05-16T06:59:05Z</time>
      </trkpt>
      <trkpt lat="45.98575" lon="4.83021">
        <ele>318.3336182</ele>
        <time>2010-05-16T06:59:13Z</time>
      </trkpt>
      <trkpt lat="45.98575" lon="4.82951">
        <ele>315.9304199</ele>
        <time>2010-05-16T06:59:23Z</time>
      </trkpt>
      <trkpt lat="45.98574" lon="4.82885">
        <ele>313.0465088</ele>
        <time>2010-05-16T06:59:32Z</time>
      </trkpt>
      <trkpt lat="45.98573" lon="4.82831">
        <ele>310.6430664</ele>
        <time>2010-05-16T06:59:38Z</time>
      </trkpt>
      <trkpt lat="45.98569" lon="4.82709">
        <ele>307.7592773</ele>
        <time>2010-05-16T06:59:50Z</time>
      </trkpt>
      <trkpt lat="45.98565" lon="4.82603">
        <ele>304.8752441</ele>
        <time>2010-05-16T07:00:00Z</time>
      </trkpt>
      <trkpt lat="45.98563" lon="4.82556">
        <ele>301.0299072</ele>
        <time>2010-05-16T07:00:05Z</time>
      </trkpt>
      <trkpt lat="45.98554" lon="4.82534">
        <ele>298.626709</ele>
        <time>2010-05-16T07:00:09Z</time>
      </trkpt>
      <trkpt lat="45.9855" lon="4.82534">
        <ele>297.1846924</ele>
        <time>2010-05-16T07:00:10Z</time>
      </trkpt>
      <trkpt lat="45.98509" lon="4.82528">
        <ele>289.9748535</ele>
        <time>2010-05-16T07:00:17Z</time>
      </trkpt>
      <trkpt lat="45.9846" lon="4.82514">
        <ele>285.1682129</ele>
        <time>2010-05-16T07:00:24Z</time>
      </trkpt>
      <trkpt lat="45.98415" lon="4.82501">
        <ele>283.7261963</ele>
        <time>2010-05-16T07:00:30Z</time>
      </trkpt>
      <trkpt lat="45.98348" lon="4.82497">
        <ele>285.6488037</ele>
        <time>2010-05-16T07:00:39Z</time>
      </trkpt>
      <trkpt lat="45.98284" lon="4.82503">
        <ele>284.6876221</ele>
        <time>2010-05-16T07:00:48Z</time>
      </trkpt>
      <trkpt lat="45.98251" lon="4.82506">
        <ele>283.2456055</ele>
        <time>2010-05-16T07:00:53Z</time>
      </trkpt>
      <trkpt lat="45.98174" lon="4.82515">
        <ele>278.4389648</ele>
        <time>2010-05-16T07:01:04Z</time>
      </trkpt>
      <trkpt lat="45.98146" lon="4.82525">
        <ele>276.5163574</ele>
        <time>2010-05-16T07:01:08Z</time>
      </trkpt>
      <trkpt lat="45.9812" lon="4.82549">
        <ele>276.0356445</ele>
        <time>2010-05-16T07:01:12Z</time>
      </trkpt>
      <trkpt lat="45.98093" lon="4.82567">
        <ele>275.5550537</ele>
        <time>2010-05-16T07:01:16Z</time>
      </trkpt>
      <trkpt lat="45.98086" lon="4.82568">
        <ele>276.0356445</ele>
        <time>2010-05-16T07:01:17Z</time>
      </trkpt>
      <trkpt lat="45.98022" lon="4.82567">
        <ele>282.7650146</ele>
        <time>2010-05-16T07:01:25Z</time>
      </trkpt>
      <trkpt lat="45.97993" lon="4.82567">
        <ele>282.7650146</ele>
        <time>2010-05-16T07:01:29Z</time>
      </trkpt>
      <trkpt lat="45.97956" lon="4.82566">
        <ele>282.7650146</ele>
        <time>2010-05-16T07:01:34Z</time>
      </trkpt>
      <trkpt lat="45.97892" lon="4.82564">
        <ele>280.8424072</ele>
        <time>2010-05-16T07:01:43Z</time>
      </trkpt>
      <trkpt lat="45.97847" lon="4.82563">
        <ele>280.8424072</ele>
        <time>2010-05-16T07:01:49Z</time>
      </trkpt>
      <trkpt lat="45.97801" lon="4.82562">
        <ele>280.3616943</ele>
        <time>2010-05-16T07:01:55Z</time>
      </trkpt>
      <trkpt lat="45.97754" lon="4.82559">
        <ele>278.4389648</ele>
        <time>2010-05-16T07:02:02Z</time>
      </trkpt>
      <trkpt lat="45.97737" lon="4.82557">
        <ele>277.4776611</ele>
        <time>2010-05-16T07:02:05Z</time>
      </trkpt>
      <trkpt lat="45.97702" lon="4.82565">
        <ele>276.5163574</ele>
        <time>2010-05-16T07:02:11Z</time>
      </trkpt>
      <trkpt lat="45.97644" lon="4.82581">
        <ele>275.5550537</ele>
        <time>2010-05-16T07:02:20Z</time>
      </trkpt>
      <trkpt lat="45.97604" lon="4.8259">
        <ele>273.6324463</ele>
        <time>2010-05-16T07:02:26Z</time>
      </trkpt>
      <trkpt lat="45.97557" lon="4.826">
        <ele>271.229126</ele>
        <time>2010-05-16T07:02:33Z</time>
      </trkpt>
      <trkpt lat="45.97481" lon="4.8262">
        <ele>268.8258057</ele>
        <time>2010-05-16T07:02:44Z</time>
      </trkpt>
      <trkpt lat="45.97425" lon="4.82634">
        <ele>266.9031982</ele>
        <time>2010-05-16T07:02:52Z</time>
      </trkpt>
      <trkpt lat="45.97367" lon="4.82646">
        <ele>265.4613037</ele>
        <time>2010-05-16T07:03:00Z</time>
      </trkpt>
      <trkpt lat="45.97313" lon="4.82646">
        <ele>264.0192871</ele>
        <time>2010-05-16T07:03:07Z</time>
      </trkpt>
      <trkpt lat="45.97285" lon="4.82642">
        <ele>263.5385742</ele>
        <time>2010-05-16T07:03:11Z</time>
      </trkpt>
      <trkpt lat="45.97267" lon="4.82637">
        <ele>263.5385742</ele>
        <time>2010-05-16T07:03:14Z</time>
      </trkpt>
      <trkpt lat="45.97256" lon="4.8264">
        <ele>263.0578613</ele>
        <time>2010-05-16T07:03:18Z</time>
      </trkpt>
      <trkpt lat="45.97256" lon="4.82649">
        <ele>263.0578613</ele>
        <time>2010-05-16T07:03:20Z</time>
      </trkpt>
      <trkpt lat="45.97259" lon="4.82695">
        <ele>263.5385742</ele>
        <time>2010-05-16T07:03:27Z</time>
      </trkpt>
      <trkpt lat="45.97261" lon="4.82744">
        <ele>264.9805908</ele>
        <time>2010-05-16T07:03:34Z</time>
      </trkpt>
      <trkpt lat="45.97263" lon="4.8278">
        <ele>265.4613037</ele>
        <time>2010-05-16T07:03:39Z</time>
      </trkpt>
      <trkpt lat="45.97266" lon="4.82861">
        <ele>265.9418945</ele>
        <time>2010-05-16T07:03:51Z</time>
      </trkpt>
      <trkpt lat="45.97268" lon="4.82948">
        <ele>267.3839111</ele>
        <time>2010-05-16T07:04:04Z</time>
      </trkpt>
      <trkpt lat="45.9727" lon="4.83012">
        <ele>268.3450928</ele>
        <time>2010-05-16T07:04:14Z</time>
      </trkpt>
      <trkpt lat="45.97274" lon="4.83098">
        <ele>269.7871094</ele>
        <time>2010-05-16T07:04:27Z</time>
      </trkpt>
      <trkpt lat="45.97277" lon="4.83158">
        <ele>271.7097168</ele>
        <time>2010-05-16T07:04:37Z</time>
      </trkpt>
      <trkpt lat="45.97277" lon="4.83218">
        <ele>274.1130371</ele>
        <time>2010-05-16T07:04:48Z</time>
      </trkpt>
      <trkpt lat="45.9727" lon="4.83263">
        <ele>275.5550537</ele>
        <time>2010-05-16T07:04:56Z</time>
      </trkpt>
      <trkpt lat="45.97261" lon="4.83324">
        <ele>277.4776611</ele>
        <time>2010-05-16T07:05:06Z</time>
      </trkpt>
      <trkpt lat="45.97249" lon="4.83401">
        <ele>279.4002686</ele>
        <time>2010-05-16T07:05:18Z</time>
      </trkpt>
      <trkpt lat="45.97236" lon="4.83486">
        <ele>279.8808594</ele>
        <time>2010-05-16T07:05:31Z</time>
      </trkpt>
      <trkpt lat="45.97231" lon="4.83526">
        <ele>280.8424072</ele>
        <time>2010-05-16T07:05:38Z</time>
      </trkpt>
      <trkpt lat="45.97221" lon="4.83539">
        <ele>280.8424072</ele>
        <time>2010-05-16T07:05:42Z</time>
      </trkpt>
      <trkpt lat="45.97213" lon="4.83533">
        <ele>280.8424072</ele>
        <time>2010-05-16T07:05:44Z</time>
      </trkpt>
      <trkpt lat="45.97175" lon="4.83496">
        <ele>280.8424072</ele>
        <time>2010-05-16T07:05:53Z</time>
      </trkpt>
      <trkpt lat="45.97129" lon="4.8346">
        <ele>279.4002686</ele>
        <time>2010-05-16T07:06:02Z</time>
      </trkpt>
      <trkpt lat="45.97113" lon="4.83445">
        <ele>278.4389648</ele>
        <time>2010-05-16T07:06:05Z</time>
      </trkpt>
      <trkpt lat="45.97064" lon="4.83392">
        <ele>276.5163574</ele>
        <time>2010-05-16T07:06:14Z</time>
      </trkpt>
      <trkpt lat="45.9703" lon="4.83363">
        <ele>275.0744629</ele>
        <time>2010-05-16T07:06:19Z</time>
      </trkpt>
      <trkpt lat="45.96994" lon="4.83343">
        <ele>273.6324463</ele>
        <time>2010-05-16T07:06:24Z</time>
      </trkpt>
      <trkpt lat="45.9696" lon="4.83316">
        <ele>271.7097168</ele>
        <time>2010-05-16T07:06:29Z</time>
      </trkpt>
      <trkpt lat="45.96924" lon="4.83275">
        <ele>270.2677002</ele>
        <time>2010-05-16T07:06:35Z</time>
      </trkpt>
      <trkpt lat="45.96906" lon="4.83239">
        <ele>268.8258057</ele>
        <time>2010-05-16T07:06:39Z</time>
      </trkpt>
      <trkpt lat="45.96901" lon="4.83229">
        <ele>268.3450928</ele>
        <time>2010-05-16T07:06:40Z</time>
      </trkpt>
      <trkpt lat="45.96875" lon="4.83199">
        <ele>265.9418945</ele>
        <time>2010-05-16T07:06:44Z</time>
      </trkpt>
      <trkpt lat="45.96868" lon="4.83195">
        <ele>265.9418945</ele>
        <time>2010-05-16T07:06:45Z</time>
      </trkpt>
      <trkpt lat="45.96803" lon="4.83168">
        <ele>262.0965576</ele>
        <time>2010-05-16T07:06:53Z</time>
      </trkpt>
      <trkpt lat="45.9678" lon="4.83157">
        <ele>261.6159668</ele>
        <time>2010-05-16T07:06:56Z</time>
      </trkpt>
      <trkpt lat="45.96764" lon="4.83144">
        <ele>261.6159668</ele>
        <time>2010-05-16T07:06:59Z</time>
      </trkpt>
      <trkpt lat="45.96758" lon="4.83147">
        <ele>261.6159668</ele>
        <time>2010-05-16T07:07:03Z</time>
      </trkpt>
      <trkpt lat="45.96758" lon="4.8315">
        <ele>261.6159668</ele>
        <time>2010-05-16T07:07:04Z</time>
      </trkpt>
      <trkpt lat="45.96754" lon="4.83176">
        <ele>262.0965576</ele>
        <time>2010-05-16T07:07:09Z</time>
      </trkpt>
      <trkpt lat="45.96753" lon="4.83182">
        <ele>262.0965576</ele>
        <time>2010-05-16T07:07:10Z</time>
      </trkpt>
      <trkpt lat="45.96746" lon="4.83216">
        <ele>263.0578613</ele>
        <time>2010-05-16T07:07:16Z</time>
      </trkpt>
      <trkpt lat="45.96743" lon="4.83237">
        <ele>264.0192871</ele>
        <time>2010-05-16T07:07:20Z</time>
      </trkpt>
      <trkpt lat="45.96738" lon="4.8326">
        <ele>265.4613037</ele>
        <time>2010-05-16T07:07:25Z</time>
      </trkpt>
      <trkpt lat="45.96733" lon="4.83292">
        <ele>267.3839111</ele>
        <time>2010-05-16T07:07:32Z</time>
      </trkpt>
      <trkpt lat="45.96723" lon="4.83337">
        <ele>269.3065186</ele>
        <time>2010-05-16T07:07:42Z</time>
      </trkpt>
      <trkpt lat="45.9672" lon="4.83372">
        <ele>269.7871094</ele>
        <time>2010-05-16T07:07:49Z</time>
      </trkpt>
      <trkpt lat="45.96715" lon="4.83424">
        <ele>271.7097168</ele>
        <time>2010-05-16T07:08:00Z</time>
      </trkpt>
      <trkpt lat="45.9671" lon="4.83477">
        <ele>273.1518555</ele>
        <time>2010-05-16T07:08:11Z</time>
      </trkpt>
      <trkpt lat="45.96705" lon="4.83533">
        <ele>274.59375</ele>
        <time>2010-05-16T07:08:23Z</time>
      </trkpt>
      <trkpt lat="45.96709" lon="4.83575">
        <ele>275.0744629</ele>
        <time>2010-05-16T07:08:31Z</time>
      </trkpt>
      <trkpt lat="45.96715" lon="4.83619">
        <ele>274.59375</ele>
        <time>2010-05-16T07:08:38Z</time>
      </trkpt>
      <trkpt lat="45.96724" lon="4.83688">
        <ele>274.1130371</ele>
        <time>2010-05-16T07:08:48Z</time>
      </trkpt>
      <trkpt lat="45.96733" lon="4.8376">
        <ele>273.6324463</ele>
        <time>2010-05-16T07:08:58Z</time>
      </trkpt>
      <trkpt lat="45.96743" lon="4.83836">
        <ele>273.1518555</ele>
        <time>2010-05-16T07:09:08Z</time>
      </trkpt>
      <trkpt lat="45.96749" lon="4.83921">
        <ele>272.6711426</ele>
        <time>2010-05-16T07:09:19Z</time>
      </trkpt>
      <trkpt lat="45.96756" lon="4.83988">
        <ele>272.6711426</ele>
        <time>2010-05-16T07:09:28Z</time>
      </trkpt>
      <trkpt lat="45.96763" lon="4.84052">
        <ele>271.7097168</ele>
        <time>2010-05-16T07:09:36Z</time>
      </trkpt>
      <trkpt lat="45.96767" lon="4.84095">
        <ele>270.7484131</ele>
        <time>2010-05-16T07:09:41Z</time>
      </trkpt>
      <trkpt lat="45.96769" lon="4.84154">
        <ele>270.7484131</ele>
        <time>2010-05-16T07:09:48Z</time>
      </trkpt>
      <trkpt lat="45.96774" lon="4.84215">
        <ele>271.7097168</ele>
        <time>2010-05-16T07:09:56Z</time>
      </trkpt>
      <trkpt lat="45.9677" lon="4.84248">
        <ele>274.59375</ele>
        <time>2010-05-16T07:10:02Z</time>
      </trkpt>
      <trkpt lat="45.96759" lon="4.84286">
        <ele>276.5163574</ele>
        <time>2010-05-16T07:10:10Z</time>
      </trkpt>
      <trkpt lat="45.96749" lon="4.84319">
        <ele>277.4776611</ele>
        <time>2010-05-16T07:10:16Z</time>
      </trkpt>
      <trkpt lat="45.96746" lon="4.84373">
        <ele>276.9970703</ele>
        <time>2010-05-16T07:10:23Z</time>
      </trkpt>
      <trkpt lat="45.96744" lon="4.84456">
        <ele>276.0356445</ele>
        <time>2010-05-16T07:10:32Z</time>
      </trkpt>
      <trkpt lat="45.96742" lon="4.84553">
        <ele>275.5550537</ele>
        <time>2010-05-16T07:10:42Z</time>
      </trkpt>
      <trkpt lat="45.96741" lon="4.84629">
        <ele>275.5550537</ele>
        <time>2010-05-16T07:10:50Z</time>
      </trkpt>
      <trkpt lat="45.96739" lon="4.84708">
        <ele>275.5550537</ele>
        <time>2010-05-16T07:10:59Z</time>
      </trkpt>
      <trkpt lat="45.96736" lon="4.84791">
        <ele>276.9970703</ele>
        <time>2010-05-16T07:11:09Z</time>
      </trkpt>
      <trkpt lat="45.96734" lon="4.8485">
        <ele>276.9970703</ele>
        <time>2010-05-16T07:11:17Z</time>
      </trkpt>
      <trkpt lat="45.96725" lon="4.84871">
        <ele>276.0356445</ele>
        <time>2010-05-16T07:11:22Z</time>
      </trkpt>
      <trkpt lat="45.9672" lon="4.84871">
        <ele>276.0356445</ele>
        <time>2010-05-16T07:11:23Z</time>
      </trkpt>
      <trkpt lat="45.96683" lon="4.8486">
        <ele>275.0744629</ele>
        <time>2010-05-16T07:11:30Z</time>
      </trkpt>
      <trkpt lat="45.96655" lon="4.84867">
        <ele>275.0744629</ele>
        <time>2010-05-16T07:11:35Z</time>
      </trkpt>
      <trkpt lat="45.96644" lon="4.84864">
        <ele>274.59375</ele>
        <time>2010-05-16T07:11:37Z</time>
      </trkpt>
      <trkpt lat="45.96642" lon="4.84859">
        <ele>274.1130371</ele>
        <time>2010-05-16T07:11:38Z</time>
      </trkpt>
      <trkpt lat="45.96642" lon="4.84859">
        <ele>274.1130371</ele>
        <time>2010-05-16T07:11:38Z</time>
      </trkpt>
      <trkpt lat="45.96635" lon="4.84841">
        <ele>272.6711426</ele>
        <time>2010-05-16T07:11:41Z</time>
      </trkpt>
      <trkpt lat="45.96633" lon="4.84789">
        <ele>270.7484131</ele>
        <time>2010-05-16T07:11:47Z</time>
      </trkpt>
      <trkpt lat="45.96632" lon="4.84779">
        <ele>269.7871094</ele>
        <time>2010-05-16T07:11:48Z</time>
      </trkpt>
      <trkpt lat="45.96636" lon="4.84727">
        <ele>270.2677002</ele>
        <time>2010-05-16T07:11:53Z</time>
      </trkpt>
      <trkpt lat="45.96639" lon="4.84695">
        <ele>269.3065186</ele>
        <time>2010-05-16T07:11:56Z</time>
      </trkpt>
      <trkpt lat="45.96637" lon="4.84642">
        <ele>269.7871094</ele>
        <time>2010-05-16T07:12:01Z</time>
      </trkpt>
      <trkpt lat="45.96633" lon="4.84634">
        <ele>269.7871094</ele>
        <time>2010-05-16T07:12:05Z</time>
      </trkpt>
      <trkpt lat="45.96632" lon="4.8464">
        <ele>270.2677002</ele>
        <time>2010-05-16T07:12:08Z</time>
      </trkpt>
      <trkpt lat="45.96625" lon="4.84652">
        <ele>267.864502</ele>
        <time>2010-05-16T07:12:12Z</time>
      </trkpt>
      <trkpt lat="45.96616" lon="4.84664">
        <ele>266.4224854</ele>
        <time>2010-05-16T07:12:15Z</time>
      </trkpt>
      <trkpt lat="45.96615" lon="4.8467">
        <ele>265.4613037</ele>
        <time>2010-05-16T07:12:16Z</time>
      </trkpt>
      <trkpt lat="45.96608" lon="4.84703">
        <ele>263.5385742</ele>
        <time>2010-05-16T07:12:21Z</time>
      </trkpt>
      <trkpt lat="45.96596" lon="4.84716">
        <ele>262.0965576</ele>
        <time>2010-05-16T07:12:24Z</time>
      </trkpt>
      <trkpt lat="45.96589" lon="4.84715">
        <ele>261.6159668</ele>
        <time>2010-05-16T07:12:25Z</time>
      </trkpt>
      <trkpt lat="45.96536" lon="4.84697">
        <ele>259.2126465</ele>
        <time>2010-05-16T07:12:34Z</time>
      </trkpt>
      <trkpt lat="45.96522" lon="4.84683">
        <ele>259.2126465</ele>
        <time>2010-05-16T07:12:38Z</time>
      </trkpt>
      <trkpt lat="45.96512" lon="4.84678">
        <ele>257.2900391</ele>
        <time>2010-05-16T07:12:41Z</time>
      </trkpt>
      <trkpt lat="45.96497" lon="4.84683">
        <ele>256.3287354</ele>
        <time>2010-05-16T07:12:44Z</time>
      </trkpt>
      <trkpt lat="45.96491" lon="4.84683">
        <ele>255.8480225</ele>
        <time>2010-05-16T07:12:45Z</time>
      </trkpt>
      <trkpt lat="45.96452" lon="4.8468">
        <ele>253.925415</ele>
        <time>2010-05-16T07:12:52Z</time>
      </trkpt>
      <trkpt lat="45.96427" lon="4.84678">
        <ele>254.4060059</ele>
        <time>2010-05-16T07:12:57Z</time>
      </trkpt>
      <trkpt lat="45.96398" lon="4.84675">
        <ele>256.8093262</ele>
        <time>2010-05-16T07:13:03Z</time>
      </trkpt>
      <trkpt lat="45.96379" lon="4.84674">
        <ele>256.8093262</ele>
        <time>2010-05-16T07:13:07Z</time>
      </trkpt>
      <trkpt lat="45.9635" lon="4.8467">
        <ele>257.2900391</ele>
        <time>2010-05-16T07:13:13Z</time>
      </trkpt>
      <trkpt lat="45.96335" lon="4.84669">
        <ele>258.2513428</ele>
        <time>2010-05-16T07:13:16Z</time>
      </trkpt>
      <trkpt lat="45.96314" lon="4.84668">
        <ele>260.1739502</ele>
        <time>2010-05-16T07:13:21Z</time>
      </trkpt>
      <trkpt lat="45.96291" lon="4.84664">
        <ele>262.5771484</ele>
        <time>2010-05-16T07:13:27Z</time>
      </trkpt>
      <trkpt lat="45.9627" lon="4.8466">
        <ele>266.4224854</ele>
        <time>2010-05-16T07:13:33Z</time>
      </trkpt>
      <trkpt lat="45.96247" lon="4.84656">
        <ele>270.2677002</ele>
        <time>2010-05-16T07:13:40Z</time>
      </trkpt>
      <trkpt lat="45.9622" lon="4.84656">
        <ele>273.1518555</ele>
        <time>2010-05-16T07:13:48Z</time>
      </trkpt>
      <trkpt lat="45.96189" lon="4.84659">
        <ele>274.59375</ele>
        <time>2010-05-16T07:13:58Z</time>
      </trkpt>
      <trkpt lat="45.96168" lon="4.8466">
        <ele>277.4776611</ele>
        <time>2010-05-16T07:14:06Z</time>
      </trkpt>
      <trkpt lat="45.96146" lon="4.84662">
        <ele>278.9196777</ele>
        <time>2010-05-16T07:14:15Z</time>
      </trkpt>
      <trkpt lat="45.96132" lon="4.84662">
        <ele>280.3616943</ele>
        <time>2010-05-16T07:14:20Z</time>
      </trkpt>
      <trkpt lat="45.96105" lon="4.84662">
        <ele>281.8035889</ele>
        <time>2010-05-16T07:14:29Z</time>
      </trkpt>
      <trkpt lat="45.96084" lon="4.84663">
        <ele>280.3616943</ele>
        <time>2010-05-16T07:14:36Z</time>
      </trkpt>
      <trkpt lat="45.96054" lon="4.84665">
        <ele>279.4002686</ele>
        <time>2010-05-16T07:14:43Z</time>
      </trkpt>
      <trkpt lat="45.96019" lon="4.84668">
        <ele>276.9970703</ele>
        <time>2010-05-16T07:14:49Z</time>
      </trkpt>
      <trkpt lat="45.96007" lon="4.8467">
        <ele>276.0356445</ele>
        <time>2010-05-16T07:14:51Z</time>
      </trkpt>
      <trkpt lat="45.95994" lon="4.84683">
        <ele>276.9970703</ele>
        <time>2010-05-16T07:14:55Z</time>
      </trkpt>
      <trkpt lat="45.95996" lon="4.84705">
        <ele>278.4389648</ele>
        <time>2010-05-16T07:14:59Z</time>
      </trkpt>
      <trkpt lat="45.95998" lon="4.8471">
        <ele>278.9196777</ele>
        <time>2010-05-16T07:15:00Z</time>
      </trkpt>
      <trkpt lat="45.96012" lon="4.8475">
        <ele>279.4002686</ele>
        <time>2010-05-16T07:15:09Z</time>
      </trkpt>
      <trkpt lat="45.96022" lon="4.84786">
        <ele>278.9196777</ele>
        <time>2010-05-16T07:15:17Z</time>
      </trkpt>
      <trkpt lat="45.96011" lon="4.84799">
        <ele>277.958252</ele>
        <time>2010-05-16T07:15:21Z</time>
      </trkpt>
      <trkpt lat="45.95964" lon="4.84803">
        <ele>276.9970703</ele>
        <time>2010-05-16T07:15:31Z</time>
      </trkpt>
      <trkpt lat="45.95932" lon="4.8481">
        <ele>276.5163574</ele>
        <time>2010-05-16T07:15:37Z</time>
      </trkpt>
      <trkpt lat="45.95913" lon="4.84818">
        <ele>276.9970703</ele>
        <time>2010-05-16T07:15:41Z</time>
      </trkpt>
      <trkpt lat="45.95874" lon="4.84824">
        <ele>276.5163574</ele>
        <time>2010-05-16T07:15:48Z</time>
      </trkpt>
      <trkpt lat="45.95862" lon="4.84827">
        <ele>276.5163574</ele>
        <time>2010-05-16T07:15:50Z</time>
      </trkpt>
      <trkpt lat="45.95837" lon="4.84843">
        <ele>276.9970703</ele>
        <time>2010-05-16T07:15:55Z</time>
      </trkpt>
      <trkpt lat="45.95786" lon="4.84881">
        <ele>276.5163574</ele>
        <time>2010-05-16T07:16:05Z</time>
      </trkpt>
      <trkpt lat="45.95777" lon="4.84887">
        <ele>276.5163574</ele>
        <time>2010-05-16T07:16:07Z</time>
      </trkpt>
      <trkpt lat="45.95753" lon="4.84916">
        <ele>276.0356445</ele>
        <time>2010-05-16T07:16:13Z</time>
      </trkpt>
      <trkpt lat="45.95735" lon="4.84954">
        <ele>279.4002686</ele>
        <time>2010-05-16T07:16:19Z</time>
      </trkpt>
      <trkpt lat="45.95734" lon="4.84988">
        <ele>280.8424072</ele>
        <time>2010-05-16T07:16:24Z</time>
      </trkpt>
      <trkpt lat="45.95739" lon="4.85009">
        <ele>281.322998</ele>
        <time>2010-05-16T07:16:27Z</time>
      </trkpt>
      <trkpt lat="45.95745" lon="4.85047">
        <ele>282.2843018</ele>
        <time>2010-05-16T07:16:32Z</time>
      </trkpt>
      <trkpt lat="45.95739" lon="4.85074">
        <ele>281.8035889</ele>
        <time>2010-05-16T07:16:36Z</time>
      </trkpt>
      <trkpt lat="45.9573" lon="4.8508">
        <ele>280.3616943</ele>
        <time>2010-05-16T07:16:38Z</time>
      </trkpt>
      <trkpt lat="45.95721" lon="4.85083">
        <ele>279.4002686</ele>
        <time>2010-05-16T07:16:40Z</time>
      </trkpt>
      <trkpt lat="45.95705" lon="4.85077">
        <ele>279.4002686</ele>
        <time>2010-05-16T07:16:44Z</time>
      </trkpt>
      <trkpt lat="45.95693" lon="4.85085">
        <ele>279.4002686</ele>
        <time>2010-05-16T07:16:47Z</time>
      </trkpt>
      <trkpt lat="45.95666" lon="4.85103">
        <ele>279.8808594</ele>
        <time>2010-05-16T07:16:53Z</time>
      </trkpt>
      <trkpt lat="45.95642" lon="4.85106">
        <ele>280.8424072</ele>
        <time>2010-05-16T07:16:58Z</time>
      </trkpt>
      <trkpt lat="45.95627" lon="4.85103">
        <ele>281.322998</ele>
        <time>2010-05-16T07:17:01Z</time>
      </trkpt>
      <trkpt lat="45.95613" lon="4.85113">
        <ele>281.8035889</ele>
        <time>2010-05-16T07:17:05Z</time>
      </trkpt>
      <trkpt lat="45.95607" lon="4.85131">
        <ele>283.7261963</ele>
        <time>2010-05-16T07:17:09Z</time>
      </trkpt>
      <trkpt lat="45.95596" lon="4.85138">
        <ele>283.2456055</ele>
        <time>2010-05-16T07:17:12Z</time>
      </trkpt>
      <trkpt lat="45.95554" lon="4.85153">
        <ele>281.8035889</ele>
        <time>2010-05-16T07:17:21Z</time>
      </trkpt>
      <trkpt lat="45.95546" lon="4.85155">
        <ele>281.322998</ele>
        <time>2010-05-16T07:17:23Z</time>
      </trkpt>
      <trkpt lat="45.95532" lon="4.85171">
        <ele>281.8035889</ele>
        <time>2010-05-16T07:17:27Z</time>
      </trkpt>
      <trkpt lat="45.95522" lon="4.85197">
        <ele>283.7261963</ele>
        <time>2010-05-16T07:17:32Z</time>
      </trkpt>
      <trkpt lat="45.95514" lon="4.85203">
        <ele>283.2456055</ele>
        <time>2010-05-16T07:17:34Z</time>
      </trkpt>
      <trkpt lat="45.95478" lon="4.85218">
        <ele>281.322998</ele>
        <time>2010-05-16T07:17:40Z</time>
      </trkpt>
      <trkpt lat="45.95399" lon="4.85246">
        <ele>279.4002686</ele>
        <time>2010-05-16T07:17:51Z</time>
      </trkpt>
      <trkpt lat="45.95361" lon="4.85271">
        <ele>278.9196777</ele>
        <time>2010-05-16T07:17:57Z</time>
      </trkpt>
      <trkpt lat="45.95342" lon="4.85282">
        <ele>278.4389648</ele>
        <time>2010-05-16T07:18:00Z</time>
      </trkpt>
      <trkpt lat="45.95325" lon="4.85288">
        <ele>279.4002686</ele>
        <time>2010-05-16T07:18:03Z</time>
      </trkpt>
      <trkpt lat="45.95308" lon="4.853">
        <ele>279.8808594</ele>
        <time>2010-05-16T07:18:07Z</time>
      </trkpt>
      <trkpt lat="45.95294" lon="4.85308">
        <ele>280.3616943</ele>
        <time>2010-05-16T07:18:10Z</time>
      </trkpt>
      <trkpt lat="45.95256" lon="4.85325">
        <ele>279.8808594</ele>
        <time>2010-05-16T07:18:17Z</time>
      </trkpt>
      <trkpt lat="45.95245" lon="4.85345">
        <ele>280.8424072</ele>
        <time>2010-05-16T07:18:21Z</time>
      </trkpt>
      <trkpt lat="45.95245" lon="4.8535">
        <ele>280.8424072</ele>
        <time>2010-05-16T07:18:22Z</time>
      </trkpt>
      <trkpt lat="45.95246" lon="4.85359">
        <ele>281.8035889</ele>
        <time>2010-05-16T07:18:24Z</time>
      </trkpt>
      <trkpt lat="45.95241" lon="4.85383">
        <ele>284.6876221</ele>
        <time>2010-05-16T07:18:30Z</time>
      </trkpt>
      <trkpt lat="45.95234" lon="4.85387">
        <ele>284.6876221</ele>
        <time>2010-05-16T07:18:32Z</time>
      </trkpt>
      <trkpt lat="45.95219" lon="4.854">
        <ele>286.1295166</ele>
        <time>2010-05-16T07:18:37Z</time>
      </trkpt>
      <trkpt lat="45.95218" lon="4.85418">
        <ele>288.532959</ele>
        <time>2010-05-16T07:18:42Z</time>
      </trkpt>
      <trkpt lat="45.95213" lon="4.85434">
        <ele>289.9748535</ele>
        <time>2010-05-16T07:18:46Z</time>
      </trkpt>
      <trkpt lat="45.95199" lon="4.85448">
        <ele>290.4555664</ele>
        <time>2010-05-16T07:18:51Z</time>
      </trkpt>
      <trkpt lat="45.95167" lon="4.85463">
        <ele>289.0135498</ele>
        <time>2010-05-16T07:18:59Z</time>
      </trkpt>
      <trkpt lat="45.95159" lon="4.85469">
        <ele>289.0135498</ele>
        <time>2010-05-16T07:19:01Z</time>
      </trkpt>
      <trkpt lat="45.95149" lon="4.85484">
        <ele>289.4941406</ele>
        <time>2010-05-16T07:19:05Z</time>
      </trkpt>
      <trkpt lat="45.95153" lon="4.85499">
        <ele>290.4555664</ele>
        <time>2010-05-16T07:19:08Z</time>
      </trkpt>
      <trkpt lat="45.95165" lon="4.85538">
        <ele>292.3781738</ele>
        <time>2010-05-16T07:19:17Z</time>
      </trkpt>
      <trkpt lat="45.95169" lon="4.8557">
        <ele>292.8587646</ele>
        <time>2010-05-16T07:19:24Z</time>
      </trkpt>
      <trkpt lat="45.95155" lon="4.85589">
        <ele>293.3393555</ele>
        <time>2010-05-16T07:19:29Z</time>
      </trkpt>
      <trkpt lat="45.95136" lon="4.85601">
        <ele>292.8587646</ele>
        <time>2010-05-16T07:19:34Z</time>
      </trkpt>
      <trkpt lat="45.95105" lon="4.85614">
        <ele>293.3393555</ele>
        <time>2010-05-16T07:19:42Z</time>
      </trkpt>
      <trkpt lat="45.95074" lon="4.85624">
        <ele>292.3781738</ele>
        <time>2010-05-16T07:19:49Z</time>
      </trkpt>
      <trkpt lat="45.95037" lon="4.85629">
        <ele>290.9361572</ele>
        <time>2010-05-16T07:19:56Z</time>
      </trkpt>
      <trkpt lat="45.95032" lon="4.85629">
        <ele>290.4555664</ele>
        <time>2010-05-16T07:19:57Z</time>
      </trkpt>
      <trkpt lat="45.9501" lon="4.85638">
        <ele>290.4555664</ele>
        <time>2010-05-16T07:20:01Z</time>
      </trkpt>
      <trkpt lat="45.95007" lon="4.85653">
        <ele>289.9748535</ele>
        <time>2010-05-16T07:20:03Z</time>
      </trkpt>
      <trkpt lat="45.95012" lon="4.85716">
        <ele>285.1682129</ele>
        <time>2010-05-16T07:20:10Z</time>
      </trkpt>
      <trkpt lat="45.95015" lon="4.85774">
        <ele>280.8424072</ele>
        <time>2010-05-16T07:20:15Z</time>
      </trkpt>
      <trkpt lat="45.9502" lon="4.85829">
        <ele>278.9196777</ele>
        <time>2010-05-16T07:20:20Z</time>
      </trkpt>
      <trkpt lat="45.95011" lon="4.85856">
        <ele>278.4389648</ele>
        <time>2010-05-16T07:20:24Z</time>
      </trkpt>
      <trkpt lat="45.94999" lon="4.85859">
        <ele>277.958252</ele>
        <time>2010-05-16T07:20:26Z</time>
      </trkpt>
      <trkpt lat="45.94943" lon="4.85869">
        <ele>278.4389648</ele>
        <time>2010-05-16T07:20:34Z</time>
      </trkpt>
      <trkpt lat="45.94922" lon="4.85873">
        <ele>278.4389648</ele>
        <time>2010-05-16T07:20:37Z</time>
      </trkpt>
      <trkpt lat="45.94904" lon="4.85873">
        <ele>278.4389648</ele>
        <time>2010-05-16T07:20:40Z</time>
      </trkpt>
      <trkpt lat="45.94892" lon="4.8587">
        <ele>278.4389648</ele>
        <time>2010-05-16T07:20:42Z</time>
      </trkpt>
      <trkpt lat="45.94866" lon="4.85871">
        <ele>278.9196777</ele>
        <time>2010-05-16T07:20:47Z</time>
      </trkpt>
      <trkpt lat="45.9485" lon="4.85873">
        <ele>278.4389648</ele>
        <time>2010-05-16T07:20:51Z</time>
      </trkpt>
      <trkpt lat="45.94841" lon="4.85873">
        <ele>278.9196777</ele>
        <time>2010-05-16T07:20:55Z</time>
      </trkpt>
      <trkpt lat="45.9484" lon="4.85872">
        <ele>278.9196777</ele>
        <time>2010-05-16T07:20:58Z</time>
      </trkpt>
      <trkpt lat="45.94833" lon="4.85873">
        <ele>284.2069092</ele>
        <time>2010-05-16T07:23:34Z</time>
      </trkpt>
      <trkpt lat="45.94815" lon="4.85876">
        <ele>283.2456055</ele>
        <time>2010-05-16T07:23:39Z</time>
      </trkpt>
      <trkpt lat="45.94796" lon="4.85877">
        <ele>283.2456055</ele>
        <time>2010-05-16T07:23:43Z</time>
      </trkpt>
      <trkpt lat="45.94776" lon="4.85878">
        <ele>283.2456055</ele>
        <time>2010-05-16T07:23:47Z</time>
      </trkpt>
      <trkpt lat="45.94755" lon="4.8588">
        <ele>282.7650146</ele>
        <time>2010-05-16T07:23:51Z</time>
      </trkpt>
      <trkpt lat="45.94735" lon="4.85882">
        <ele>282.7650146</ele>
        <time>2010-05-16T07:23:55Z</time>
      </trkpt>
      <trkpt lat="45.94684" lon="4.85891">
        <ele>282.7650146</ele>
        <time>2010-05-16T07:24:04Z</time>
      </trkpt>
      <trkpt lat="45.94657" lon="4.85898">
        <ele>283.2456055</ele>
        <time>2010-05-16T07:24:09Z</time>
      </trkpt>
      <trkpt lat="45.94632" lon="4.85902">
        <ele>284.6876221</ele>
        <time>2010-05-16T07:24:14Z</time>
      </trkpt>
      <trkpt lat="45.94614" lon="4.85902">
        <ele>285.6488037</ele>
        <time>2010-05-16T07:24:18Z</time>
      </trkpt>
      <trkpt lat="45.9457" lon="4.85895">
        <ele>285.6488037</ele>
        <time>2010-05-16T07:24:27Z</time>
      </trkpt>
      <trkpt lat="45.94525" lon="4.85887">
        <ele>284.6876221</ele>
        <time>2010-05-16T07:24:34Z</time>
      </trkpt>
      <trkpt lat="45.94458" lon="4.85873">
        <ele>283.2456055</ele>
        <time>2010-05-16T07:24:44Z</time>
      </trkpt>
      <trkpt lat="45.94445" lon="4.85879">
        <ele>283.2456055</ele>
        <time>2010-05-16T07:24:48Z</time>
      </trkpt>
      <trkpt lat="45.94446" lon="4.85889">
        <ele>283.2456055</ele>
        <time>2010-05-16T07:24:50Z</time>
      </trkpt>
      <trkpt lat="45.94453" lon="4.8593">
        <ele>284.2069092</ele>
        <time>2010-05-16T07:24:57Z</time>
      </trkpt>
      <trkpt lat="45.94462" lon="4.85976">
        <ele>284.6876221</ele>
        <time>2010-05-16T07:25:04Z</time>
      </trkpt>
      <trkpt lat="45.94473" lon="4.86035">
        <ele>284.6876221</ele>
        <time>2010-05-16T07:25:12Z</time>
      </trkpt>
      <trkpt lat="45.94488" lon="4.86113">
        <ele>285.6488037</ele>
        <time>2010-05-16T07:25:22Z</time>
      </trkpt>
      <trkpt lat="45.94503" lon="4.8619">
        <ele>285.6488037</ele>
        <time>2010-05-16T07:25:32Z</time>
      </trkpt>
      <trkpt lat="45.94516" lon="4.8626">
        <ele>285.6488037</ele>
        <time>2010-05-16T07:25:41Z</time>
      </trkpt>
      <trkpt lat="45.94524" lon="4.86306">
        <ele>285.6488037</ele>
        <time>2010-05-16T07:25:47Z</time>
      </trkpt>
      <trkpt lat="45.94537" lon="4.86379">
        <ele>286.1295166</ele>
        <time>2010-05-16T07:25:57Z</time>
      </trkpt>
      <trkpt lat="45.94552" lon="4.86456">
        <ele>287.0908203</ele>
        <time>2010-05-16T07:26:08Z</time>
      </trkpt>
      <trkpt lat="45.94561" lon="4.86521">
        <ele>287.0908203</ele>
        <time>2010-05-16T07:26:17Z</time>
      </trkpt>
      <trkpt lat="45.94565" lon="4.86572">
        <ele>289.9748535</ele>
        <time>2010-05-16T07:26:25Z</time>
      </trkpt>
      <trkpt lat="45.94569" lon="4.86625">
        <ele>291.8974609</ele>
        <time>2010-05-16T07:26:35Z</time>
      </trkpt>
      <trkpt lat="45.94573" lon="4.86676">
        <ele>291.416748</ele>
        <time>2010-05-16T07:26:44Z</time>
      </trkpt>
      <trkpt lat="45.94579" lon="4.86722">
        <ele>289.4941406</ele>
        <time>2010-05-16T07:26:50Z</time>
      </trkpt>
      <trkpt lat="45.94594" lon="4.86796">
        <ele>287.0908203</ele>
        <time>2010-05-16T07:26:58Z</time>
      </trkpt>
      <trkpt lat="45.94615" lon="4.86857">
        <ele>285.1682129</ele>
        <time>2010-05-16T07:27:05Z</time>
      </trkpt>
      <trkpt lat="45.94652" lon="4.86949">
        <ele>283.7261963</ele>
        <time>2010-05-16T07:27:16Z</time>
      </trkpt>
      <trkpt lat="45.94682" lon="4.87009">
        <ele>283.2456055</ele>
        <time>2010-05-16T07:27:24Z</time>
      </trkpt>
      <trkpt lat="45.94702" lon="4.87039">
        <ele>283.7261963</ele>
        <time>2010-05-16T07:27:29Z</time>
      </trkpt>
      <trkpt lat="45.94716" lon="4.87074">
        <ele>284.2069092</ele>
        <time>2010-05-16T07:27:34Z</time>
      </trkpt>
      <trkpt lat="45.94733" lon="4.87124">
        <ele>284.6876221</ele>
        <time>2010-05-16T07:27:41Z</time>
      </trkpt>
      <trkpt lat="45.94749" lon="4.87173">
        <ele>285.6488037</ele>
        <time>2010-05-16T07:27:48Z</time>
      </trkpt>
      <trkpt lat="45.94766" lon="4.87226">
        <ele>287.5714111</ele>
        <time>2010-05-16T07:27:56Z</time>
      </trkpt>
      <trkpt lat="45.94789" lon="4.87294">
        <ele>289.9748535</ele>
        <time>2010-05-16T07:28:07Z</time>
      </trkpt>
      <trkpt lat="45.94806" lon="4.87338">
        <ele>289.0135498</ele>
        <time>2010-05-16T07:28:14Z</time>
      </trkpt>
      <trkpt lat="45.9482" lon="4.87386">
        <ele>285.1682129</ele>
        <time>2010-05-16T07:28:20Z</time>
      </trkpt>
      <trkpt lat="45.94833" lon="4.87448">
        <ele>282.7650146</ele>
        <time>2010-05-16T07:28:26Z</time>
      </trkpt>
      <trkpt lat="45.94837" lon="4.87468">
        <ele>282.2843018</ele>
        <time>2010-05-16T07:28:28Z</time>
      </trkpt>
      <trkpt lat="45.94837" lon="4.87519">
        <ele>283.2456055</ele>
        <time>2010-05-16T07:28:33Z</time>
      </trkpt>
      <trkpt lat="45.94836" lon="4.87537">
        <ele>283.7261963</ele>
        <time>2010-05-16T07:28:35Z</time>
      </trkpt>
      <trkpt lat="45.94835" lon="4.87572">
        <ele>285.6488037</ele>
        <time>2010-05-16T07:28:39Z</time>
      </trkpt>
      <trkpt lat="45.94838" lon="4.87598">
        <ele>286.1295166</ele>
        <time>2010-05-16T07:28:42Z</time>
      </trkpt>
      <trkpt lat="45.94836" lon="4.87669">
        <ele>288.532959</ele>
        <time>2010-05-16T07:28:50Z</time>
      </trkpt>
      <trkpt lat="45.94835" lon="4.87719">
        <ele>288.0522461</ele>
        <time>2010-05-16T07:28:56Z</time>
      </trkpt>
      <trkpt lat="45.94836" lon="4.87783">
        <ele>289.4941406</ele>
        <time>2010-05-16T07:29:03Z</time>
      </trkpt>
      <trkpt lat="45.94837" lon="4.87793">
        <ele>289.4941406</ele>
        <time>2010-05-16T07:29:04Z</time>
      </trkpt>
      <trkpt lat="45.94852" lon="4.87827">
        <ele>288.0522461</ele>
        <time>2010-05-16T07:29:08Z</time>
      </trkpt>
      <trkpt lat="45.94867" lon="4.87851">
        <ele>285.6488037</ele>
        <time>2010-05-16T07:29:11Z</time>
      </trkpt>
      <trkpt lat="45.94877" lon="4.87881">
        <ele>284.6876221</ele>
        <time>2010-05-16T07:29:14Z</time>
      </trkpt>
      <trkpt lat="45.94877" lon="4.87881">
        <ele>284.6876221</ele>
        <time>2010-05-16T07:29:14Z</time>
      </trkpt>
      <trkpt lat="45.94884" lon="4.87912">
        <ele>283.2456055</ele>
        <time>2010-05-16T07:29:17Z</time>
      </trkpt>
      <trkpt lat="45.949" lon="4.87987">
        <ele>283.2456055</ele>
        <time>2010-05-16T07:29:25Z</time>
      </trkpt>
      <trkpt lat="45.94913" lon="4.88039">
        <ele>282.2843018</ele>
        <time>2010-05-16T07:29:31Z</time>
      </trkpt>
      <trkpt lat="45.94924" lon="4.88092">
        <ele>283.2456055</ele>
        <time>2010-05-16T07:29:38Z</time>
      </trkpt>
      <trkpt lat="45.94939" lon="4.8817">
        <ele>284.2069092</ele>
        <time>2010-05-16T07:29:49Z</time>
      </trkpt>
      <trkpt lat="45.9494" lon="4.88177">
        <ele>284.6876221</ele>
        <time>2010-05-16T07:29:50Z</time>
      </trkpt>
      <trkpt lat="45.94949" lon="4.88247">
        <ele>286.1295166</ele>
        <time>2010-05-16T07:30:00Z</time>
      </trkpt>
      <trkpt lat="45.94952" lon="4.88273">
        <ele>286.1295166</ele>
        <time>2010-05-16T07:30:05Z</time>
      </trkpt>
      <trkpt lat="45.94953" lon="4.88285">
        <ele>286.6102295</ele>
        <time>2010-05-16T07:30:11Z</time>
      </trkpt>
      <trkpt lat="45.94953" lon="4.88285">
        <ele>286.1295166</ele>
        <time>2010-05-16T07:30:13Z</time>
      </trkpt>
      <trkpt lat="45.94952" lon="4.88273">
        <ele>285.6488037</ele>
        <time>2010-05-16T07:30:29Z</time>
      </trkpt>
      <trkpt lat="45.9495" lon="4.88247">
        <ele>284.6876221</ele>
        <time>2010-05-16T07:30:35Z</time>
      </trkpt>
      <trkpt lat="45.94946" lon="4.88206">
        <ele>283.7261963</ele>
        <time>2010-05-16T07:30:41Z</time>
      </trkpt>
      <trkpt lat="45.94938" lon="4.88149">
        <ele>283.7261963</ele>
        <time>2010-05-16T07:30:48Z</time>
      </trkpt>
      <trkpt lat="45.94929" lon="4.88108">
        <ele>283.2456055</ele>
        <time>2010-05-16T07:30:53Z</time>
      </trkpt>
      <trkpt lat="45.94918" lon="4.88059">
        <ele>281.8035889</ele>
        <time>2010-05-16T07:30:59Z</time>
      </trkpt>
      <trkpt lat="45.94913" lon="4.8804">
        <ele>280.8424072</ele>
        <time>2010-05-16T07:31:02Z</time>
      </trkpt>
      <trkpt lat="45.94913" lon="4.88028">
        <ele>281.322998</ele>
        <time>2010-05-16T07:31:07Z</time>
      </trkpt>
      <trkpt lat="45.94916" lon="4.88031">
        <ele>281.322998</ele>
        <time>2010-05-16T07:31:12Z</time>
      </trkpt>
      <trkpt lat="45.94914" lon="4.88033">
        <ele>281.322998</ele>
        <time>2010-05-16T07:31:15Z</time>
      </trkpt>
      <trkpt lat="45.9491" lon="4.88032">
        <ele>281.322998</ele>
        <time>2010-05-16T07:31:18Z</time>
      </trkpt>
      <trkpt lat="45.94907" lon="4.88032">
        <ele>281.8035889</ele>
        <time>2010-05-16T07:31:22Z</time>
      </trkpt>
      <trkpt lat="45.94902" lon="4.88033">
        <ele>279.8808594</ele>
        <time>2010-05-16T07:31:28Z</time>
      </trkpt>
      <trkpt lat="45.94908" lon="4.8803">
        <ele>282.2843018</ele>
        <time>2010-05-16T07:32:05Z</time>
      </trkpt>
      <trkpt lat="45.94929" lon="4.88031">
        <ele>283.2456055</ele>
        <time>2010-05-16T07:33:25Z</time>
      </trkpt>
      <trkpt lat="45.94942" lon="4.88029">
        <ele>284.2069092</ele>
        <time>2010-05-16T07:33:29Z</time>
      </trkpt>
      <trkpt lat="45.9496" lon="4.88024">
        <ele>285.1682129</ele>
        <time>2010-05-16T07:33:33Z</time>
      </trkpt>
      <trkpt lat="45.94985" lon="4.88019">
        <ele>285.1682129</ele>
        <time>2010-05-16T07:33:38Z</time>
      </trkpt>
      <trkpt lat="45.9501" lon="4.88013">
        <ele>284.6876221</ele>
        <time>2010-05-16T07:33:43Z</time>
      </trkpt>
      <trkpt lat="45.9503" lon="4.88008">
        <ele>285.6488037</ele>
        <time>2010-05-16T07:33:47Z</time>
      </trkpt>
      <trkpt lat="45.95055" lon="4.88002">
        <ele>286.1295166</ele>
        <time>2010-05-16T07:33:52Z</time>
      </trkpt>
      <trkpt lat="45.95069" lon="4.87998">
        <ele>286.1295166</ele>
        <time>2010-05-16T07:33:55Z</time>
      </trkpt>
      <trkpt lat="45.95084" lon="4.88006">
        <ele>287.5714111</ele>
        <time>2010-05-16T07:33:59Z</time>
      </trkpt>
      <trkpt lat="45.95086" lon="4.88012">
        <ele>288.0522461</ele>
        <time>2010-05-16T07:34:00Z</time>
      </trkpt>
      <trkpt lat="45.95088" lon="4.88032">
        <ele>288.532959</ele>
        <time>2010-05-16T07:34:03Z</time>
      </trkpt>
      <trkpt lat="45.95098" lon="4.88078">
        <ele>289.0135498</ele>
        <time>2010-05-16T07:34:10Z</time>
      </trkpt>
      <trkpt lat="45.95113" lon="4.88119">
        <ele>288.532959</ele>
        <time>2010-05-16T07:34:17Z</time>
      </trkpt>
      <trkpt lat="45.9513" lon="4.88155">
        <ele>288.532959</ele>
        <time>2010-05-16T07:34:24Z</time>
      </trkpt>
      <trkpt lat="45.95138" lon="4.8817">
        <ele>289.0135498</ele>
        <time>2010-05-16T07:34:29Z</time>
      </trkpt>
      <trkpt lat="45.95134" lon="4.88184">
        <ele>289.9748535</ele>
        <time>2010-05-16T07:34:33Z</time>
      </trkpt>
      <trkpt lat="45.9511" lon="4.88218">
        <ele>290.9361572</ele>
        <time>2010-05-16T07:34:42Z</time>
      </trkpt>
      <trkpt lat="45.95108" lon="4.88238">
        <ele>290.9361572</ele>
        <time>2010-05-16T07:34:46Z</time>
      </trkpt>
      <trkpt lat="45.95115" lon="4.88262">
        <ele>291.416748</ele>
        <time>2010-05-16T07:34:50Z</time>
      </trkpt>
      <trkpt lat="45.95116" lon="4.88287">
        <ele>292.3781738</ele>
        <time>2010-05-16T07:34:54Z</time>
      </trkpt>
      <trkpt lat="45.95106" lon="4.88357">
        <ele>296.7041016</ele>
        <time>2010-05-16T07:35:05Z</time>
      </trkpt>
      <trkpt lat="45.95104" lon="4.88381">
        <ele>296.7041016</ele>
        <time>2010-05-16T07:35:09Z</time>
      </trkpt>
      <trkpt lat="45.95094" lon="4.88443">
        <ele>298.1461182</ele>
        <time>2010-05-16T07:35:18Z</time>
      </trkpt>
      <trkpt lat="45.95094" lon="4.8845">
        <ele>298.1461182</ele>
        <time>2010-05-16T07:35:19Z</time>
      </trkpt>
      <trkpt lat="45.95096" lon="4.88486">
        <ele>297.1846924</ele>
        <time>2010-05-16T07:35:24Z</time>
      </trkpt>
      <trkpt lat="45.95107" lon="4.88544">
        <ele>295.2619629</ele>
        <time>2010-05-16T07:35:32Z</time>
      </trkpt>
      <trkpt lat="45.9511" lon="4.88566">
        <ele>295.2619629</ele>
        <time>2010-05-16T07:35:35Z</time>
      </trkpt>
      <trkpt lat="45.95107" lon="4.8862">
        <ele>296.2235107</ele>
        <time>2010-05-16T07:35:42Z</time>
      </trkpt>
      <trkpt lat="45.95104" lon="4.88676">
        <ele>294.3007813</ele>
        <time>2010-05-16T07:35:49Z</time>
      </trkpt>
      <trkpt lat="45.95104" lon="4.8875">
        <ele>293.3393555</ele>
        <time>2010-05-16T07:35:57Z</time>
      </trkpt>
      <trkpt lat="45.95104" lon="4.88798">
        <ele>292.8587646</ele>
        <time>2010-05-16T07:36:02Z</time>
      </trkpt>
      <trkpt lat="45.95098" lon="4.88869">
        <ele>291.8974609</ele>
        <time>2010-05-16T07:36:09Z</time>
      </trkpt>
      <trkpt lat="45.95092" lon="4.88937">
        <ele>291.8974609</ele>
        <time>2010-05-16T07:36:16Z</time>
      </trkpt>
      <trkpt lat="45.95086" lon="4.89011">
        <ele>291.8974609</ele>
        <time>2010-05-16T07:36:24Z</time>
      </trkpt>
      <trkpt lat="45.9508" lon="4.89068">
        <ele>290.4555664</ele>
        <time>2010-05-16T07:36:30Z</time>
      </trkpt>
      <trkpt lat="45.95072" lon="4.89164">
        <ele>289.9748535</ele>
        <time>2010-05-16T07:36:40Z</time>
      </trkpt>
      <trkpt lat="45.95067" lon="4.8925">
        <ele>290.4555664</ele>
        <time>2010-05-16T07:36:49Z</time>
      </trkpt>
      <trkpt lat="45.95064" lon="4.89343">
        <ele>289.9748535</ele>
        <time>2010-05-16T07:36:59Z</time>
      </trkpt>
      <trkpt lat="45.95068" lon="4.89418">
        <ele>288.532959</ele>
        <time>2010-05-16T07:37:07Z</time>
      </trkpt>
      <trkpt lat="45.95078" lon="4.8947">
        <ele>288.0522461</ele>
        <time>2010-05-16T07:37:13Z</time>
      </trkpt>
      <trkpt lat="45.95072" lon="4.89499">
        <ele>288.0522461</ele>
        <time>2010-05-16T07:37:17Z</time>
      </trkpt>
      <trkpt lat="45.95061" lon="4.89505">
        <ele>288.0522461</ele>
        <time>2010-05-16T07:37:19Z</time>
      </trkpt>
      <trkpt lat="45.95012" lon="4.89519">
        <ele>288.532959</ele>
        <time>2010-05-16T07:37:27Z</time>
      </trkpt>
      <trkpt lat="45.94996" lon="4.89513">
        <ele>289.0135498</ele>
        <time>2010-05-16T07:37:31Z</time>
      </trkpt>
      <trkpt lat="45.94993" lon="4.89502">
        <ele>289.0135498</ele>
        <time>2010-05-16T07:37:33Z</time>
      </trkpt>
      <trkpt lat="45.94987" lon="4.89476">
        <ele>289.4941406</ele>
        <time>2010-05-16T07:37:38Z</time>
      </trkpt>
      <trkpt lat="45.94971" lon="4.89448">
        <ele>289.9748535</ele>
        <time>2010-05-16T07:37:44Z</time>
      </trkpt>
      <trkpt lat="45.94963" lon="4.89444">
        <ele>290.4555664</ele>
        <time>2010-05-16T07:37:46Z</time>
      </trkpt>
      <trkpt lat="45.94938" lon="4.89441">
        <ele>291.416748</ele>
        <time>2010-05-16T07:37:52Z</time>
      </trkpt>
      <trkpt lat="45.94904" lon="4.89437">
        <ele>291.8974609</ele>
        <time>2010-05-16T07:38:01Z</time>
      </trkpt>
      <trkpt lat="45.94875" lon="4.89434">
        <ele>293.3393555</ele>
        <time>2010-05-16T07:38:10Z</time>
      </trkpt>
      <trkpt lat="45.94851" lon="4.89424">
        <ele>294.7813721</ele>
        <time>2010-05-16T07:38:19Z</time>
      </trkpt>
      <trkpt lat="45.94828" lon="4.89415">
        <ele>295.7426758</ele>
        <time>2010-05-16T07:38:27Z</time>
      </trkpt>
      <trkpt lat="45.94805" lon="4.89409">
        <ele>296.7041016</ele>
        <time>2010-05-16T07:38:34Z</time>
      </trkpt>
      <trkpt lat="45.94768" lon="4.894">
        <ele>296.2235107</ele>
        <time>2010-05-16T07:38:43Z</time>
      </trkpt>
      <trkpt lat="45.94741" lon="4.89388">
        <ele>295.7426758</ele>
        <time>2010-05-16T07:38:50Z</time>
      </trkpt>
      <trkpt lat="45.94704" lon="4.8936">
        <ele>294.3007813</ele>
        <time>2010-05-16T07:39:00Z</time>
      </trkpt>
      <trkpt lat="45.94674" lon="4.89334">
        <ele>294.7813721</ele>
        <time>2010-05-16T07:39:08Z</time>
      </trkpt>
      <trkpt lat="45.94639" lon="4.89307">
        <ele>295.2619629</ele>
        <time>2010-05-16T07:39:17Z</time>
      </trkpt>
      <trkpt lat="45.94607" lon="4.89285">
        <ele>294.7813721</ele>
        <time>2010-05-16T07:39:25Z</time>
      </trkpt>
      <trkpt lat="45.94579" lon="4.89266">
        <ele>294.7813721</ele>
        <time>2010-05-16T07:39:32Z</time>
      </trkpt>
      <trkpt lat="45.94575" lon="4.89264">
        <ele>294.3007813</ele>
        <time>2010-05-16T07:39:33Z</time>
      </trkpt>
      <trkpt lat="45.9456" lon="4.89267">
        <ele>294.3007813</ele>
        <time>2010-05-16T07:39:37Z</time>
      </trkpt>
      <trkpt lat="45.94544" lon="4.8928">
        <ele>294.3007813</ele>
        <time>2010-05-16T07:39:41Z</time>
      </trkpt>
      <trkpt lat="45.94524" lon="4.89283">
        <ele>293.3393555</ele>
        <time>2010-05-16T07:39:45Z</time>
      </trkpt>
      <trkpt lat="45.94487" lon="4.89282">
        <ele>291.8974609</ele>
        <time>2010-05-16T07:39:52Z</time>
      </trkpt>
      <trkpt lat="45.9445" lon="4.8928">
        <ele>290.9361572</ele>
        <time>2010-05-16T07:40:00Z</time>
      </trkpt>
      <trkpt lat="45.9441" lon="4.8928">
        <ele>289.9748535</ele>
        <time>2010-05-16T07:40:08Z</time>
      </trkpt>
      <trkpt lat="45.9437" lon="4.89283">
        <ele>289.0135498</ele>
        <time>2010-05-16T07:40:16Z</time>
      </trkpt>
      <trkpt lat="45.9434" lon="4.89285">
        <ele>288.532959</ele>
        <time>2010-05-16T07:40:22Z</time>
      </trkpt>
      <trkpt lat="45.94288" lon="4.89287">
        <ele>289.4941406</ele>
        <time>2010-05-16T07:40:31Z</time>
      </trkpt>
      <trkpt lat="45.94229" lon="4.89282">
        <ele>290.9361572</ele>
        <time>2010-05-16T07:40:41Z</time>
      </trkpt>
      <trkpt lat="45.94183" lon="4.89284">
        <ele>289.4941406</ele>
        <time>2010-05-16T07:40:49Z</time>
      </trkpt>
      <trkpt lat="45.94129" lon="4.8929">
        <ele>287.5714111</ele>
        <time>2010-05-16T07:40:58Z</time>
      </trkpt>
      <trkpt lat="45.9411" lon="4.89292">
        <ele>287.0908203</ele>
        <time>2010-05-16T07:41:01Z</time>
      </trkpt>
      <trkpt lat="45.94052" lon="4.8928">
        <ele>286.6102295</ele>
        <time>2010-05-16T07:41:10Z</time>
      </trkpt>
      <trkpt lat="45.94021" lon="4.89267">
        <ele>286.1295166</ele>
        <time>2010-05-16T07:41:15Z</time>
      </trkpt>
      <trkpt lat="45.9397" lon="4.89236">
        <ele>286.1295166</ele>
        <time>2010-05-16T07:41:24Z</time>
      </trkpt>
      <trkpt lat="45.93942" lon="4.89205">
        <ele>286.6102295</ele>
        <time>2010-05-16T07:41:30Z</time>
      </trkpt>
      <trkpt lat="45.93908" lon="4.8916">
        <ele>288.0522461</ele>
        <time>2010-05-16T07:41:38Z</time>
      </trkpt>
      <trkpt lat="45.93849" lon="4.89088">
        <ele>289.4941406</ele>
        <time>2010-05-16T07:41:51Z</time>
      </trkpt>
      <trkpt lat="45.93812" lon="4.89048">
        <ele>290.4555664</ele>
        <time>2010-05-16T07:41:59Z</time>
      </trkpt>
      <trkpt lat="45.93773" lon="4.89014">
        <ele>290.9361572</ele>
        <time>2010-05-16T07:42:07Z</time>
      </trkpt>
      <trkpt lat="45.93721" lon="4.88982">
        <ele>291.416748</ele>
        <time>2010-05-16T07:42:17Z</time>
      </trkpt>
      <trkpt lat="45.93661" lon="4.8895">
        <ele>290.4555664</ele>
        <time>2010-05-16T07:42:28Z</time>
      </trkpt>
      <trkpt lat="45.93609" lon="4.88932">
        <ele>289.9748535</ele>
        <time>2010-05-16T07:42:37Z</time>
      </trkpt>
      <trkpt lat="45.93575" lon="4.88918">
        <ele>290.4555664</ele>
        <time>2010-05-16T07:42:43Z</time>
      </trkpt>
      <trkpt lat="45.93519" lon="4.88877">
        <ele>292.3781738</ele>
        <time>2010-05-16T07:42:54Z</time>
      </trkpt>
      <trkpt lat="45.93515" lon="4.88874">
        <ele>292.8587646</ele>
        <time>2010-05-16T07:42:55Z</time>
      </trkpt>
      <trkpt lat="45.93479" lon="4.88865">
        <ele>295.2619629</ele>
        <time>2010-05-16T07:43:03Z</time>
      </trkpt>
      <trkpt lat="45.9344" lon="4.88856">
        <ele>296.7041016</ele>
        <time>2010-05-16T07:43:12Z</time>
      </trkpt>
      <trkpt lat="45.93424" lon="4.8885">
        <ele>297.6654053</ele>
        <time>2010-05-16T07:43:17Z</time>
      </trkpt>
      <trkpt lat="45.93412" lon="4.88846">
        <ele>298.626709</ele>
        <time>2010-05-16T07:43:22Z</time>
      </trkpt>
      <trkpt lat="45.93388" lon="4.8884">
        <ele>298.1461182</ele>
        <time>2010-05-16T07:43:29Z</time>
      </trkpt>
      <trkpt lat="45.93361" lon="4.88833">
        <ele>297.6654053</ele>
        <time>2010-05-16T07:43:38Z</time>
      </trkpt>
      <trkpt lat="45.93337" lon="4.88828">
        <ele>297.1846924</ele>
        <time>2010-05-16T07:43:44Z</time>
      </trkpt>
      <trkpt lat="45.93303" lon="4.88819">
        <ele>296.7041016</ele>
        <time>2010-05-16T07:43:52Z</time>
      </trkpt>
      <trkpt lat="45.93294" lon="4.88815">
        <ele>296.2235107</ele>
        <time>2010-05-16T07:43:54Z</time>
      </trkpt>
      <trkpt lat="45.93239" lon="4.88808">
        <ele>297.1846924</ele>
        <time>2010-05-16T07:44:05Z</time>
      </trkpt>
      <trkpt lat="45.93209" lon="4.88804">
        <ele>297.6654053</ele>
        <time>2010-05-16T07:44:11Z</time>
      </trkpt>
      <trkpt lat="45.93199" lon="4.88792">
        <ele>297.1846924</ele>
        <time>2010-05-16T07:44:15Z</time>
      </trkpt>
      <trkpt lat="45.93198" lon="4.88786">
        <ele>297.1846924</ele>
        <time>2010-05-16T07:44:16Z</time>
      </trkpt>
      <trkpt lat="45.93197" lon="4.88727">
        <ele>295.7426758</ele>
        <time>2010-05-16T07:44:24Z</time>
      </trkpt>
      <trkpt lat="45.93196" lon="4.88647">
        <ele>294.3007813</ele>
        <time>2010-05-16T07:44:34Z</time>
      </trkpt>
      <trkpt lat="45.93195" lon="4.88632">
        <ele>294.3007813</ele>
        <time>2010-05-16T07:44:36Z</time>
      </trkpt>
      <trkpt lat="45.93182" lon="4.88582">
        <ele>294.7813721</ele>
        <time>2010-05-16T07:44:43Z</time>
      </trkpt>
      <trkpt lat="45.93162" lon="4.88518">
        <ele>296.7041016</ele>
        <time>2010-05-16T07:44:52Z</time>
      </trkpt>
      <trkpt lat="45.93144" lon="4.88457">
        <ele>297.6654053</ele>
        <time>2010-05-16T07:45:01Z</time>
      </trkpt>
      <trkpt lat="45.93125" lon="4.88399">
        <ele>299.1072998</ele>
        <time>2010-05-16T07:45:10Z</time>
      </trkpt>
      <trkpt lat="45.93105" lon="4.88335">
        <ele>299.5880127</ele>
        <time>2010-05-16T07:45:20Z</time>
      </trkpt>
      <trkpt lat="45.93085" lon="4.88269">
        <ele>299.1072998</ele>
        <time>2010-05-16T07:45:30Z</time>
      </trkpt>
      <trkpt lat="45.93075" lon="4.88239">
        <ele>299.1072998</ele>
        <time>2010-05-16T07:45:36Z</time>
      </trkpt>
      <trkpt lat="45.93066" lon="4.88222">
        <ele>298.626709</ele>
        <time>2010-05-16T07:45:40Z</time>
      </trkpt>
      <trkpt lat="45.93064" lon="4.88208">
        <ele>298.1461182</ele>
        <time>2010-05-16T07:45:45Z</time>
      </trkpt>
      <trkpt lat="45.9306" lon="4.88191">
        <ele>297.1846924</ele>
        <time>2010-05-16T07:45:49Z</time>
      </trkpt>
      <trkpt lat="45.93051" lon="4.88159">
        <ele>296.7041016</ele>
        <time>2010-05-16T07:45:55Z</time>
      </trkpt>
      <trkpt lat="45.93038" lon="4.88114">
        <ele>295.7426758</ele>
        <time>2010-05-16T07:46:02Z</time>
      </trkpt>
      <trkpt lat="45.93023" lon="4.8806">
        <ele>295.2619629</ele>
        <time>2010-05-16T07:46:09Z</time>
      </trkpt>
      <trkpt lat="45.93003" lon="4.87973">
        <ele>295.7426758</ele>
        <time>2010-05-16T07:46:19Z</time>
      </trkpt>
      <trkpt lat="45.92986" lon="4.879">
        <ele>295.7426758</ele>
        <time>2010-05-16T07:46:27Z</time>
      </trkpt>
      <trkpt lat="45.9298" lon="4.87881">
        <ele>295.7426758</ele>
        <time>2010-05-16T07:46:29Z</time>
      </trkpt>
      <trkpt lat="45.92957" lon="4.87843">
        <ele>296.7041016</ele>
        <time>2010-05-16T07:46:34Z</time>
      </trkpt>
      <trkpt lat="45.9295" lon="4.87838">
        <ele>296.7041016</ele>
        <time>2010-05-16T07:46:35Z</time>
      </trkpt>
      <trkpt lat="45.92943" lon="4.87834">
        <ele>296.7041016</ele>
        <time>2010-05-16T07:46:36Z</time>
      </trkpt>
      <trkpt lat="45.92943" lon="4.87834">
        <ele>296.7041016</ele>
        <time>2010-05-16T07:46:36Z</time>
      </trkpt>
      <trkpt lat="45.92889" lon="4.878">
        <ele>296.7041016</ele>
        <time>2010-05-16T07:46:44Z</time>
      </trkpt>
      <trkpt lat="45.92859" lon="4.87766">
        <ele>296.7041016</ele>
        <time>2010-05-16T07:46:49Z</time>
      </trkpt>
      <trkpt lat="45.92812" lon="4.87696">
        <ele>296.7041016</ele>
        <time>2010-05-16T07:46:58Z</time>
      </trkpt>
      <trkpt lat="45.92796" lon="4.87674">
        <ele>297.1846924</ele>
        <time>2010-05-16T07:47:01Z</time>
      </trkpt>
      <trkpt lat="45.92766" lon="4.8762">
        <ele>298.1461182</ele>
        <time>2010-05-16T07:47:08Z</time>
      </trkpt>
      <trkpt lat="45.92744" lon="4.87563">
        <ele>299.1072998</ele>
        <time>2010-05-16T07:47:15Z</time>
      </trkpt>
      <trkpt lat="45.92718" lon="4.8749">
        <ele>299.1072998</ele>
        <time>2010-05-16T07:47:24Z</time>
      </trkpt>
      <trkpt lat="45.92688" lon="4.87408">
        <ele>299.1072998</ele>
        <time>2010-05-16T07:47:34Z</time>
      </trkpt>
      <trkpt lat="45.92685" lon="4.874">
        <ele>298.626709</ele>
        <time>2010-05-16T07:47:35Z</time>
      </trkpt>
      <trkpt lat="45.92686" lon="4.87367">
        <ele>297.6654053</ele>
        <time>2010-05-16T07:47:40Z</time>
      </trkpt>
      <trkpt lat="45.92706" lon="4.873">
        <ele>296.7041016</ele>
        <time>2010-05-16T07:47:49Z</time>
      </trkpt>
      <trkpt lat="45.92725" lon="4.87233">
        <ele>294.3007813</ele>
        <time>2010-05-16T07:47:57Z</time>
      </trkpt>
      <trkpt lat="45.92744" lon="4.87165">
        <ele>292.8587646</ele>
        <time>2010-05-16T07:48:04Z</time>
      </trkpt>
      <trkpt lat="45.9276" lon="4.87112">
        <ele>293.8200684</ele>
        <time>2010-05-16T07:48:10Z</time>
      </trkpt>
      <trkpt lat="45.92773" lon="4.87063">
        <ele>296.2235107</ele>
        <time>2010-05-16T07:48:17Z</time>
      </trkpt>
      <trkpt lat="45.92787" lon="4.87007">
        <ele>299.1072998</ele>
        <time>2010-05-16T07:48:26Z</time>
      </trkpt>
      <trkpt lat="45.92797" lon="4.86969">
        <ele>298.626709</ele>
        <time>2010-05-16T07:48:33Z</time>
      </trkpt>
      <trkpt lat="45.92808" lon="4.86925">
        <ele>297.6654053</ele>
        <time>2010-05-16T07:48:39Z</time>
      </trkpt>
      <trkpt lat="45.92822" lon="4.86869">
        <ele>293.8200684</ele>
        <time>2010-05-16T07:48:45Z</time>
      </trkpt>
      <trkpt lat="45.92844" lon="4.86784">
        <ele>289.9748535</ele>
        <time>2010-05-16T07:48:53Z</time>
      </trkpt>
      <trkpt lat="45.92857" lon="4.86716">
        <ele>289.4941406</ele>
        <time>2010-05-16T07:49:00Z</time>
      </trkpt>
      <trkpt lat="45.92866" lon="4.86634">
        <ele>289.9748535</ele>
        <time>2010-05-16T07:49:09Z</time>
      </trkpt>
      <trkpt lat="45.9288" lon="4.86523">
        <ele>290.4555664</ele>
        <time>2010-05-16T07:49:22Z</time>
      </trkpt>
      <trkpt lat="45.92885" lon="4.86481">
        <ele>291.416748</ele>
        <time>2010-05-16T07:49:28Z</time>
      </trkpt>
      <trkpt lat="45.92893" lon="4.86408">
        <ele>292.8587646</ele>
        <time>2010-05-16T07:49:39Z</time>
      </trkpt>
      <trkpt lat="45.92899" lon="4.86348">
        <ele>292.8587646</ele>
        <time>2010-05-16T07:49:48Z</time>
      </trkpt>
      <trkpt lat="45.92904" lon="4.86286">
        <ele>291.416748</ele>
        <time>2010-05-16T07:49:56Z</time>
      </trkpt>
      <trkpt lat="45.92912" lon="4.8621">
        <ele>290.4555664</ele>
        <time>2010-05-16T07:50:05Z</time>
      </trkpt>
      <trkpt lat="45.92919" lon="4.86124">
        <ele>289.0135498</ele>
        <time>2010-05-16T07:50:15Z</time>
      </trkpt>
      <trkpt lat="45.92921" lon="4.86043">
        <ele>288.532959</ele>
        <time>2010-05-16T07:50:24Z</time>
      </trkpt>
      <trkpt lat="45.9292" lon="4.8598">
        <ele>288.532959</ele>
        <time>2010-05-16T07:50:31Z</time>
      </trkpt>
      <trkpt lat="45.9292" lon="4.85971">
        <ele>288.532959</ele>
        <time>2010-05-16T07:50:32Z</time>
      </trkpt>
      <trkpt lat="45.92922" lon="4.85921">
        <ele>288.532959</ele>
        <time>2010-05-16T07:50:38Z</time>
      </trkpt>
      <trkpt lat="45.92928" lon="4.85856">
        <ele>289.0135498</ele>
        <time>2010-05-16T07:50:46Z</time>
      </trkpt>
      <trkpt lat="45.92938" lon="4.85798">
        <ele>289.4941406</ele>
        <time>2010-05-16T07:50:54Z</time>
      </trkpt>
      <trkpt lat="45.92952" lon="4.85739">
        <ele>290.4555664</ele>
        <time>2010-05-16T07:51:02Z</time>
      </trkpt>
      <trkpt lat="45.92969" lon="4.85699">
        <ele>291.416748</ele>
        <time>2010-05-16T07:51:08Z</time>
      </trkpt>
      <trkpt lat="45.92997" lon="4.85645">
        <ele>290.9361572</ele>
        <time>2010-05-16T07:51:17Z</time>
      </trkpt>
      <trkpt lat="45.93026" lon="4.85586">
        <ele>287.5714111</ele>
        <time>2010-05-16T07:51:26Z</time>
      </trkpt>
      <trkpt lat="45.93041" lon="4.85537">
        <ele>285.6488037</ele>
        <time>2010-05-16T07:51:32Z</time>
      </trkpt>
      <trkpt lat="45.93052" lon="4.85476">
        <ele>284.2069092</ele>
        <time>2010-05-16T07:51:39Z</time>
      </trkpt>
      <trkpt lat="45.93067" lon="4.85389">
        <ele>283.2456055</ele>
        <time>2010-05-16T07:51:48Z</time>
      </trkpt>
      <trkpt lat="45.93084" lon="4.85293">
        <ele>282.7650146</ele>
        <time>2010-05-16T07:51:58Z</time>
      </trkpt>
      <trkpt lat="45.9309" lon="4.85258">
        <ele>282.7650146</ele>
        <time>2010-05-16T07:52:02Z</time>
      </trkpt>
      <trkpt lat="45.93104" lon="4.8524">
        <ele>282.7650146</ele>
        <time>2010-05-16T07:52:06Z</time>
      </trkpt>
      <trkpt lat="45.93109" lon="4.85242">
        <ele>282.7650146</ele>
        <time>2010-05-16T07:52:07Z</time>
      </trkpt>
      <trkpt lat="45.93145" lon="4.8526">
        <ele>284.2069092</ele>
        <time>2010-05-16T07:52:14Z</time>
      </trkpt>
      <trkpt lat="45.9315" lon="4.85262">
        <ele>284.2069092</ele>
        <time>2010-05-16T07:52:15Z</time>
      </trkpt>
      <trkpt lat="45.93165" lon="4.85257">
        <ele>284.2069092</ele>
        <time>2010-05-16T07:52:19Z</time>
      </trkpt>
      <trkpt lat="45.93168" lon="4.85252">
        <ele>284.2069092</ele>
        <time>2010-05-16T07:52:20Z</time>
      </trkpt>
      <trkpt lat="45.93197" lon="4.85192">
        <ele>283.7261963</ele>
        <time>2010-05-16T07:52:30Z</time>
      </trkpt>
      <trkpt lat="45.93226" lon="4.85123">
        <ele>284.6876221</ele>
        <time>2010-05-16T07:52:42Z</time>
      </trkpt>
      <trkpt lat="45.93242" lon="4.85075">
        <ele>284.6876221</ele>
        <time>2010-05-16T07:52:50Z</time>
      </trkpt>
      <trkpt lat="45.93254" lon="4.85031">
        <ele>282.7650146</ele>
        <time>2010-05-16T07:52:56Z</time>
      </trkpt>
      <trkpt lat="45.93265" lon="4.84983">
        <ele>279.4002686</ele>
        <time>2010-05-16T07:53:01Z</time>
      </trkpt>
      <trkpt lat="45.93273" lon="4.84917">
        <ele>276.5163574</ele>
        <time>2010-05-16T07:53:07Z</time>
      </trkpt>
      <trkpt lat="45.93273" lon="4.84842">
        <ele>274.59375</ele>
        <time>2010-05-16T07:53:14Z</time>
      </trkpt>
      <trkpt lat="45.93269" lon="4.84797">
        <ele>274.59375</ele>
        <time>2010-05-16T07:53:18Z</time>
      </trkpt>
      <trkpt lat="45.93266" lon="4.84721">
        <ele>274.1130371</ele>
        <time>2010-05-16T07:53:25Z</time>
      </trkpt>
      <trkpt lat="45.93265" lon="4.847">
        <ele>274.1130371</ele>
        <time>2010-05-16T07:53:27Z</time>
      </trkpt>
      <trkpt lat="45.93253" lon="4.8465">
        <ele>273.6324463</ele>
        <time>2010-05-16T07:53:32Z</time>
      </trkpt>
      <trkpt lat="45.93238" lon="4.84594">
        <ele>274.1130371</ele>
        <time>2010-05-16T07:53:38Z</time>
      </trkpt>
      <trkpt lat="45.9323" lon="4.8453">
        <ele>274.1130371</ele>
        <time>2010-05-16T07:53:45Z</time>
      </trkpt>
      <trkpt lat="45.9323" lon="4.84512">
        <ele>274.1130371</ele>
        <time>2010-05-16T07:53:47Z</time>
      </trkpt>
      <trkpt lat="45.93234" lon="4.84491">
        <ele>274.1130371</ele>
        <time>2010-05-16T07:53:50Z</time>
      </trkpt>
      <trkpt lat="45.93233" lon="4.84472">
        <ele>274.1130371</ele>
        <time>2010-05-16T07:53:54Z</time>
      </trkpt>
      <trkpt lat="45.93227" lon="4.84469">
        <ele>274.59375</ele>
        <time>2010-05-16T07:53:56Z</time>
      </trkpt>
      <trkpt lat="45.93198" lon="4.84471">
        <ele>275.5550537</ele>
        <time>2010-05-16T07:54:04Z</time>
      </trkpt>
      <trkpt lat="45.93177" lon="4.84469">
        <ele>276.0356445</ele>
        <time>2010-05-16T07:54:10Z</time>
      </trkpt>
      <trkpt lat="45.93172" lon="4.84467">
        <ele>276.0356445</ele>
        <time>2010-05-16T07:54:12Z</time>
      </trkpt>
      <trkpt lat="45.93169" lon="4.84471">
        <ele>276.0356445</ele>
        <time>2010-05-16T07:54:17Z</time>
      </trkpt>
      <trkpt lat="45.93171" lon="4.84474">
        <ele>276.5163574</ele>
        <time>2010-05-16T07:54:22Z</time>
      </trkpt>
      <trkpt lat="45.93156" lon="4.84456">
        <ele>281.8035889</ele>
        <time>2010-05-16T07:58:52Z</time>
      </trkpt>
      <trkpt lat="45.93156" lon="4.84456">
        <ele>281.322998</ele>
        <time>2010-05-16T07:58:54Z</time>
      </trkpt>
      <trkpt lat="45.93158" lon="4.84455">
        <ele>280.8424072</ele>
        <time>2010-05-16T07:58:58Z</time>
      </trkpt>
      <trkpt lat="45.93164" lon="4.84471">
        <ele>276.5163574</ele>
        <time>2010-05-16T08:04:46Z</time>
      </trkpt>
      <trkpt lat="45.9317" lon="4.84475">
        <ele>276.9970703</ele>
        <time>2010-05-16T08:04:52Z</time>
      </trkpt>
      <trkpt lat="45.9317" lon="4.84474">
        <ele>276.9970703</ele>
        <time>2010-05-16T08:04:53Z</time>
      </trkpt>
      <trkpt lat="45.93178" lon="4.84472">
        <ele>279.4002686</ele>
        <time>2010-05-16T08:06:28Z</time>
      </trkpt>
      <trkpt lat="45.93182" lon="4.84473">
        <ele>279.4002686</ele>
        <time>2010-05-16T08:06:30Z</time>
      </trkpt>
      <trkpt lat="45.93184" lon="4.84473">
        <ele>279.4002686</ele>
        <time>2010-05-16T08:06:31Z</time>
      </trkpt>
      <trkpt lat="45.93187" lon="4.84473">
        <ele>279.4002686</ele>
        <time>2010-05-16T08:06:32Z</time>
      </trkpt>
      <trkpt lat="45.93194" lon="4.84473">
        <ele>279.4002686</ele>
        <time>2010-05-16T08:06:35Z</time>
      </trkpt>
      <trkpt lat="45.9322" lon="4.84473">
        <ele>278.9196777</ele>
        <time>2010-05-16T08:06:44Z</time>
      </trkpt>
      <trkpt lat="45.93234" lon="4.84471">
        <ele>277.958252</ele>
        <time>2010-05-16T08:06:48Z</time>
      </trkpt>
      <trkpt lat="45.93242" lon="4.84452">
        <ele>277.4776611</ele>
        <time>2010-05-16T08:06:52Z</time>
      </trkpt>
      <trkpt lat="45.93257" lon="4.84404">
        <ele>276.5163574</ele>
        <time>2010-05-16T08:07:00Z</time>
      </trkpt>
      <trkpt lat="45.93263" lon="4.84391">
        <ele>276.5163574</ele>
        <time>2010-05-16T08:07:02Z</time>
      </trkpt>
      <trkpt lat="45.93285" lon="4.84351">
        <ele>275.5550537</ele>
        <time>2010-05-16T08:07:09Z</time>
      </trkpt>
      <trkpt lat="45.9332" lon="4.84303">
        <ele>275.5550537</ele>
        <time>2010-05-16T08:07:18Z</time>
      </trkpt>
      <trkpt lat="45.93337" lon="4.84282">
        <ele>275.5550537</ele>
        <time>2010-05-16T08:07:22Z</time>
      </trkpt>
      <trkpt lat="45.93363" lon="4.84255">
        <ele>276.0356445</ele>
        <time>2010-05-16T08:07:28Z</time>
      </trkpt>
      <trkpt lat="45.93402" lon="4.84209">
        <ele>276.0356445</ele>
        <time>2010-05-16T08:07:37Z</time>
      </trkpt>
      <trkpt lat="45.93428" lon="4.84167">
        <ele>276.0356445</ele>
        <time>2010-05-16T08:07:44Z</time>
      </trkpt>
      <trkpt lat="45.93441" lon="4.84141">
        <ele>276.0356445</ele>
        <time>2010-05-16T08:07:48Z</time>
      </trkpt>
      <trkpt lat="45.93466" lon="4.84078">
        <ele>275.0744629</ele>
        <time>2010-05-16T08:07:57Z</time>
      </trkpt>
      <trkpt lat="45.93495" lon="4.84003">
        <ele>273.6324463</ele>
        <time>2010-05-16T08:08:07Z</time>
      </trkpt>
      <trkpt lat="45.93517" lon="4.83934">
        <ele>273.1518555</ele>
        <time>2010-05-16T08:08:16Z</time>
      </trkpt>
      <trkpt lat="45.93522" lon="4.83913">
        <ele>273.1518555</ele>
        <time>2010-05-16T08:08:19Z</time>
      </trkpt>
      <trkpt lat="45.9352" lon="4.83891">
        <ele>273.1518555</ele>
        <time>2010-05-16T08:08:23Z</time>
      </trkpt>
      <trkpt lat="45.93509" lon="4.83894">
        <ele>273.1518555</ele>
        <time>2010-05-16T08:08:26Z</time>
      </trkpt>
      <trkpt lat="45.93462" lon="4.83918">
        <ele>274.1130371</ele>
        <time>2010-05-16T08:08:36Z</time>
      </trkpt>
      <trkpt lat="45.93416" lon="4.8394">
        <ele>274.1130371</ele>
        <time>2010-05-16T08:08:44Z</time>
      </trkpt>
      <trkpt lat="45.93364" lon="4.83966">
        <ele>274.59375</ele>
        <time>2010-05-16T08:08:53Z</time>
      </trkpt>
      <trkpt lat="45.93305" lon="4.83995">
        <ele>275.0744629</ele>
        <time>2010-05-16T08:09:03Z</time>
      </trkpt>
      <trkpt lat="45.9324" lon="4.84028">
        <ele>276.0356445</ele>
        <time>2010-05-16T08:09:14Z</time>
      </trkpt>
      <trkpt lat="45.93174" lon="4.8406">
        <ele>276.9970703</ele>
        <time>2010-05-16T08:09:25Z</time>
      </trkpt>
      <trkpt lat="45.93131" lon="4.8408">
        <ele>277.958252</ele>
        <time>2010-05-16T08:09:32Z</time>
      </trkpt>
      <trkpt lat="45.93073" lon="4.8411">
        <ele>278.4389648</ele>
        <time>2010-05-16T08:09:42Z</time>
      </trkpt>
      <trkpt lat="45.93031" lon="4.84129">
        <ele>279.8808594</ele>
        <time>2010-05-16T08:09:50Z</time>
      </trkpt>
      <trkpt lat="45.92986" lon="4.84152">
        <ele>280.8424072</ele>
        <time>2010-05-16T08:09:59Z</time>
      </trkpt>
      <trkpt lat="45.9295" lon="4.84169">
        <ele>282.2843018</ele>
        <time>2010-05-16T08:10:07Z</time>
      </trkpt>
      <trkpt lat="45.92905" lon="4.84191">
        <ele>282.7650146</ele>
        <time>2010-05-16T08:10:17Z</time>
      </trkpt>
      <trkpt lat="45.92886" lon="4.84203">
        <ele>282.7650146</ele>
        <time>2010-05-16T08:10:21Z</time>
      </trkpt>
      <trkpt lat="45.92866" lon="4.84198">
        <ele>282.2843018</ele>
        <time>2010-05-16T08:10:25Z</time>
      </trkpt>
      <trkpt lat="45.92857" lon="4.84176">
        <ele>281.8035889</ele>
        <time>2010-05-16T08:10:28Z</time>
      </trkpt>
      <trkpt lat="45.92838" lon="4.84107">
        <ele>278.4389648</ele>
        <time>2010-05-16T08:10:35Z</time>
      </trkpt>
      <trkpt lat="45.92815" lon="4.84026">
        <ele>274.59375</ele>
        <time>2010-05-16T08:10:42Z</time>
      </trkpt>
      <trkpt lat="45.92795" lon="4.83956">
        <ele>273.1518555</ele>
        <time>2010-05-16T08:10:48Z</time>
      </trkpt>
      <trkpt lat="45.92782" lon="4.83912">
        <ele>272.1904297</ele>
        <time>2010-05-16T08:10:52Z</time>
      </trkpt>
      <trkpt lat="45.92773" lon="4.83881">
        <ele>271.229126</ele>
        <time>2010-05-16T08:10:55Z</time>
      </trkpt>
      <trkpt lat="45.92767" lon="4.83861">
        <ele>271.229126</ele>
        <time>2010-05-16T08:10:57Z</time>
      </trkpt>
      <trkpt lat="45.92759" lon="4.83836">
        <ele>270.7484131</ele>
        <time>2010-05-16T08:11:00Z</time>
      </trkpt>
      <trkpt lat="45.92763" lon="4.83811">
        <ele>269.7871094</ele>
        <time>2010-05-16T08:11:04Z</time>
      </trkpt>
      <trkpt lat="45.92768" lon="4.83807">
        <ele>269.7871094</ele>
        <time>2010-05-16T08:11:05Z</time>
      </trkpt>
      <trkpt lat="45.92813" lon="4.83778">
        <ele>267.3839111</ele>
        <time>2010-05-16T08:11:12Z</time>
      </trkpt>
      <trkpt lat="45.92847" lon="4.83754">
        <ele>265.9418945</ele>
        <time>2010-05-16T08:11:17Z</time>
      </trkpt>
      <trkpt lat="45.9289" lon="4.83723">
        <ele>265.4613037</ele>
        <time>2010-05-16T08:11:23Z</time>
      </trkpt>
      <trkpt lat="45.92937" lon="4.83703">
        <ele>263.0578613</ele>
        <time>2010-05-16T08:11:29Z</time>
      </trkpt>
      <trkpt lat="45.92961" lon="4.83689">
        <ele>260.654541</ele>
        <time>2010-05-16T08:11:32Z</time>
      </trkpt>
      <trkpt lat="45.92976" lon="4.8368">
        <ele>259.6933594</ele>
        <time>2010-05-16T08:11:34Z</time>
      </trkpt>
      <trkpt lat="45.93024" lon="4.83666">
        <ele>257.770752</ele>
        <time>2010-05-16T08:11:40Z</time>
      </trkpt>
      <trkpt lat="45.93052" lon="4.83644">
        <ele>255.3673096</ele>
        <time>2010-05-16T08:11:45Z</time>
      </trkpt>
      <trkpt lat="45.93073" lon="4.83653">
        <ele>255.8480225</ele>
        <time>2010-05-16T08:11:49Z</time>
      </trkpt>
      <trkpt lat="45.93094" lon="4.83652">
        <ele>256.8093262</ele>
        <time>2010-05-16T08:11:53Z</time>
      </trkpt>
      <trkpt lat="45.93103" lon="4.83632">
        <ele>257.2900391</ele>
        <time>2010-05-16T08:11:56Z</time>
      </trkpt>
      <trkpt lat="45.93116" lon="4.83615">
        <ele>256.8093262</ele>
        <time>2010-05-16T08:12:00Z</time>
      </trkpt>
      <trkpt lat="45.9313" lon="4.83611">
        <ele>256.3287354</ele>
        <time>2010-05-16T08:12:04Z</time>
      </trkpt>
      <trkpt lat="45.93136" lon="4.83611">
        <ele>256.8093262</ele>
        <time>2010-05-16T08:12:07Z</time>
      </trkpt>
      <trkpt lat="45.93138" lon="4.8361">
        <ele>257.2900391</ele>
        <time>2010-05-16T08:12:09Z</time>
      </trkpt>
      <trkpt lat="45.93143" lon="4.83601">
        <ele>257.2900391</ele>
        <time>2010-05-16T08:12:13Z</time>
      </trkpt>
      <trkpt lat="45.9315" lon="4.83593">
        <ele>256.3287354</ele>
        <time>2010-05-16T08:12:15Z</time>
      </trkpt>
      <trkpt lat="45.93171" lon="4.83574">
        <ele>252.9639893</ele>
        <time>2010-05-16T08:12:19Z</time>
      </trkpt>
      <trkpt lat="45.93178" lon="4.83572">
        <ele>252.4833984</ele>
        <time>2010-05-16T08:12:20Z</time>
      </trkpt>
      <trkpt lat="45.9321" lon="4.83548">
        <ele>250.560791</ele>
        <time>2010-05-16T08:12:25Z</time>
      </trkpt>
      <trkpt lat="45.93222" lon="4.83536">
        <ele>251.0413818</ele>
        <time>2010-05-16T08:12:27Z</time>
      </trkpt>
      <trkpt lat="45.93245" lon="4.83517">
        <ele>253.925415</ele>
        <time>2010-05-16T08:12:31Z</time>
      </trkpt>
      <trkpt lat="45.93268" lon="4.835">
        <ele>253.925415</ele>
        <time>2010-05-16T08:12:35Z</time>
      </trkpt>
      <trkpt lat="45.93286" lon="4.83468">
        <ele>252.4833984</ele>
        <time>2010-05-16T08:12:40Z</time>
      </trkpt>
      <trkpt lat="45.93287" lon="4.83458">
        <ele>252.0028076</ele>
        <time>2010-05-16T08:12:41Z</time>
      </trkpt>
      <trkpt lat="45.9329" lon="4.83439">
        <ele>252.4833984</ele>
        <time>2010-05-16T08:12:43Z</time>
      </trkpt>
      <trkpt lat="45.93297" lon="4.83422">
        <ele>251.0413818</ele>
        <time>2010-05-16T08:12:47Z</time>
      </trkpt>
      <trkpt lat="45.9331" lon="4.83419">
        <ele>246.7154541</ele>
        <time>2010-05-16T08:12:52Z</time>
      </trkpt>
      <trkpt lat="45.93316" lon="4.83415">
        <ele>244.7928467</ele>
        <time>2010-05-16T08:12:55Z</time>
      </trkpt>
      <trkpt lat="45.9333" lon="4.83409">
        <ele>241.4282227</ele>
        <time>2010-05-16T08:13:00Z</time>
      </trkpt>
      <trkpt lat="45.93338" lon="4.83405">
        <ele>239.5054932</ele>
        <time>2010-05-16T08:13:03Z</time>
      </trkpt>
      <trkpt lat="45.93345" lon="4.83394">
        <ele>236.1409912</ele>
        <time>2010-05-16T08:13:08Z</time>
      </trkpt>
      <trkpt lat="45.93349" lon="4.83388">
        <ele>234.6990967</ele>
        <time>2010-05-16T08:13:12Z</time>
      </trkpt>
      <trkpt lat="45.93357" lon="4.83381">
        <ele>233.7376709</ele>
        <time>2010-05-16T08:13:17Z</time>
      </trkpt>
      <trkpt lat="45.93371" lon="4.83373">
        <ele>233.2570801</ele>
        <time>2010-05-16T08:13:23Z</time>
      </trkpt>
      <trkpt lat="45.93377" lon="4.8336">
        <ele>233.7376709</ele>
        <time>2010-05-16T08:13:28Z</time>
      </trkpt>
      <trkpt lat="45.93378" lon="4.8335">
        <ele>235.1796875</ele>
        <time>2010-05-16T08:13:31Z</time>
      </trkpt>
      <trkpt lat="45.93377" lon="4.83345">
        <ele>239.5054932</ele>
        <time>2010-05-16T08:13:35Z</time>
      </trkpt>
      <trkpt lat="45.9339" lon="4.83331">
        <ele>243.831543</ele>
        <time>2010-05-16T08:14:57Z</time>
      </trkpt>
      <trkpt lat="45.93391" lon="4.8333">
        <ele>243.3508301</ele>
        <time>2010-05-16T08:14:58Z</time>
      </trkpt>
      <trkpt lat="45.93397" lon="4.8332">
        <ele>243.831543</ele>
        <time>2010-05-16T08:15:03Z</time>
      </trkpt>
      <trkpt lat="45.93404" lon="4.83306">
        <ele>243.3508301</ele>
        <time>2010-05-16T08:15:09Z</time>
      </trkpt>
      <trkpt lat="45.93414" lon="4.83293">
        <ele>239.5054932</ele>
        <time>2010-05-16T08:15:15Z</time>
      </trkpt>
      <trkpt lat="45.93418" lon="4.83286">
        <ele>239.5054932</ele>
        <time>2010-05-16T08:15:18Z</time>
      </trkpt>
      <trkpt lat="45.93427" lon="4.83276">
        <ele>237.5828857</ele>
        <time>2010-05-16T08:15:23Z</time>
      </trkpt>
      <trkpt lat="45.93436" lon="4.83262">
        <ele>234.6990967</ele>
        <time>2010-05-16T08:15:28Z</time>
      </trkpt>
      <trkpt lat="45.93447" lon="4.83247">
        <ele>233.2570801</ele>
        <time>2010-05-16T08:15:33Z</time>
      </trkpt>
      <trkpt lat="45.93459" lon="4.8323">
        <ele>229.4117432</ele>
        <time>2010-05-16T08:15:39Z</time>
      </trkpt>
      <trkpt lat="45.93473" lon="4.83214">
        <ele>232.2957764</ele>
        <time>2010-05-16T08:15:46Z</time>
      </trkpt>
      <trkpt lat="45.93488" lon="4.83197">
        <ele>232.2957764</ele>
        <time>2010-05-16T08:15:54Z</time>
      </trkpt>
      <trkpt lat="45.93492" lon="4.83191">
        <ele>233.7376709</ele>
        <time>2010-05-16T08:16:00Z</time>
      </trkpt>
      <trkpt lat="45.93496" lon="4.83186">
        <ele>238.5443115</ele>
        <time>2010-05-16T08:17:21Z</time>
      </trkpt>
      <trkpt lat="45.93496" lon="4.83186">
        <ele>238.0635986</ele>
        <time>2010-05-16T08:17:23Z</time>
      </trkpt>
      <trkpt lat="45.93493" lon="4.8317">
        <ele>236.6217041</ele>
        <time>2010-05-16T08:17:34Z</time>
      </trkpt>
      <trkpt lat="45.93489" lon="4.83157">
        <ele>236.6217041</ele>
        <time>2010-05-16T08:17:39Z</time>
      </trkpt>
      <trkpt lat="45.93487" lon="4.8315">
        <ele>238.5443115</ele>
        <time>2010-05-16T08:17:45Z</time>
      </trkpt>
      <trkpt lat="45.93486" lon="4.83148">
        <ele>239.5054932</ele>
        <time>2010-05-16T08:17:48Z</time>
      </trkpt>
      <trkpt lat="45.93481" lon="4.83129">
        <ele>244.7928467</ele>
        <time>2010-05-16T08:18:06Z</time>
      </trkpt>
      <trkpt lat="45.93481" lon="4.83128">
        <ele>244.7928467</ele>
        <time>2010-05-16T08:18:07Z</time>
      </trkpt>
      <trkpt lat="45.93481" lon="4.83123">
        <ele>245.7541504</ele>
        <time>2010-05-16T08:18:12Z</time>
      </trkpt>
      <trkpt lat="45.93479" lon="4.83117">
        <ele>246.7154541</ele>
        <time>2010-05-16T08:18:16Z</time>
      </trkpt>
      <trkpt lat="45.93472" lon="4.83106">
        <ele>248.1575928</ele>
        <time>2010-05-16T08:18:22Z</time>
      </trkpt>
      <trkpt lat="45.93468" lon="4.83099">
        <ele>249.1187744</ele>
        <time>2010-05-16T08:18:28Z</time>
      </trkpt>
      <trkpt lat="45.93468" lon="4.83099">
        <ele>249.1187744</ele>
        <time>2010-05-16T08:18:29Z</time>
      </trkpt>
      <trkpt lat="45.93462" lon="4.83108">
        <ele>242.8702393</ele>
        <time>2010-05-16T08:20:00Z</time>
      </trkpt>
      <trkpt lat="45.93455" lon="4.8312">
        <ele>241.9089355</ele>
        <time>2010-05-16T08:20:04Z</time>
      </trkpt>
      <trkpt lat="45.93439" lon="4.8314">
        <ele>241.4282227</ele>
        <time>2010-05-16T08:20:10Z</time>
      </trkpt>
      <trkpt lat="45.93425" lon="4.83162">
        <ele>241.4282227</ele>
        <time>2010-05-16T08:20:16Z</time>
      </trkpt>
      <trkpt lat="45.9342" lon="4.83171">
        <ele>240.9476318</ele>
        <time>2010-05-16T08:20:19Z</time>
      </trkpt>
      <trkpt lat="45.93412" lon="4.83185">
        <ele>239.5054932</ele>
        <time>2010-05-16T08:20:24Z</time>
      </trkpt>
      <trkpt lat="45.93408" lon="4.83192">
        <ele>240.467041</ele>
        <time>2010-05-16T08:20:28Z</time>
      </trkpt>
      <trkpt lat="45.93404" lon="4.83192">
        <ele>241.9089355</ele>
        <time>2010-05-16T08:20:33Z</time>
      </trkpt>
      <trkpt lat="45.93402" lon="4.83185">
        <ele>244.7928467</ele>
        <time>2010-05-16T08:20:38Z</time>
      </trkpt>
      <trkpt lat="45.934" lon="4.8318">
        <ele>248.6381836</ele>
        <time>2010-05-16T08:20:46Z</time>
      </trkpt>
      <trkpt lat="45.93401" lon="4.83175">
        <ele>251.0413818</ele>
        <time>2010-05-16T08:20:50Z</time>
      </trkpt>
      <trkpt lat="45.93401" lon="4.83167">
        <ele>252.4833984</ele>
        <time>2010-05-16T08:20:54Z</time>
      </trkpt>
      <trkpt lat="45.93401" lon="4.83161">
        <ele>254.4060059</ele>
        <time>2010-05-16T08:20:58Z</time>
      </trkpt>
      <trkpt lat="45.93401" lon="4.83156">
        <ele>255.8480225</ele>
        <time>2010-05-16T08:21:02Z</time>
      </trkpt>
      <trkpt lat="45.934" lon="4.83145">
        <ele>259.6933594</ele>
        <time>2010-05-16T08:21:09Z</time>
      </trkpt>
      <trkpt lat="45.93403" lon="4.83132">
        <ele>261.1352539</ele>
        <time>2010-05-16T08:21:18Z</time>
      </trkpt>
      <trkpt lat="45.93404" lon="4.83126">
        <ele>262.0965576</ele>
        <time>2010-05-16T08:21:22Z</time>
      </trkpt>
      <trkpt lat="45.93403" lon="4.83121">
        <ele>263.5385742</ele>
        <time>2010-05-16T08:21:28Z</time>
      </trkpt>
      <trkpt lat="45.93383" lon="4.83031">
        <ele>271.229126</ele>
        <time>2010-05-16T08:22:58Z</time>
      </trkpt>
      <trkpt lat="45.93379" lon="4.83014">
        <ele>273.1518555</ele>
        <time>2010-05-16T08:23:03Z</time>
      </trkpt>
      <trkpt lat="45.93376" lon="4.82993">
        <ele>274.1130371</ele>
        <time>2010-05-16T08:23:08Z</time>
      </trkpt>
      <trkpt lat="45.93373" lon="4.82971">
        <ele>275.0744629</ele>
        <time>2010-05-16T08:23:13Z</time>
      </trkpt>
      <trkpt lat="45.93372" lon="4.82947">
        <ele>275.0744629</ele>
        <time>2010-05-16T08:23:17Z</time>
      </trkpt>
      <trkpt lat="45.93372" lon="4.82929">
        <ele>274.1130371</ele>
        <time>2010-05-16T08:23:20Z</time>
      </trkpt>
      <trkpt lat="45.93369" lon="4.82914">
        <ele>274.1130371</ele>
        <time>2010-05-16T08:23:25Z</time>
      </trkpt>
      <trkpt lat="45.93359" lon="4.82912">
        <ele>274.59375</ele>
        <time>2010-05-16T08:23:31Z</time>
      </trkpt>
      <trkpt lat="45.93345" lon="4.82918">
        <ele>275.0744629</ele>
        <time>2010-05-16T08:23:36Z</time>
      </trkpt>
      <trkpt lat="45.93332" lon="4.82926">
        <ele>275.5550537</ele>
        <time>2010-05-16T08:23:41Z</time>
      </trkpt>
      <trkpt lat="45.93314" lon="4.82935">
        <ele>275.5550537</ele>
        <time>2010-05-16T08:23:47Z</time>
      </trkpt>
      <trkpt lat="45.93298" lon="4.82942">
        <ele>275.0744629</ele>
        <time>2010-05-16T08:23:52Z</time>
      </trkpt>
      <trkpt lat="45.93281" lon="4.8295">
        <ele>274.59375</ele>
        <time>2010-05-16T08:23:57Z</time>
      </trkpt>
      <trkpt lat="45.93257" lon="4.82961">
        <ele>272.6711426</ele>
        <time>2010-05-16T08:24:03Z</time>
      </trkpt>
      <trkpt lat="45.93252" lon="4.82963">
        <ele>272.1904297</ele>
        <time>2010-05-16T08:24:04Z</time>
      </trkpt>
      <trkpt lat="45.93212" lon="4.82983">
        <ele>269.3065186</ele>
        <time>2010-05-16T08:24:12Z</time>
      </trkpt>
      <trkpt lat="45.93171" lon="4.83007">
        <ele>269.7871094</ele>
        <time>2010-05-16T08:24:20Z</time>
      </trkpt>
      <trkpt lat="45.93161" lon="4.83014">
        <ele>270.2677002</ele>
        <time>2010-05-16T08:24:22Z</time>
      </trkpt>
      <trkpt lat="45.9313" lon="4.83017">
        <ele>269.7871094</ele>
        <time>2010-05-16T08:24:27Z</time>
      </trkpt>
      <trkpt lat="45.93124" lon="4.83016">
        <ele>269.7871094</ele>
        <time>2010-05-16T08:24:28Z</time>
      </trkpt>
      <trkpt lat="45.93088" lon="4.83022">
        <ele>270.7484131</ele>
        <time>2010-05-16T08:24:34Z</time>
      </trkpt>
      <trkpt lat="45.93078" lon="4.83028">
        <ele>271.229126</ele>
        <time>2010-05-16T08:24:36Z</time>
      </trkpt>
      <trkpt lat="45.9304" lon="4.83068">
        <ele>272.1904297</ele>
        <time>2010-05-16T08:24:44Z</time>
      </trkpt>
      <trkpt lat="45.9301" lon="4.83095">
        <ele>272.6711426</ele>
        <time>2010-05-16T08:24:50Z</time>
      </trkpt>
      <trkpt lat="45.92968" lon="4.83128">
        <ele>272.1904297</ele>
        <time>2010-05-16T08:24:58Z</time>
      </trkpt>
      <trkpt lat="45.92919" lon="4.83174">
        <ele>273.1518555</ele>
        <time>2010-05-16T08:25:08Z</time>
      </trkpt>
      <trkpt lat="45.92882" lon="4.83215">
        <ele>272.6711426</ele>
        <time>2010-05-16T08:25:16Z</time>
      </trkpt>
      <trkpt lat="45.92851" lon="4.83243">
        <ele>271.7097168</ele>
        <time>2010-05-16T08:25:22Z</time>
      </trkpt>
      <trkpt lat="45.92818" lon="4.83271">
        <ele>271.7097168</ele>
        <time>2010-05-16T08:25:28Z</time>
      </trkpt>
      <trkpt lat="45.9277" lon="4.83317">
        <ele>272.1904297</ele>
        <time>2010-05-16T08:25:37Z</time>
      </trkpt>
      <trkpt lat="45.92723" lon="4.83365">
        <ele>270.7484131</ele>
        <time>2010-05-16T08:25:46Z</time>
      </trkpt>
      <trkpt lat="45.92688" lon="4.83407">
        <ele>270.2677002</ele>
        <time>2010-05-16T08:25:53Z</time>
      </trkpt>
      <trkpt lat="45.92664" lon="4.83436">
        <ele>270.7484131</ele>
        <time>2010-05-16T08:25:58Z</time>
      </trkpt>
      <trkpt lat="45.92643" lon="4.83448">
        <ele>269.7871094</ele>
        <time>2010-05-16T08:26:02Z</time>
      </trkpt>
      <trkpt lat="45.92594" lon="4.83451">
        <ele>265.9418945</ele>
        <time>2010-05-16T08:26:10Z</time>
      </trkpt>
      <trkpt lat="45.92556" lon="4.83443">
        <ele>260.1739502</ele>
        <time>2010-05-16T08:26:15Z</time>
      </trkpt>
      <trkpt lat="45.92539" lon="4.83439">
        <ele>258.2513428</ele>
        <time>2010-05-16T08:26:17Z</time>
      </trkpt>
      <trkpt lat="45.92486" lon="4.83431">
        <ele>250.0802002</ele>
        <time>2010-05-16T08:26:23Z</time>
      </trkpt>
      <trkpt lat="45.92468" lon="4.83426">
        <ele>247.6767578</ele>
        <time>2010-05-16T08:26:25Z</time>
      </trkpt>
      <trkpt lat="45.92434" lon="4.83412">
        <ele>243.831543</ele>
        <time>2010-05-16T08:26:29Z</time>
      </trkpt>
      <trkpt lat="45.92412" lon="4.83379">
        <ele>240.9476318</ele>
        <time>2010-05-16T08:26:33Z</time>
      </trkpt>
      <trkpt lat="45.92396" lon="4.83302">
        <ele>239.5054932</ele>
        <time>2010-05-16T08:26:39Z</time>
      </trkpt>
      <trkpt lat="45.92383" lon="4.8325">
        <ele>239.0249023</ele>
        <time>2010-05-16T08:26:43Z</time>
      </trkpt>
      <trkpt lat="45.92374" lon="4.83211">
        <ele>237.5828857</ele>
        <time>2010-05-16T08:26:47Z</time>
      </trkpt>
      <trkpt lat="45.92382" lon="4.83187">
        <ele>237.5828857</ele>
        <time>2010-05-16T08:26:50Z</time>
      </trkpt>
      <trkpt lat="45.92386" lon="4.83178">
        <ele>237.1022949</ele>
        <time>2010-05-16T08:26:51Z</time>
      </trkpt>
      <trkpt lat="45.92405" lon="4.83126">
        <ele>233.7376709</ele>
        <time>2010-05-16T08:26:56Z</time>
      </trkpt>
      <trkpt lat="45.92412" lon="4.83102">
        <ele>233.2570801</ele>
        <time>2010-05-16T08:26:58Z</time>
      </trkpt>
      <trkpt lat="45.92425" lon="4.83052">
        <ele>229.4117432</ele>
        <time>2010-05-16T08:27:02Z</time>
      </trkpt>
      <trkpt lat="45.92438" lon="4.82987">
        <ele>221.2406006</ele>
        <time>2010-05-16T08:27:07Z</time>
      </trkpt>
      <trkpt lat="45.92457" lon="4.82924">
        <ele>212.588623</ele>
        <time>2010-05-16T08:27:12Z</time>
      </trkpt>
      <trkpt lat="45.92463" lon="4.8287">
        <ele>210.1854248</ele>
        <time>2010-05-16T08:27:15Z</time>
      </trkpt>
      <trkpt lat="45.92454" lon="4.82799">
        <ele>207.3013916</ele>
        <time>2010-05-16T08:27:20Z</time>
      </trkpt>
      <trkpt lat="45.92441" lon="4.8273">
        <ele>202.494873</ele>
        <time>2010-05-16T08:27:25Z</time>
      </trkpt>
      <trkpt lat="45.92432" lon="4.82656">
        <ele>198.6495361</ele>
        <time>2010-05-16T08:27:30Z</time>
      </trkpt>
      <trkpt lat="45.92429" lon="4.82641">
        <ele>197.6882324</ele>
        <time>2010-05-16T08:27:31Z</time>
      </trkpt>
      <trkpt lat="45.92408" lon="4.8261">
        <ele>195.2849121</ele>
        <time>2010-05-16T08:27:35Z</time>
      </trkpt>
      <trkpt lat="45.924" lon="4.82608">
        <ele>195.2849121</ele>
        <time>2010-05-16T08:27:36Z</time>
      </trkpt>
      <trkpt lat="45.92361" lon="4.82606">
        <ele>194.3237305</ele>
        <time>2010-05-16T08:27:41Z</time>
      </trkpt>
      <trkpt lat="45.92316" lon="4.82613">
        <ele>195.2849121</ele>
        <time>2010-05-16T08:27:47Z</time>
      </trkpt>
      <trkpt lat="45.92289" lon="4.82618">
        <ele>195.765625</ele>
        <time>2010-05-16T08:27:51Z</time>
      </trkpt>
      <trkpt lat="45.92284" lon="4.82619">
        <ele>196.2463379</ele>
        <time>2010-05-16T08:27:52Z</time>
      </trkpt>
      <trkpt lat="45.92279" lon="4.8261">
        <ele>196.7269287</ele>
        <time>2010-05-16T08:27:55Z</time>
      </trkpt>
      <trkpt lat="45.92281" lon="4.8259">
        <ele>196.7269287</ele>
        <time>2010-05-16T08:27:58Z</time>
      </trkpt>
      <trkpt lat="45.9228" lon="4.82535">
        <ele>196.2463379</ele>
        <time>2010-05-16T08:28:04Z</time>
      </trkpt>
      <trkpt lat="45.92278" lon="4.82496">
        <ele>194.8043213</ele>
        <time>2010-05-16T08:28:08Z</time>
      </trkpt>
      <trkpt lat="45.92274" lon="4.82454">
        <ele>193.8430176</ele>
        <time>2010-05-16T08:28:13Z</time>
      </trkpt>
      <trkpt lat="45.92276" lon="4.82429">
        <ele>192.401123</ele>
        <time>2010-05-16T08:28:17Z</time>
      </trkpt>
      <trkpt lat="45.92276" lon="4.82425">
        <ele>192.401123</ele>
        <time>2010-05-16T08:28:18Z</time>
      </trkpt>
      <trkpt lat="45.92279" lon="4.82396">
        <ele>190.9589844</ele>
        <time>2010-05-16T08:28:24Z</time>
      </trkpt>
      <trkpt lat="45.92278" lon="4.82364">
        <ele>190.4783936</ele>
        <time>2010-05-16T08:28:28Z</time>
      </trkpt>
      <trkpt lat="45.92274" lon="4.82314">
        <ele>189.036377</ele>
        <time>2010-05-16T08:28:33Z</time>
      </trkpt>
      <trkpt lat="45.92271" lon="4.82296">
        <ele>188.5557861</ele>
        <time>2010-05-16T08:28:35Z</time>
      </trkpt>
      <trkpt lat="45.92263" lon="4.82248">
        <ele>187.1137695</ele>
        <time>2010-05-16T08:28:40Z</time>
      </trkpt>
      <trkpt lat="45.92249" lon="4.82208">
        <ele>185.1911621</ele>
        <time>2010-05-16T08:28:44Z</time>
      </trkpt>
      <trkpt lat="45.92243" lon="4.82187">
        <ele>184.7105713</ele>
        <time>2010-05-16T08:28:46Z</time>
      </trkpt>
      <trkpt lat="45.92226" lon="4.82155">
        <ele>183.7490234</ele>
        <time>2010-05-16T08:28:50Z</time>
      </trkpt>
      <trkpt lat="45.92215" lon="4.82144">
        <ele>182.7878418</ele>
        <time>2010-05-16T08:28:52Z</time>
      </trkpt>
      <trkpt lat="45.92204" lon="4.82123">
        <ele>181.3458252</ele>
        <time>2010-05-16T08:28:56Z</time>
      </trkpt>
      <trkpt lat="45.92196" lon="4.82121">
        <ele>180.8652344</ele>
        <time>2010-05-16T08:28:59Z</time>
      </trkpt>
      <trkpt lat="45.92193" lon="4.82122">
        <ele>180.3845215</ele>
        <time>2010-05-16T08:29:00Z</time>
      </trkpt>
      <trkpt lat="45.92162" lon="4.82136">
        <ele>180.3845215</ele>
        <time>2010-05-16T08:29:08Z</time>
      </trkpt>
      <trkpt lat="45.92153" lon="4.8214">
        <ele>180.3845215</ele>
        <time>2010-05-16T08:29:10Z</time>
      </trkpt>
      <trkpt lat="45.92123" lon="4.82153">
        <ele>180.8652344</ele>
        <time>2010-05-16T08:29:17Z</time>
      </trkpt>
      <trkpt lat="45.92095" lon="4.82164">
        <ele>181.826416</ele>
        <time>2010-05-16T08:29:24Z</time>
      </trkpt>
      <trkpt lat="45.9208" lon="4.82171">
        <ele>181.826416</ele>
        <time>2010-05-16T08:29:28Z</time>
      </trkpt>
      <trkpt lat="45.92046" lon="4.82186">
        <ele>182.3071289</ele>
        <time>2010-05-16T08:29:37Z</time>
      </trkpt>
      <trkpt lat="45.92009" lon="4.82202">
        <ele>183.2684326</ele>
        <time>2010-05-16T08:29:48Z</time>
      </trkpt>
      <trkpt lat="45.91982" lon="4.82214">
        <ele>183.7490234</ele>
        <time>2010-05-16T08:29:56Z</time>
      </trkpt>
      <trkpt lat="45.91942" lon="4.8223">
        <ele>184.2298584</ele>
        <time>2010-05-16T08:30:06Z</time>
      </trkpt>
      <trkpt lat="45.91902" lon="4.82248">
        <ele>184.7105713</ele>
        <time>2010-05-16T08:30:16Z</time>
      </trkpt>
      <trkpt lat="45.91899" lon="4.82249">
        <ele>184.7105713</ele>
        <time>2010-05-16T08:30:20Z</time>
      </trkpt>
      <trkpt lat="45.91872" lon="4.8226">
        <ele>185.6717529</ele>
        <time>2010-05-16T08:30:44Z</time>
      </trkpt>
      <trkpt lat="45.91844" lon="4.82272">
        <ele>185.6717529</ele>
        <time>2010-05-16T08:30:50Z</time>
      </trkpt>
      <trkpt lat="45.91794" lon="4.82294">
        <ele>185.6717529</ele>
        <time>2010-05-16T08:31:00Z</time>
      </trkpt>
      <trkpt lat="45.91754" lon="4.82311">
        <ele>186.6331787</ele>
        <time>2010-05-16T08:31:09Z</time>
      </trkpt>
      <trkpt lat="45.91725" lon="4.82322">
        <ele>186.1524658</ele>
        <time>2010-05-16T08:31:15Z</time>
      </trkpt>
      <trkpt lat="45.91685" lon="4.82335">
        <ele>187.1137695</ele>
        <time>2010-05-16T08:31:24Z</time>
      </trkpt>
      <trkpt lat="45.91637" lon="4.82341">
        <ele>188.0750732</ele>
        <time>2010-05-16T08:31:34Z</time>
      </trkpt>
      <trkpt lat="45.91601" lon="4.82339">
        <ele>189.9976807</ele>
        <time>2010-05-16T08:31:42Z</time>
      </trkpt>
      <trkpt lat="45.91566" lon="4.82332">
        <ele>190.4783936</ele>
        <time>2010-05-16T08:31:50Z</time>
      </trkpt>
      <trkpt lat="45.91541" lon="4.82325">
        <ele>192.8817139</ele>
        <time>2010-05-16T08:31:56Z</time>
      </trkpt>
      <trkpt lat="45.91508" lon="4.82317">
        <ele>192.401123</ele>
        <time>2010-05-16T08:32:04Z</time>
      </trkpt>
      <trkpt lat="45.91495" lon="4.82314">
        <ele>193.3623047</ele>
        <time>2010-05-16T08:32:10Z</time>
      </trkpt>
      <trkpt lat="45.91494" lon="4.82314">
        <ele>193.8430176</ele>
        <time>2010-05-16T08:32:12Z</time>
      </trkpt>
      <trkpt lat="45.91488" lon="4.82312">
        <ele>195.2849121</ele>
        <time>2010-05-16T08:32:19Z</time>
      </trkpt>
      <trkpt lat="45.91486" lon="4.82312">
        <ele>195.765625</ele>
        <time>2010-05-16T08:32:20Z</time>
      </trkpt>
      <trkpt lat="45.91477" lon="4.82311">
        <ele>193.8430176</ele>
        <time>2010-05-16T08:32:24Z</time>
      </trkpt>
      <trkpt lat="45.91474" lon="4.8231">
        <ele>193.3623047</ele>
        <time>2010-05-16T08:32:28Z</time>
      </trkpt>
      <trkpt lat="45.9147" lon="4.8231">
        <ele>193.3623047</ele>
        <time>2010-05-16T08:32:32Z</time>
      </trkpt>
      <trkpt lat="45.91469" lon="4.8231">
        <ele>193.3623047</ele>
        <time>2010-05-16T08:32:35Z</time>
      </trkpt>
      <trkpt lat="45.9146" lon="4.82307">
        <ele>192.401123</ele>
        <time>2010-05-16T08:32:50Z</time>
      </trkpt>
      <trkpt lat="45.91446" lon="4.82303">
        <ele>192.401123</ele>
        <time>2010-05-16T08:32:57Z</time>
      </trkpt>
      <trkpt lat="45.9143" lon="4.82299">
        <ele>192.401123</ele>
        <time>2010-05-16T08:33:03Z</time>
      </trkpt>
      <trkpt lat="45.91424" lon="4.82297">
        <ele>193.3623047</ele>
        <time>2010-05-16T08:33:07Z</time>
      </trkpt>
      <trkpt lat="45.91414" lon="4.82294">
        <ele>194.8043213</ele>
        <time>2010-05-16T08:33:13Z</time>
      </trkpt>
      <trkpt lat="45.91385" lon="4.82287">
        <ele>196.2463379</ele>
        <time>2010-05-16T08:33:23Z</time>
      </trkpt>
      <trkpt lat="45.91366" lon="4.82282">
        <ele>194.8043213</ele>
        <time>2010-05-16T08:33:31Z</time>
      </trkpt>
      <trkpt lat="45.91348" lon="4.82278">
        <ele>193.3623047</ele>
        <time>2010-05-16T08:33:37Z</time>
      </trkpt>
      <trkpt lat="45.91328" lon="4.82271">
        <ele>192.401123</ele>
        <time>2010-05-16T08:33:43Z</time>
      </trkpt>
      <trkpt lat="45.91301" lon="4.82264">
        <ele>193.8430176</ele>
        <time>2010-05-16T08:33:51Z</time>
      </trkpt>
      <trkpt lat="45.9128" lon="4.82258">
        <ele>195.2849121</ele>
        <time>2010-05-16T08:33:57Z</time>
      </trkpt>
      <trkpt lat="45.91257" lon="4.82253">
        <ele>195.2849121</ele>
        <time>2010-05-16T08:34:03Z</time>
      </trkpt>
      <trkpt lat="45.91243" lon="4.8225">
        <ele>196.7269287</ele>
        <time>2010-05-16T08:34:08Z</time>
      </trkpt>
      <trkpt lat="45.91237" lon="4.82246">
        <ele>197.2075195</ele>
        <time>2010-05-16T08:34:12Z</time>
      </trkpt>
      <trkpt lat="45.9122" lon="4.82244">
        <ele>197.6882324</ele>
        <time>2010-05-16T08:34:18Z</time>
      </trkpt>
      <trkpt lat="45.91203" lon="4.82242">
        <ele>195.765625</ele>
        <time>2010-05-16T08:34:24Z</time>
      </trkpt>
      <trkpt lat="45.91192" lon="4.82244">
        <ele>194.8043213</ele>
        <time>2010-05-16T08:34:29Z</time>
      </trkpt>
      <trkpt lat="45.9119" lon="4.82245">
        <ele>195.765625</ele>
        <time>2010-05-16T08:34:33Z</time>
      </trkpt>
      <trkpt lat="45.91189" lon="4.82245">
        <ele>195.765625</ele>
        <time>2010-05-16T08:34:36Z</time>
      </trkpt>
      <trkpt lat="45.91175" lon="4.82242">
        <ele>199.6108398</ele>
        <time>2010-05-16T08:35:11Z</time>
      </trkpt>
      <trkpt lat="45.91161" lon="4.82241">
        <ele>199.6108398</ele>
        <time>2010-05-16T08:35:15Z</time>
      </trkpt>
      <trkpt lat="45.91136" lon="4.82238">
        <ele>199.130127</ele>
        <time>2010-05-16T08:35:23Z</time>
      </trkpt>
      <trkpt lat="45.91125" lon="4.82237">
        <ele>198.6495361</ele>
        <time>2010-05-16T08:35:27Z</time>
      </trkpt>
      <trkpt lat="45.91104" lon="4.82235">
        <ele>198.1689453</ele>
        <time>2010-05-16T08:35:33Z</time>
      </trkpt>
      <trkpt lat="45.91072" lon="4.82232">
        <ele>198.1689453</ele>
        <time>2010-05-16T08:35:40Z</time>
      </trkpt>
      <trkpt lat="45.91046" lon="4.82231">
        <ele>198.1689453</ele>
        <time>2010-05-16T08:35:45Z</time>
      </trkpt>
      <trkpt lat="45.91002" lon="4.82231">
        <ele>198.1689453</ele>
        <time>2010-05-16T08:35:53Z</time>
      </trkpt>
      <trkpt lat="45.90947" lon="4.82231">
        <ele>197.6882324</ele>
        <time>2010-05-16T08:36:03Z</time>
      </trkpt>
      <trkpt lat="45.909" lon="4.82232">
        <ele>198.1689453</ele>
        <time>2010-05-16T08:36:12Z</time>
      </trkpt>
      <trkpt lat="45.9089" lon="4.82232">
        <ele>198.6495361</ele>
        <time>2010-05-16T08:36:14Z</time>
      </trkpt>
      <trkpt lat="45.90849" lon="4.82232">
        <ele>199.6108398</ele>
        <time>2010-05-16T08:36:22Z</time>
      </trkpt>
      <trkpt lat="45.908" lon="4.82235">
        <ele>199.6108398</ele>
        <time>2010-05-16T08:36:31Z</time>
      </trkpt>
      <trkpt lat="45.90747" lon="4.82247">
        <ele>199.6108398</ele>
        <time>2010-05-16T08:36:40Z</time>
      </trkpt>
      <trkpt lat="45.9069" lon="4.82271">
        <ele>199.6108398</ele>
        <time>2010-05-16T08:36:49Z</time>
      </trkpt>
      <trkpt lat="45.90648" lon="4.82296">
        <ele>200.0916748</ele>
        <time>2010-05-16T08:36:56Z</time>
      </trkpt>
      <trkpt lat="45.90626" lon="4.82312">
        <ele>200.0916748</ele>
        <time>2010-05-16T08:37:01Z</time>
      </trkpt>
      <trkpt lat="45.90624" lon="4.82314">
        <ele>200.0916748</ele>
        <time>2010-05-16T08:37:02Z</time>
      </trkpt>
      <trkpt lat="45.90616" lon="4.82317">
        <ele>200.5722656</ele>
        <time>2010-05-16T08:37:08Z</time>
      </trkpt>
      <trkpt lat="45.90612" lon="4.82331">
        <ele>200.0916748</ele>
        <time>2010-05-16T08:37:13Z</time>
      </trkpt>
      <trkpt lat="45.90612" lon="4.82333">
        <ele>200.0916748</ele>
        <time>2010-05-16T08:37:14Z</time>
      </trkpt>
      <trkpt lat="45.90613" lon="4.82355">
        <ele>200.5722656</ele>
        <time>2010-05-16T08:37:20Z</time>
      </trkpt>
      <trkpt lat="45.90613" lon="4.82384">
        <ele>201.0528564</ele>
        <time>2010-05-16T08:37:25Z</time>
      </trkpt>
      <trkpt lat="45.90614" lon="4.82413">
        <ele>201.5335693</ele>
        <time>2010-05-16T08:37:29Z</time>
      </trkpt>
      <trkpt lat="45.90612" lon="4.8244">
        <ele>202.0142822</ele>
        <time>2010-05-16T08:37:33Z</time>
      </trkpt>
      <trkpt lat="45.90608" lon="4.82463">
        <ele>201.5335693</ele>
        <time>2010-05-16T08:37:37Z</time>
      </trkpt>
      <trkpt lat="45.90605" lon="4.82492">
        <ele>201.0528564</ele>
        <time>2010-05-16T08:37:41Z</time>
      </trkpt>
      <trkpt lat="45.90615" lon="4.82566">
        <ele>202.0142822</ele>
        <time>2010-05-16T08:37:51Z</time>
      </trkpt>
      <trkpt lat="45.90623" lon="4.82634">
        <ele>203.4561768</ele>
        <time>2010-05-16T08:38:00Z</time>
      </trkpt>
      <trkpt lat="45.90634" lon="4.82719">
        <ele>204.8980713</ele>
        <time>2010-05-16T08:38:11Z</time>
      </trkpt>
      <trkpt lat="45.90636" lon="4.82738">
        <ele>205.3787842</ele>
        <time>2010-05-16T08:38:14Z</time>
      </trkpt>
      <trkpt lat="45.90628" lon="4.82756">
        <ele>204.8980713</ele>
        <time>2010-05-16T08:38:18Z</time>
      </trkpt>
      <trkpt lat="45.90588" lon="4.82786">
        <ele>202.494873</ele>
        <time>2010-05-16T08:38:26Z</time>
      </trkpt>
      <trkpt lat="45.90553" lon="4.82815">
        <ele>199.6108398</ele>
        <time>2010-05-16T08:38:33Z</time>
      </trkpt>
      <trkpt lat="45.90519" lon="4.82843">
        <ele>199.6108398</ele>
        <time>2010-05-16T08:38:40Z</time>
      </trkpt>
      <trkpt lat="45.90483" lon="4.82875">
        <ele>199.130127</ele>
        <time>2010-05-16T08:38:47Z</time>
      </trkpt>
      <trkpt lat="45.90478" lon="4.82899">
        <ele>199.6108398</ele>
        <time>2010-05-16T08:38:51Z</time>
      </trkpt>
      <trkpt lat="45.90489" lon="4.82944">
        <ele>200.0916748</ele>
        <time>2010-05-16T08:38:57Z</time>
      </trkpt>
      <trkpt lat="45.90509" lon="4.83003">
        <ele>202.0142822</ele>
        <time>2010-05-16T08:39:06Z</time>
      </trkpt>
      <trkpt lat="45.90525" lon="4.83054">
        <ele>204.4174805</ele>
        <time>2010-05-16T08:39:15Z</time>
      </trkpt>
      <trkpt lat="45.90539" lon="4.83098">
        <ele>204.8980713</ele>
        <time>2010-05-16T08:39:23Z</time>
      </trkpt>
      <trkpt lat="45.90557" lon="4.83122">
        <ele>204.8980713</ele>
        <time>2010-05-16T08:39:29Z</time>
      </trkpt>
      <trkpt lat="45.90563" lon="4.83138">
        <ele>204.8980713</ele>
        <time>2010-05-16T08:39:32Z</time>
      </trkpt>
      <trkpt lat="45.90575" lon="4.8319">
        <ele>205.8594971</ele>
        <time>2010-05-16T08:39:40Z</time>
      </trkpt>
      <trkpt lat="45.90591" lon="4.83251">
        <ele>207.7821045</ele>
        <time>2010-05-16T08:39:50Z</time>
      </trkpt>
      <trkpt lat="45.906" lon="4.83268">
        <ele>208.7434082</ele>
        <time>2010-05-16T08:39:53Z</time>
      </trkpt>
      <trkpt lat="45.90622" lon="4.83303">
        <ele>209.2241211</ele>
        <time>2010-05-16T08:40:00Z</time>
      </trkpt>
      <trkpt lat="45.90631" lon="4.83323">
        <ele>210.1854248</ele>
        <time>2010-05-16T08:40:04Z</time>
      </trkpt>
      <trkpt lat="45.90645" lon="4.83347">
        <ele>210.6660156</ele>
        <time>2010-05-16T08:40:10Z</time>
      </trkpt>
      <trkpt lat="45.90669" lon="4.83379">
        <ele>212.1080322</ele>
        <time>2010-05-16T08:40:18Z</time>
      </trkpt>
      <trkpt lat="45.90679" lon="4.83398">
        <ele>213.5500488</ele>
        <time>2010-05-16T08:40:22Z</time>
      </trkpt>
      <trkpt lat="45.90691" lon="4.83415">
        <ele>214.5112305</ele>
        <time>2010-05-16T08:40:26Z</time>
      </trkpt>
      <trkpt lat="45.90701" lon="4.83426">
        <ele>214.0306396</ele>
        <time>2010-05-16T08:40:29Z</time>
      </trkpt>
      <trkpt lat="45.90711" lon="4.83434">
        <ele>214.9919434</ele>
        <time>2010-05-16T08:40:32Z</time>
      </trkpt>
      <trkpt lat="45.9072" lon="4.83452">
        <ele>214.9919434</ele>
        <time>2010-05-16T08:40:36Z</time>
      </trkpt>
      <trkpt lat="45.90731" lon="4.83479">
        <ele>214.9919434</ele>
        <time>2010-05-16T08:40:41Z</time>
      </trkpt>
      <trkpt lat="45.90745" lon="4.83487">
        <ele>214.5112305</ele>
        <time>2010-05-16T08:40:45Z</time>
      </trkpt>
      <trkpt lat="45.90774" lon="4.83488">
        <ele>214.0306396</ele>
        <time>2010-05-16T08:40:52Z</time>
      </trkpt>
      <trkpt lat="45.90797" lon="4.83492">
        <ele>214.5112305</ele>
        <time>2010-05-16T08:40:57Z</time>
      </trkpt>
      <trkpt lat="45.90829" lon="4.83492">
        <ele>215.9532471</ele>
        <time>2010-05-16T08:41:04Z</time>
      </trkpt>
      <trkpt lat="45.90852" lon="4.8349">
        <ele>214.9919434</ele>
        <time>2010-05-16T08:41:09Z</time>
      </trkpt>
      <trkpt lat="45.90881" lon="4.83489">
        <ele>214.9919434</ele>
        <time>2010-05-16T08:41:15Z</time>
      </trkpt>
      <trkpt lat="45.90893" lon="4.83502">
        <ele>215.4726563</ele>
        <time>2010-05-16T08:41:19Z</time>
      </trkpt>
      <trkpt lat="45.90908" lon="4.83521">
        <ele>215.9532471</ele>
        <time>2010-05-16T08:41:24Z</time>
      </trkpt>
      <trkpt lat="45.90917" lon="4.83523">
        <ele>216.43396</ele>
        <time>2010-05-16T08:41:27Z</time>
      </trkpt>
      <trkpt lat="45.90921" lon="4.83524">
        <ele>216.43396</ele>
        <time>2010-05-16T08:41:29Z</time>
      </trkpt>
      <trkpt lat="45.90932" lon="4.83518">
        <ele>217.8759766</ele>
        <time>2010-05-16T08:41:35Z</time>
      </trkpt>
      <trkpt lat="45.90937" lon="4.83524">
        <ele>217.8759766</ele>
        <time>2010-05-16T08:41:40Z</time>
      </trkpt>
      <trkpt lat="45.90942" lon="4.83533">
        <ele>219.3179932</ele>
        <time>2010-05-16T08:41:47Z</time>
      </trkpt>
      <trkpt lat="45.90943" lon="4.83535">
        <ele>218.8372803</ele>
        <time>2010-05-16T08:41:49Z</time>
      </trkpt>
      <trkpt lat="45.9095" lon="4.83543">
        <ele>221.7211914</ele>
        <time>2010-05-16T08:41:56Z</time>
      </trkpt>
      <trkpt lat="45.90952" lon="4.83546">
        <ele>222.2017822</ele>
        <time>2010-05-16T08:41:57Z</time>
      </trkpt>
      <trkpt lat="45.90965" lon="4.83569">
        <ele>222.2017822</ele>
        <time>2010-05-16T08:42:03Z</time>
      </trkpt>
      <trkpt lat="45.90978" lon="4.83602">
        <ele>225.5665283</ele>
        <time>2010-05-16T08:42:09Z</time>
      </trkpt>
      <trkpt lat="45.90993" lon="4.83639">
        <ele>226.527832</ele>
        <time>2010-05-16T08:42:16Z</time>
      </trkpt>
      <trkpt lat="45.9101" lon="4.8368">
        <ele>225.5665283</ele>
        <time>2010-05-16T08:42:23Z</time>
      </trkpt>
      <trkpt lat="45.91028" lon="4.83722">
        <ele>225.0859375</ele>
        <time>2010-05-16T08:42:30Z</time>
      </trkpt>
      <trkpt lat="45.91046" lon="4.83768">
        <ele>225.5665283</ele>
        <time>2010-05-16T08:42:38Z</time>
      </trkpt>
      <trkpt lat="45.91052" lon="4.83784">
        <ele>225.5665283</ele>
        <time>2010-05-16T08:42:41Z</time>
      </trkpt>
      <trkpt lat="45.91065" lon="4.83816">
        <ele>227.0085449</ele>
        <time>2010-05-16T08:42:47Z</time>
      </trkpt>
      <trkpt lat="45.91077" lon="4.83864">
        <ele>227.0085449</ele>
        <time>2010-05-16T08:42:55Z</time>
      </trkpt>
      <trkpt lat="45.91086" lon="4.8392">
        <ele>225.5665283</ele>
        <time>2010-05-16T08:43:03Z</time>
      </trkpt>
      <trkpt lat="45.91098" lon="4.84007">
        <ele>225.0859375</ele>
        <time>2010-05-16T08:43:14Z</time>
      </trkpt>
      <trkpt lat="45.91104" lon="4.84048">
        <ele>226.0471191</ele>
        <time>2010-05-16T08:43:19Z</time>
      </trkpt>
      <trkpt lat="45.91117" lon="4.84082">
        <ele>226.0471191</ele>
        <time>2010-05-16T08:43:24Z</time>
      </trkpt>
      <trkpt lat="45.91124" lon="4.84093">
        <ele>227.0085449</ele>
        <time>2010-05-16T08:43:26Z</time>
      </trkpt>
      <trkpt lat="45.91145" lon="4.84126">
        <ele>229.4117432</ele>
        <time>2010-05-16T08:43:33Z</time>
      </trkpt>
      <trkpt lat="45.91168" lon="4.84167">
        <ele>230.8537598</ele>
        <time>2010-05-16T08:43:42Z</time>
      </trkpt>
      <trkpt lat="45.9117" lon="4.84172">
        <ele>230.8537598</ele>
        <time>2010-05-16T08:43:43Z</time>
      </trkpt>
      <trkpt lat="45.91183" lon="4.84204">
        <ele>231.8149414</ele>
        <time>2010-05-16T08:43:50Z</time>
      </trkpt>
      <trkpt lat="45.9119" lon="4.84214">
        <ele>232.2957764</ele>
        <time>2010-05-16T08:43:53Z</time>
      </trkpt>
      <trkpt lat="45.91202" lon="4.84208">
        <ele>233.2570801</ele>
        <time>2010-05-16T08:43:58Z</time>
      </trkpt>
      <trkpt lat="45.91203" lon="4.84205">
        <ele>233.2570801</ele>
        <time>2010-05-16T08:43:59Z</time>
      </trkpt>
      <trkpt lat="45.91214" lon="4.84181">
        <ele>234.6990967</ele>
        <time>2010-05-16T08:44:07Z</time>
      </trkpt>
      <trkpt lat="45.91223" lon="4.84178">
        <ele>236.6217041</ele>
        <time>2010-05-16T08:44:12Z</time>
      </trkpt>
      <trkpt lat="45.91239" lon="4.84178">
        <ele>237.5828857</ele>
        <time>2010-05-16T08:44:20Z</time>
      </trkpt>
      <trkpt lat="45.91262" lon="4.84176">
        <ele>239.5054932</ele>
        <time>2010-05-16T08:44:30Z</time>
      </trkpt>
      <trkpt lat="45.91278" lon="4.84174">
        <ele>239.9862061</ele>
        <time>2010-05-16T08:44:37Z</time>
      </trkpt>
      <trkpt lat="45.91301" lon="4.84175">
        <ele>240.467041</ele>
        <time>2010-05-16T08:44:47Z</time>
      </trkpt>
      <trkpt lat="45.91319" lon="4.84177">
        <ele>240.9476318</ele>
        <time>2010-05-16T08:44:54Z</time>
      </trkpt>
      <trkpt lat="45.9134" lon="4.84178">
        <ele>242.8702393</ele>
        <time>2010-05-16T08:45:03Z</time>
      </trkpt>
      <trkpt lat="45.91361" lon="4.84174">
        <ele>245.2734375</ele>
        <time>2010-05-16T08:45:11Z</time>
      </trkpt>
      <trkpt lat="45.91386" lon="4.84168">
        <ele>246.7154541</ele>
        <time>2010-05-16T08:45:20Z</time>
      </trkpt>
      <trkpt lat="45.91413" lon="4.84161">
        <ele>247.6767578</ele>
        <time>2010-05-16T08:45:29Z</time>
      </trkpt>
      <trkpt lat="45.91434" lon="4.84156">
        <ele>247.6767578</ele>
        <time>2010-05-16T08:45:35Z</time>
      </trkpt>
      <trkpt lat="45.91461" lon="4.84147">
        <ele>248.1575928</ele>
        <time>2010-05-16T08:45:43Z</time>
      </trkpt>
      <trkpt lat="45.91496" lon="4.84136">
        <ele>248.1575928</ele>
        <time>2010-05-16T08:45:52Z</time>
      </trkpt>
      <trkpt lat="45.91519" lon="4.84129">
        <ele>248.1575928</ele>
        <time>2010-05-16T08:45:58Z</time>
      </trkpt>
      <trkpt lat="45.91547" lon="4.8412">
        <ele>248.1575928</ele>
        <time>2010-05-16T08:46:05Z</time>
      </trkpt>
      <trkpt lat="45.91577" lon="4.84109">
        <ele>248.1575928</ele>
        <time>2010-05-16T08:46:12Z</time>
      </trkpt>
      <trkpt lat="45.91607" lon="4.84097">
        <ele>247.6767578</ele>
        <time>2010-05-16T08:46:19Z</time>
      </trkpt>
      <trkpt lat="45.91611" lon="4.84095">
        <ele>247.6767578</ele>
        <time>2010-05-16T08:46:20Z</time>
      </trkpt>
      <trkpt lat="45.91637" lon="4.84084">
        <ele>247.6767578</ele>
        <time>2010-05-16T08:46:26Z</time>
      </trkpt>
      <trkpt lat="45.91651" lon="4.84088">
        <ele>248.6381836</ele>
        <time>2010-05-16T08:46:30Z</time>
      </trkpt>
      <trkpt lat="45.91656" lon="4.84096">
        <ele>248.6381836</ele>
        <time>2010-05-16T08:46:32Z</time>
      </trkpt>
      <trkpt lat="45.91675" lon="4.84138">
        <ele>250.560791</ele>
        <time>2010-05-16T08:46:41Z</time>
      </trkpt>
      <trkpt lat="45.91688" lon="4.84161">
        <ele>251.0413818</ele>
        <time>2010-05-16T08:46:46Z</time>
      </trkpt>
      <trkpt lat="45.91707" lon="4.84171">
        <ele>251.5220947</ele>
        <time>2010-05-16T08:46:51Z</time>
      </trkpt>
      <trkpt lat="45.91743" lon="4.84165">
        <ele>251.5220947</ele>
        <time>2010-05-16T08:46:59Z</time>
      </trkpt>
      <trkpt lat="45.91788" lon="4.84158">
        <ele>251.5220947</ele>
        <time>2010-05-16T08:47:09Z</time>
      </trkpt>
      <trkpt lat="45.91818" lon="4.84163">
        <ele>252.9639893</ele>
        <time>2010-05-16T08:47:16Z</time>
      </trkpt>
      <trkpt lat="45.91835" lon="4.84167">
        <ele>252.9639893</ele>
        <time>2010-05-16T08:47:20Z</time>
      </trkpt>
      <trkpt lat="45.91849" lon="4.84187">
        <ele>252.9639893</ele>
        <time>2010-05-16T08:47:25Z</time>
      </trkpt>
      <trkpt lat="45.9185" lon="4.84192">
        <ele>252.9639893</ele>
        <time>2010-05-16T08:47:26Z</time>
      </trkpt>
      <trkpt lat="45.91856" lon="4.84232">
        <ele>254.8865967</ele>
        <time>2010-05-16T08:47:34Z</time>
      </trkpt>
      <trkpt lat="45.9186" lon="4.84272">
        <ele>258.2513428</ele>
        <time>2010-05-16T08:47:43Z</time>
      </trkpt>
      <trkpt lat="45.91864" lon="4.84308">
        <ele>260.654541</ele>
        <time>2010-05-16T08:47:52Z</time>
      </trkpt>
      <trkpt lat="45.91869" lon="4.84342">
        <ele>262.0965576</ele>
        <time>2010-05-16T08:48:01Z</time>
      </trkpt>
      <trkpt lat="45.91877" lon="4.84372">
        <ele>264.4998779</ele>
        <time>2010-05-16T08:48:11Z</time>
      </trkpt>
      <trkpt lat="45.91885" lon="4.84396">
        <ele>267.3839111</ele>
        <time>2010-05-16T08:48:20Z</time>
      </trkpt>
      <trkpt lat="45.91895" lon="4.84423">
        <ele>269.3065186</ele>
        <time>2010-05-16T08:48:30Z</time>
      </trkpt>
      <trkpt lat="45.91906" lon="4.84453">
        <ele>271.229126</ele>
        <time>2010-05-16T08:48:41Z</time>
      </trkpt>
      <trkpt lat="45.91915" lon="4.84476">
        <ele>272.6711426</ele>
        <time>2010-05-16T08:48:49Z</time>
      </trkpt>
      <trkpt lat="45.91918" lon="4.84482">
        <ele>272.6711426</ele>
        <time>2010-05-16T08:48:55Z</time>
      </trkpt>
      <trkpt lat="45.91918" lon="4.84482">
        <ele>272.6711426</ele>
        <time>2010-05-16T08:48:56Z</time>
      </trkpt>
      <trkpt lat="45.91923" lon="4.84491">
        <ele>273.1518555</ele>
        <time>2010-05-16T08:50:12Z</time>
      </trkpt>
      <trkpt lat="45.9193" lon="4.84504">
        <ele>274.1130371</ele>
        <time>2010-05-16T08:50:16Z</time>
      </trkpt>
      <trkpt lat="45.91941" lon="4.84523">
        <ele>274.59375</ele>
        <time>2010-05-16T08:50:21Z</time>
      </trkpt>
      <trkpt lat="45.91962" lon="4.84559">
        <ele>276.0356445</ele>
        <time>2010-05-16T08:50:30Z</time>
      </trkpt>
      <trkpt lat="45.91981" lon="4.8459">
        <ele>277.4776611</ele>
        <time>2010-05-16T08:50:38Z</time>
      </trkpt>
      <trkpt lat="45.92003" lon="4.84627">
        <ele>279.4002686</ele>
        <time>2010-05-16T08:50:48Z</time>
      </trkpt>
      <trkpt lat="45.92014" lon="4.84648">
        <ele>280.3616943</ele>
        <time>2010-05-16T08:50:54Z</time>
      </trkpt>
      <trkpt lat="45.92023" lon="4.84672">
        <ele>281.8035889</ele>
        <time>2010-05-16T08:51:01Z</time>
      </trkpt>
      <trkpt lat="45.92036" lon="4.84706">
        <ele>283.7261963</ele>
        <time>2010-05-16T08:51:11Z</time>
      </trkpt>
      <trkpt lat="45.92045" lon="4.84729">
        <ele>285.1682129</ele>
        <time>2010-05-16T08:51:18Z</time>
      </trkpt>
      <trkpt lat="45.92057" lon="4.84756">
        <ele>285.6488037</ele>
        <time>2010-05-16T08:51:26Z</time>
      </trkpt>
      <trkpt lat="45.9207" lon="4.8479">
        <ele>286.1295166</ele>
        <time>2010-05-16T08:51:34Z</time>
      </trkpt>
      <trkpt lat="45.92093" lon="4.84836">
        <ele>285.6488037</ele>
        <time>2010-05-16T08:51:43Z</time>
      </trkpt>
      <trkpt lat="45.92129" lon="4.84875">
        <ele>285.6488037</ele>
        <time>2010-05-16T08:51:52Z</time>
      </trkpt>
      <trkpt lat="45.92166" lon="4.84904">
        <ele>285.6488037</ele>
        <time>2010-05-16T08:52:00Z</time>
      </trkpt>
      <trkpt lat="45.92195" lon="4.84923">
        <ele>286.6102295</ele>
        <time>2010-05-16T08:52:06Z</time>
      </trkpt>
      <trkpt lat="45.92227" lon="4.84946">
        <ele>287.0908203</ele>
        <time>2010-05-16T08:52:13Z</time>
      </trkpt>
      <trkpt lat="45.92255" lon="4.84971">
        <ele>287.5714111</ele>
        <time>2010-05-16T08:52:20Z</time>
      </trkpt>
      <trkpt lat="45.92289" lon="4.85002">
        <ele>288.0522461</ele>
        <time>2010-05-16T08:52:29Z</time>
      </trkpt>
      <trkpt lat="45.92292" lon="4.85006">
        <ele>288.0522461</ele>
        <time>2010-05-16T08:52:30Z</time>
      </trkpt>
      <trkpt lat="45.92316" lon="4.85032">
        <ele>288.532959</ele>
        <time>2010-05-16T08:52:37Z</time>
      </trkpt>
      <trkpt lat="45.92339" lon="4.85058">
        <ele>289.0135498</ele>
        <time>2010-05-16T08:52:43Z</time>
      </trkpt>
      <trkpt lat="45.92364" lon="4.85098">
        <ele>289.4941406</ele>
        <time>2010-05-16T08:52:51Z</time>
      </trkpt>
      <trkpt lat="45.92384" lon="4.85138">
        <ele>290.4555664</ele>
        <time>2010-05-16T08:52:59Z</time>
      </trkpt>
      <trkpt lat="45.92394" lon="4.85157">
        <ele>291.416748</ele>
        <time>2010-05-16T08:53:03Z</time>
      </trkpt>
      <trkpt lat="45.92407" lon="4.85166">
        <ele>291.8974609</ele>
        <time>2010-05-16T08:53:07Z</time>
      </trkpt>
      <trkpt lat="45.92454" lon="4.85158">
        <ele>292.8587646</ele>
        <time>2010-05-16T08:53:18Z</time>
      </trkpt>
      <trkpt lat="45.92471" lon="4.85153">
        <ele>292.8587646</ele>
        <time>2010-05-16T08:53:22Z</time>
      </trkpt>
      <trkpt lat="45.92512" lon="4.85146">
        <ele>291.8974609</ele>
        <time>2010-05-16T08:53:30Z</time>
      </trkpt>
      <trkpt lat="45.92518" lon="4.85145">
        <ele>291.8974609</ele>
        <time>2010-05-16T08:53:31Z</time>
      </trkpt>
      <trkpt lat="45.92544" lon="4.85156">
        <ele>290.9361572</ele>
        <time>2010-05-16T08:53:36Z</time>
      </trkpt>
      <trkpt lat="45.92548" lon="4.85162">
        <ele>290.9361572</ele>
        <time>2010-05-16T08:53:37Z</time>
      </trkpt>
      <trkpt lat="45.92559" lon="4.8518">
        <ele>290.9361572</ele>
        <time>2010-05-16T08:53:40Z</time>
      </trkpt>
      <trkpt lat="45.92578" lon="4.85192">
        <ele>290.9361572</ele>
        <time>2010-05-16T08:53:44Z</time>
      </trkpt>
      <trkpt lat="45.92583" lon="4.85192">
        <ele>290.4555664</ele>
        <time>2010-05-16T08:53:45Z</time>
      </trkpt>
      <trkpt lat="45.92621" lon="4.85181">
        <ele>289.9748535</ele>
        <time>2010-05-16T08:53:52Z</time>
      </trkpt>
      <trkpt lat="45.92665" lon="4.85167">
        <ele>289.0135498</ele>
        <time>2010-05-16T08:54:00Z</time>
      </trkpt>
      <trkpt lat="45.92696" lon="4.85157">
        <ele>289.0135498</ele>
        <time>2010-05-16T08:54:06Z</time>
      </trkpt>
      <trkpt lat="45.92702" lon="4.85155">
        <ele>289.0135498</ele>
        <time>2010-05-16T08:54:07Z</time>
      </trkpt>
      <trkpt lat="45.92717" lon="4.85153">
        <ele>289.0135498</ele>
        <time>2010-05-16T08:54:10Z</time>
      </trkpt>
      <trkpt lat="45.92753" lon="4.85147">
        <ele>289.0135498</ele>
        <time>2010-05-16T08:54:17Z</time>
      </trkpt>
      <trkpt lat="45.92766" lon="4.85146">
        <ele>288.532959</ele>
        <time>2010-05-16T08:54:20Z</time>
      </trkpt>
      <trkpt lat="45.92791" lon="4.8515">
        <ele>289.0135498</ele>
        <time>2010-05-16T08:54:26Z</time>
      </trkpt>
      <trkpt lat="45.92824" lon="4.8515">
        <ele>289.0135498</ele>
        <time>2010-05-16T08:54:33Z</time>
      </trkpt>
      <trkpt lat="45.92857" lon="4.85153">
        <ele>289.0135498</ele>
        <time>2010-05-16T08:54:40Z</time>
      </trkpt>
      <trkpt lat="45.92896" lon="4.85154">
        <ele>289.0135498</ele>
        <time>2010-05-16T08:54:48Z</time>
      </trkpt>
      <trkpt lat="45.92947" lon="4.85156">
        <ele>288.532959</ele>
        <time>2010-05-16T08:54:58Z</time>
      </trkpt>
      <trkpt lat="45.92952" lon="4.85156">
        <ele>288.532959</ele>
        <time>2010-05-16T08:54:59Z</time>
      </trkpt>
      <trkpt lat="45.92974" lon="4.85166">
        <ele>288.0522461</ele>
        <time>2010-05-16T08:55:04Z</time>
      </trkpt>
      <trkpt lat="45.93015" lon="4.85192">
        <ele>288.0522461</ele>
        <time>2010-05-16T08:55:13Z</time>
      </trkpt>
      <trkpt lat="45.93065" lon="4.85221">
        <ele>287.5714111</ele>
        <time>2010-05-16T08:55:23Z</time>
      </trkpt>
      <trkpt lat="45.93096" lon="4.85238">
        <ele>287.0908203</ele>
        <time>2010-05-16T08:55:30Z</time>
      </trkpt>
      <trkpt lat="45.9311" lon="4.85243">
        <ele>287.0908203</ele>
        <time>2010-05-16T08:55:34Z</time>
      </trkpt>
      <trkpt lat="45.93117" lon="4.85248">
        <ele>286.6102295</ele>
        <time>2010-05-16T08:55:39Z</time>
      </trkpt>
      <trkpt lat="45.93119" lon="4.85248">
        <ele>286.6102295</ele>
        <time>2010-05-16T08:55:42Z</time>
      </trkpt>
      <trkpt lat="45.93123" lon="4.8525">
        <ele>288.0522461</ele>
        <time>2010-05-16T08:57:31Z</time>
      </trkpt>
      <trkpt lat="45.93135" lon="4.85256">
        <ele>288.0522461</ele>
        <time>2010-05-16T08:57:35Z</time>
      </trkpt>
      <trkpt lat="45.93142" lon="4.8526">
        <ele>288.0522461</ele>
        <time>2010-05-16T08:57:37Z</time>
      </trkpt>
      <trkpt lat="45.93146" lon="4.85262">
        <ele>288.0522461</ele>
        <time>2010-05-16T08:57:38Z</time>
      </trkpt>
      <trkpt lat="45.93159" lon="4.85267">
        <ele>288.532959</ele>
        <time>2010-05-16T08:57:41Z</time>
      </trkpt>
      <trkpt lat="45.93163" lon="4.85267">
        <ele>289.0135498</ele>
        <time>2010-05-16T08:57:42Z</time>
      </trkpt>
      <trkpt lat="45.93177" lon="4.85247">
        <ele>289.0135498</ele>
        <time>2010-05-16T08:57:47Z</time>
      </trkpt>
      <trkpt lat="45.93192" lon="4.85219">
        <ele>288.0522461</ele>
        <time>2010-05-16T08:57:52Z</time>
      </trkpt>
      <trkpt lat="45.93203" lon="4.85194">
        <ele>287.5714111</ele>
        <time>2010-05-16T08:57:56Z</time>
      </trkpt>
      <trkpt lat="45.93219" lon="4.85158">
        <ele>286.6102295</ele>
        <time>2010-05-16T08:58:02Z</time>
      </trkpt>
      <trkpt lat="45.93234" lon="4.85122">
        <ele>287.0908203</ele>
        <time>2010-05-16T08:58:08Z</time>
      </trkpt>
      <trkpt lat="45.93234" lon="4.85122">
        <ele>287.0908203</ele>
        <time>2010-05-16T08:58:08Z</time>
      </trkpt>
      <trkpt lat="45.93249" lon="4.85072">
        <ele>286.1295166</ele>
        <time>2010-05-16T08:58:16Z</time>
      </trkpt>
      <trkpt lat="45.93261" lon="4.85027">
        <ele>283.7261963</ele>
        <time>2010-05-16T08:58:22Z</time>
      </trkpt>
      <trkpt lat="45.93272" lon="4.84969">
        <ele>280.3616943</ele>
        <time>2010-05-16T08:58:28Z</time>
      </trkpt>
      <trkpt lat="45.93279" lon="4.84888">
        <ele>277.4776611</ele>
        <time>2010-05-16T08:58:36Z</time>
      </trkpt>
      <trkpt lat="45.93274" lon="4.84806">
        <ele>277.4776611</ele>
        <time>2010-05-16T08:58:44Z</time>
      </trkpt>
      <trkpt lat="45.93271" lon="4.84736">
        <ele>277.4776611</ele>
        <time>2010-05-16T08:58:51Z</time>
      </trkpt>
      <trkpt lat="45.9327" lon="4.84708">
        <ele>277.4776611</ele>
        <time>2010-05-16T08:58:54Z</time>
      </trkpt>
      <trkpt lat="45.9326" lon="4.8466">
        <ele>276.5163574</ele>
        <time>2010-05-16T08:58:59Z</time>
      </trkpt>
      <trkpt lat="45.93248" lon="4.84621">
        <ele>276.9970703</ele>
        <time>2010-05-16T08:59:03Z</time>
      </trkpt>
      <trkpt lat="45.93235" lon="4.84546">
        <ele>276.9970703</ele>
        <time>2010-05-16T08:59:11Z</time>
      </trkpt>
      <trkpt lat="45.93236" lon="4.845">
        <ele>276.9970703</ele>
        <time>2010-05-16T08:59:16Z</time>
      </trkpt>
      <trkpt lat="45.93232" lon="4.84473">
        <ele>276.9970703</ele>
        <time>2010-05-16T08:59:20Z</time>
      </trkpt>
      <trkpt lat="45.93225" lon="4.84469">
        <ele>276.9970703</ele>
        <time>2010-05-16T08:59:22Z</time>
      </trkpt>
      <trkpt lat="45.9319" lon="4.84469">
        <ele>277.4776611</ele>
        <time>2010-05-16T08:59:31Z</time>
      </trkpt>
      <trkpt lat="45.93166" lon="4.84468">
        <ele>278.4389648</ele>
        <time>2010-05-16T08:59:38Z</time>
      </trkpt>
      <trkpt lat="45.93158" lon="4.84469">
        <ele>278.9196777</ele>
        <time>2010-05-16T08:59:41Z</time>
      </trkpt>
      <trkpt lat="45.93156" lon="4.84474">
        <ele>278.4389648</ele>
        <time>2010-05-16T08:59:46Z</time>
      </trkpt>
      <trkpt lat="45.93191" lon="4.84474">
        <ele>280.3616943</ele>
        <time>2010-05-16T09:12:22Z</time>
      </trkpt>
      <trkpt lat="45.93202" lon="4.84472">
        <ele>280.3616943</ele>
        <time>2010-05-16T09:12:28Z</time>
      </trkpt>
      <trkpt lat="45.93213" lon="4.84473">
        <ele>280.3616943</ele>
        <time>2010-05-16T09:12:32Z</time>
      </trkpt>
      <trkpt lat="45.93231" lon="4.84475">
        <ele>279.4002686</ele>
        <time>2010-05-16T09:12:37Z</time>
      </trkpt>
      <trkpt lat="45.93239" lon="4.84472">
        <ele>278.9196777</ele>
        <time>2010-05-16T09:12:39Z</time>
      </trkpt>
      <trkpt lat="45.9325" lon="4.84444">
        <ele>277.958252</ele>
        <time>2010-05-16T09:12:45Z</time>
      </trkpt>
      <trkpt lat="45.93257" lon="4.84422">
        <ele>277.4776611</ele>
        <time>2010-05-16T09:12:51Z</time>
      </trkpt>
      <trkpt lat="45.93265" lon="4.84399">
        <ele>277.958252</ele>
        <time>2010-05-16T09:12:57Z</time>
      </trkpt>
      <trkpt lat="45.93279" lon="4.84371">
        <ele>277.4776611</ele>
        <time>2010-05-16T09:13:03Z</time>
      </trkpt>
      <trkpt lat="45.93296" lon="4.84345">
        <ele>276.5163574</ele>
        <time>2010-05-16T09:13:08Z</time>
      </trkpt>
      <trkpt lat="45.93304" lon="4.84334">
        <ele>276.5163574</ele>
        <time>2010-05-16T09:13:10Z</time>
      </trkpt>
      <trkpt lat="45.93321" lon="4.84311">
        <ele>276.0356445</ele>
        <time>2010-05-16T09:13:14Z</time>
      </trkpt>
      <trkpt lat="45.93351" lon="4.84274">
        <ele>274.59375</ele>
        <time>2010-05-16T09:13:21Z</time>
      </trkpt>
      <trkpt lat="45.93393" lon="4.84228">
        <ele>274.1130371</ele>
        <time>2010-05-16T09:13:30Z</time>
      </trkpt>
      <trkpt lat="45.9342" lon="4.84186">
        <ele>273.6324463</ele>
        <time>2010-05-16T09:13:37Z</time>
      </trkpt>
      <trkpt lat="45.93445" lon="4.8414">
        <ele>273.6324463</ele>
        <time>2010-05-16T09:13:44Z</time>
      </trkpt>
      <trkpt lat="45.93468" lon="4.84085">
        <ele>273.6324463</ele>
        <time>2010-05-16T09:13:52Z</time>
      </trkpt>
      <trkpt lat="45.93497" lon="4.84011">
        <ele>275.5550537</ele>
        <time>2010-05-16T09:14:02Z</time>
      </trkpt>
      <trkpt lat="45.93518" lon="4.83951">
        <ele>276.9970703</ele>
        <time>2010-05-16T09:14:10Z</time>
      </trkpt>
      <trkpt lat="45.93527" lon="4.83916">
        <ele>277.4776611</ele>
        <time>2010-05-16T09:14:15Z</time>
      </trkpt>
      <trkpt lat="45.93529" lon="4.83901">
        <ele>276.9970703</ele>
        <time>2010-05-16T09:14:18Z</time>
      </trkpt>
      <trkpt lat="45.93522" lon="4.83894">
        <ele>276.5163574</ele>
        <time>2010-05-16T09:14:23Z</time>
      </trkpt>
      <trkpt lat="45.93515" lon="4.839">
        <ele>276.0356445</ele>
        <time>2010-05-16T09:14:26Z</time>
      </trkpt>
      <trkpt lat="45.93491" lon="4.83913">
        <ele>275.5550537</ele>
        <time>2010-05-16T09:14:32Z</time>
      </trkpt>
      <trkpt lat="45.93445" lon="4.83934">
        <ele>276.0356445</ele>
        <time>2010-05-16T09:14:41Z</time>
      </trkpt>
      <trkpt lat="45.93408" lon="4.8395">
        <ele>276.0356445</ele>
        <time>2010-05-16T09:14:48Z</time>
      </trkpt>
      <trkpt lat="45.93356" lon="4.83975">
        <ele>276.5163574</ele>
        <time>2010-05-16T09:14:58Z</time>
      </trkpt>
      <trkpt lat="45.93289" lon="4.84009">
        <ele>276.5163574</ele>
        <time>2010-05-16T09:15:11Z</time>
      </trkpt>
      <trkpt lat="45.93238" lon="4.84034">
        <ele>276.5163574</ele>
        <time>2010-05-16T09:15:21Z</time>
      </trkpt>
      <trkpt lat="45.93195" lon="4.84055">
        <ele>276.5163574</ele>
        <time>2010-05-16T09:15:29Z</time>
      </trkpt>
      <trkpt lat="45.93151" lon="4.84078">
        <ele>276.9970703</ele>
        <time>2010-05-16T09:15:37Z</time>
      </trkpt>
      <trkpt lat="45.93101" lon="4.84101">
        <ele>277.4776611</ele>
        <time>2010-05-16T09:15:46Z</time>
      </trkpt>
      <trkpt lat="45.93063" lon="4.84121">
        <ele>278.4389648</ele>
        <time>2010-05-16T09:15:53Z</time>
      </trkpt>
      <trkpt lat="45.9301" lon="4.84146">
        <ele>279.4002686</ele>
        <time>2010-05-16T09:16:04Z</time>
      </trkpt>
      <trkpt lat="45.92964" lon="4.84168">
        <ele>281.322998</ele>
        <time>2010-05-16T09:16:14Z</time>
      </trkpt>
      <trkpt lat="45.92915" lon="4.84193">
        <ele>282.2843018</ele>
        <time>2010-05-16T09:16:25Z</time>
      </trkpt>
      <trkpt lat="45.92891" lon="4.84207">
        <ele>282.2843018</ele>
        <time>2010-05-16T09:16:30Z</time>
      </trkpt>
      <trkpt lat="45.92871" lon="4.84202">
        <ele>281.8035889</ele>
        <time>2010-05-16T09:16:34Z</time>
      </trkpt>
      <trkpt lat="45.92863" lon="4.84181">
        <ele>280.8424072</ele>
        <time>2010-05-16T09:16:37Z</time>
      </trkpt>
      <trkpt lat="45.92847" lon="4.84123">
        <ele>278.9196777</ele>
        <time>2010-05-16T09:16:43Z</time>
      </trkpt>
      <trkpt lat="45.92828" lon="4.84052">
        <ele>276.5163574</ele>
        <time>2010-05-16T09:16:49Z</time>
      </trkpt>
      <trkpt lat="45.92797" lon="4.83943">
        <ele>273.6324463</ele>
        <time>2010-05-16T09:16:58Z</time>
      </trkpt>
      <trkpt lat="45.92784" lon="4.83899">
        <ele>272.6711426</ele>
        <time>2010-05-16T09:17:02Z</time>
      </trkpt>
      <trkpt lat="45.92771" lon="4.83858">
        <ele>271.7097168</ele>
        <time>2010-05-16T09:17:06Z</time>
      </trkpt>
      <trkpt lat="45.92765" lon="4.83839">
        <ele>270.7484131</ele>
        <time>2010-05-16T09:17:08Z</time>
      </trkpt>
      <trkpt lat="45.92768" lon="4.83812">
        <ele>270.2677002</ele>
        <time>2010-05-16T09:17:12Z</time>
      </trkpt>
      <trkpt lat="45.92773" lon="4.83809">
        <ele>269.7871094</ele>
        <time>2010-05-16T09:17:13Z</time>
      </trkpt>
      <trkpt lat="45.92803" lon="4.8379">
        <ele>267.864502</ele>
        <time>2010-05-16T09:17:18Z</time>
      </trkpt>
      <trkpt lat="45.92838" lon="4.83768">
        <ele>266.9031982</ele>
        <time>2010-05-16T09:17:23Z</time>
      </trkpt>
      <trkpt lat="45.92869" lon="4.83742">
        <ele>265.4613037</ele>
        <time>2010-05-16T09:17:28Z</time>
      </trkpt>
      <trkpt lat="45.92914" lon="4.83717">
        <ele>263.0578613</ele>
        <time>2010-05-16T09:17:34Z</time>
      </trkpt>
      <trkpt lat="45.92968" lon="4.83692">
        <ele>258.7319336</ele>
        <time>2010-05-16T09:17:41Z</time>
      </trkpt>
      <trkpt lat="45.92975" lon="4.83687">
        <ele>257.770752</ele>
        <time>2010-05-16T09:17:42Z</time>
      </trkpt>
      <trkpt lat="45.93023" lon="4.83672">
        <ele>253.925415</ele>
        <time>2010-05-16T09:17:48Z</time>
      </trkpt>
      <trkpt lat="45.93051" lon="4.83651">
        <ele>251.5220947</ele>
        <time>2010-05-16T09:17:52Z</time>
      </trkpt>
      <trkpt lat="45.93072" lon="4.83651">
        <ele>249.5994873</ele>
        <time>2010-05-16T09:17:56Z</time>
      </trkpt>
      <trkpt lat="45.93096" lon="4.83654">
        <ele>247.6767578</ele>
        <time>2010-05-16T09:18:01Z</time>
      </trkpt>
      <trkpt lat="45.93098" lon="4.8365">
        <ele>246.7154541</ele>
        <time>2010-05-16T09:18:02Z</time>
      </trkpt>
      <trkpt lat="45.93112" lon="4.83629">
        <ele>244.7928467</ele>
        <time>2010-05-16T09:18:06Z</time>
      </trkpt>
      <trkpt lat="45.93126" lon="4.83619">
        <ele>243.3508301</ele>
        <time>2010-05-16T09:18:10Z</time>
      </trkpt>
      <trkpt lat="45.93138" lon="4.83617">
        <ele>244.3122559</ele>
        <time>2010-05-16T09:18:16Z</time>
      </trkpt>
      <trkpt lat="45.93143" lon="4.83611">
        <ele>245.2734375</ele>
        <time>2010-05-16T09:18:20Z</time>
      </trkpt>
      <trkpt lat="45.93151" lon="4.83605">
        <ele>245.2734375</ele>
        <time>2010-05-16T09:18:22Z</time>
      </trkpt>
      <trkpt lat="45.93161" lon="4.83585">
        <ele>243.831543</ele>
        <time>2010-05-16T09:18:25Z</time>
      </trkpt>
      <trkpt lat="45.93175" lon="4.83575">
        <ele>242.3896484</ele>
        <time>2010-05-16T09:18:28Z</time>
      </trkpt>
      <trkpt lat="45.93181" lon="4.83574">
        <ele>241.9089355</ele>
        <time>2010-05-16T09:18:29Z</time>
      </trkpt>
      <trkpt lat="45.93195" lon="4.8357">
        <ele>241.4282227</ele>
        <time>2010-05-16T09:18:31Z</time>
      </trkpt>
      <trkpt lat="45.93216" lon="4.83547">
        <ele>241.4282227</ele>
        <time>2010-05-16T09:18:35Z</time>
      </trkpt>
      <trkpt lat="45.93228" lon="4.83532">
        <ele>241.9089355</ele>
        <time>2010-05-16T09:18:37Z</time>
      </trkpt>
      <trkpt lat="45.93236" lon="4.83519">
        <ele>241.4282227</ele>
        <time>2010-05-16T09:18:39Z</time>
      </trkpt>
      <trkpt lat="45.93263" lon="4.83499">
        <ele>240.9476318</ele>
        <time>2010-05-16T09:18:44Z</time>
      </trkpt>
      <trkpt lat="45.93281" lon="4.83475">
        <ele>237.1022949</ele>
        <time>2010-05-16T09:18:49Z</time>
      </trkpt>
      <trkpt lat="45.93281" lon="4.83467">
        <ele>237.1022949</ele>
        <time>2010-05-16T09:18:50Z</time>
      </trkpt>
      <trkpt lat="45.93287" lon="4.83441">
        <ele>238.5443115</ele>
        <time>2010-05-16T09:18:54Z</time>
      </trkpt>
      <trkpt lat="45.93305" lon="4.83427">
        <ele>239.0249023</ele>
        <time>2010-05-16T09:18:59Z</time>
      </trkpt>
      <trkpt lat="45.93314" lon="4.83424">
        <ele>238.5443115</ele>
        <time>2010-05-16T09:19:03Z</time>
      </trkpt>
      <trkpt lat="45.93323" lon="4.83422">
        <ele>236.6217041</ele>
        <time>2010-05-16T09:19:07Z</time>
      </trkpt>
      <trkpt lat="45.93335" lon="4.83417">
        <ele>234.6990967</ele>
        <time>2010-05-16T09:19:13Z</time>
      </trkpt>
      <trkpt lat="45.93341" lon="4.83414">
        <ele>234.2183838</ele>
        <time>2010-05-16T09:19:15Z</time>
      </trkpt>
      <trkpt lat="45.9335" lon="4.83405">
        <ele>234.2183838</ele>
        <time>2010-05-16T09:19:20Z</time>
      </trkpt>
      <trkpt lat="45.93356" lon="4.83392">
        <ele>234.2183838</ele>
        <time>2010-05-16T09:19:25Z</time>
      </trkpt>
      <trkpt lat="45.9336" lon="4.83388">
        <ele>233.7376709</ele>
        <time>2010-05-16T09:19:28Z</time>
      </trkpt>
      <trkpt lat="45.93374" lon="4.8338">
        <ele>229.892334</ele>
        <time>2010-05-16T09:19:36Z</time>
      </trkpt>
      <trkpt lat="45.93379" lon="4.83376">
        <ele>229.892334</ele>
        <time>2010-05-16T09:19:39Z</time>
      </trkpt>
      <trkpt lat="45.93382" lon="4.83362">
        <ele>228.9311523</ele>
        <time>2010-05-16T09:19:44Z</time>
      </trkpt>
      <trkpt lat="45.93383" lon="4.83352">
        <ele>230.3730469</ele>
        <time>2010-05-16T09:19:48Z</time>
      </trkpt>
      <trkpt lat="45.93385" lon="4.83345">
        <ele>233.2570801</ele>
        <time>2010-05-16T09:19:53Z</time>
      </trkpt>
      <trkpt lat="45.93387" lon="4.8334">
        <ele>234.6990967</ele>
        <time>2010-05-16T09:19:57Z</time>
      </trkpt>
      <trkpt lat="45.93394" lon="4.83335">
        <ele>233.7376709</ele>
        <time>2010-05-16T09:20:03Z</time>
      </trkpt>
      <trkpt lat="45.93403" lon="4.83318">
        <ele>229.892334</ele>
        <time>2010-05-16T09:20:11Z</time>
      </trkpt>
      <trkpt lat="45.93411" lon="4.83306">
        <ele>227.4891357</ele>
        <time>2010-05-16T09:20:16Z</time>
      </trkpt>
      <trkpt lat="45.93421" lon="4.83296">
        <ele>226.0471191</ele>
        <time>2010-05-16T09:20:22Z</time>
      </trkpt>
      <trkpt lat="45.93431" lon="4.83287">
        <ele>224.6052246</ele>
        <time>2010-05-16T09:20:28Z</time>
      </trkpt>
      <trkpt lat="45.93432" lon="4.83285">
        <ele>223.6437988</ele>
        <time>2010-05-16T09:20:29Z</time>
      </trkpt>
      <trkpt lat="45.93442" lon="4.83265">
        <ele>222.6824951</ele>
        <time>2010-05-16T09:20:37Z</time>
      </trkpt>
      <trkpt lat="45.93452" lon="4.83249">
        <ele>220.2791748</ele>
        <time>2010-05-16T09:20:44Z</time>
      </trkpt>
      <trkpt lat="45.93463" lon="4.83234">
        <ele>219.798584</ele>
        <time>2010-05-16T09:20:50Z</time>
      </trkpt>
      <trkpt lat="45.93472" lon="4.83222">
        <ele>223.163208</ele>
        <time>2010-05-16T09:20:55Z</time>
      </trkpt>
      <trkpt lat="45.93481" lon="4.83214">
        <ele>223.6437988</ele>
        <time>2010-05-16T09:21:00Z</time>
      </trkpt>
      <trkpt lat="45.9349" lon="4.83205">
        <ele>223.6437988</ele>
        <time>2010-05-16T09:21:05Z</time>
      </trkpt>
      <trkpt lat="45.93498" lon="4.83198">
        <ele>223.163208</ele>
        <time>2010-05-16T09:21:11Z</time>
      </trkpt>
      <trkpt lat="45.93507" lon="4.83199">
        <ele>227.4891357</ele>
        <time>2010-05-16T09:21:17Z</time>
      </trkpt>
      <trkpt lat="45.93519" lon="4.83203">
        <ele>230.8537598</ele>
        <time>2010-05-16T09:21:22Z</time>
      </trkpt>
      <trkpt lat="45.93526" lon="4.83199">
        <ele>230.8537598</ele>
        <time>2010-05-16T09:21:25Z</time>
      </trkpt>
      <trkpt lat="45.93535" lon="4.83205">
        <ele>233.7376709</ele>
        <time>2010-05-16T09:21:29Z</time>
      </trkpt>
      <trkpt lat="45.93539" lon="4.83213">
        <ele>234.6990967</ele>
        <time>2010-05-16T09:21:32Z</time>
      </trkpt>
      <trkpt lat="45.93551" lon="4.83223">
        <ele>235.6602783</ele>
        <time>2010-05-16T09:21:38Z</time>
      </trkpt>
      <trkpt lat="45.93564" lon="4.83223">
        <ele>236.1409912</ele>
        <time>2010-05-16T09:21:45Z</time>
      </trkpt>
      <trkpt lat="45.93574" lon="4.83221">
        <ele>238.5443115</ele>
        <time>2010-05-16T09:21:51Z</time>
      </trkpt>
      <trkpt lat="45.93583" lon="4.83221">
        <ele>239.9862061</ele>
        <time>2010-05-16T09:21:56Z</time>
      </trkpt>
      <trkpt lat="45.93596" lon="4.83222">
        <ele>241.9089355</ele>
        <time>2010-05-16T09:22:04Z</time>
      </trkpt>
      <trkpt lat="45.93609" lon="4.83223">
        <ele>243.831543</ele>
        <time>2010-05-16T09:22:12Z</time>
      </trkpt>
      <trkpt lat="45.93623" lon="4.83227">
        <ele>246.7154541</ele>
        <time>2010-05-16T09:22:20Z</time>
      </trkpt>
      <trkpt lat="45.93635" lon="4.83235">
        <ele>246.7154541</ele>
        <time>2010-05-16T09:22:28Z</time>
      </trkpt>
      <trkpt lat="45.93648" lon="4.83243">
        <ele>250.560791</ele>
        <time>2010-05-16T09:22:36Z</time>
      </trkpt>
      <trkpt lat="45.93658" lon="4.83251">
        <ele>253.925415</ele>
        <time>2010-05-16T09:22:43Z</time>
      </trkpt>
      <trkpt lat="45.93669" lon="4.83262">
        <ele>255.8480225</ele>
        <time>2010-05-16T09:22:51Z</time>
      </trkpt>
      <trkpt lat="45.93676" lon="4.83268">
        <ele>256.3287354</ele>
        <time>2010-05-16T09:22:57Z</time>
      </trkpt>
      <trkpt lat="45.93686" lon="4.83276">
        <ele>259.6933594</ele>
        <time>2010-05-16T09:23:04Z</time>
      </trkpt>
      <trkpt lat="45.93698" lon="4.83287">
        <ele>264.4998779</ele>
        <time>2010-05-16T09:23:11Z</time>
      </trkpt>
      <trkpt lat="45.93706" lon="4.83295">
        <ele>263.5385742</ele>
        <time>2010-05-16T09:23:16Z</time>
      </trkpt>
      <trkpt lat="45.93714" lon="4.83309">
        <ele>263.0578613</ele>
        <time>2010-05-16T09:23:23Z</time>
      </trkpt>
      <trkpt lat="45.9372" lon="4.83326">
        <ele>263.5385742</ele>
        <time>2010-05-16T09:23:30Z</time>
      </trkpt>
      <trkpt lat="45.93725" lon="4.83345">
        <ele>264.9805908</ele>
        <time>2010-05-16T09:23:38Z</time>
      </trkpt>
      <trkpt lat="45.93729" lon="4.83362">
        <ele>265.9418945</ele>
        <time>2010-05-16T09:23:46Z</time>
      </trkpt>
      <trkpt lat="45.93729" lon="4.83363">
        <ele>265.9418945</ele>
        <time>2010-05-16T09:23:47Z</time>
      </trkpt>
      <trkpt lat="45.9373" lon="4.8336">
        <ele>265.4613037</ele>
        <time>2010-05-16T09:23:52Z</time>
      </trkpt>
      <trkpt lat="45.9373" lon="4.83348">
        <ele>265.9418945</ele>
        <time>2010-05-16T09:23:56Z</time>
      </trkpt>
      <trkpt lat="45.93724" lon="4.83319">
        <ele>268.3450928</ele>
        <time>2010-05-16T09:24:04Z</time>
      </trkpt>
      <trkpt lat="45.93716" lon="4.83291">
        <ele>267.3839111</ele>
        <time>2010-05-16T09:24:10Z</time>
      </trkpt>
      <trkpt lat="45.93712" lon="4.83273">
        <ele>266.4224854</ele>
        <time>2010-05-16T09:24:14Z</time>
      </trkpt>
      <trkpt lat="45.93712" lon="4.83252">
        <ele>265.4613037</ele>
        <time>2010-05-16T09:24:19Z</time>
      </trkpt>
      <trkpt lat="45.93719" lon="4.83213">
        <ele>262.0965576</ele>
        <time>2010-05-16T09:24:26Z</time>
      </trkpt>
      <trkpt lat="45.93723" lon="4.83189">
        <ele>261.1352539</ele>
        <time>2010-05-16T09:24:30Z</time>
      </trkpt>
      <trkpt lat="45.93723" lon="4.83178">
        <ele>261.1352539</ele>
        <time>2010-05-16T09:24:32Z</time>
      </trkpt>
      <trkpt lat="45.93719" lon="4.83135">
        <ele>260.654541</ele>
        <time>2010-05-16T09:24:40Z</time>
      </trkpt>
      <trkpt lat="45.93716" lon="4.83109">
        <ele>260.1739502</ele>
        <time>2010-05-16T09:24:46Z</time>
      </trkpt>
      <trkpt lat="45.93719" lon="4.83079">
        <ele>260.1739502</ele>
        <time>2010-05-16T09:24:52Z</time>
      </trkpt>
      <trkpt lat="45.93728" lon="4.83058">
        <ele>260.1739502</ele>
        <time>2010-05-16T09:24:58Z</time>
      </trkpt>
      <trkpt lat="45.93743" lon="4.83054">
        <ele>262.0965576</ele>
        <time>2010-05-16T09:25:02Z</time>
      </trkpt>
      <trkpt lat="45.93763" lon="4.83049">
        <ele>262.5771484</ele>
        <time>2010-05-16T09:25:07Z</time>
      </trkpt>
      <trkpt lat="45.93776" lon="4.83047">
        <ele>262.5771484</ele>
        <time>2010-05-16T09:25:11Z</time>
      </trkpt>
      <trkpt lat="45.9378" lon="4.83046">
        <ele>262.0965576</ele>
        <time>2010-05-16T09:25:15Z</time>
      </trkpt>
      <trkpt lat="45.9378" lon="4.83046">
        <ele>262.5771484</ele>
        <time>2010-05-16T09:25:16Z</time>
      </trkpt>
      <trkpt lat="45.93786" lon="4.83045">
        <ele>262.5771484</ele>
        <time>2010-05-16T09:25:24Z</time>
      </trkpt>
      <trkpt lat="45.93799" lon="4.83044">
        <ele>262.0965576</ele>
        <time>2010-05-16T09:25:28Z</time>
      </trkpt>
      <trkpt lat="45.9382" lon="4.83039">
        <ele>259.6933594</ele>
        <time>2010-05-16T09:25:32Z</time>
      </trkpt>
      <trkpt lat="45.93843" lon="4.83031">
        <ele>255.8480225</ele>
        <time>2010-05-16T09:25:36Z</time>
      </trkpt>
      <trkpt lat="45.93852" lon="4.83024">
        <ele>253.925415</ele>
        <time>2010-05-16T09:25:38Z</time>
      </trkpt>
      <trkpt lat="45.9386" lon="4.82992">
        <ele>250.560791</ele>
        <time>2010-05-16T09:25:42Z</time>
      </trkpt>
      <trkpt lat="45.93859" lon="4.82971">
        <ele>248.1575928</ele>
        <time>2010-05-16T09:25:44Z</time>
      </trkpt>
      <trkpt lat="45.93856" lon="4.82939">
        <ele>244.7928467</ele>
        <time>2010-05-16T09:25:47Z</time>
      </trkpt>
      <trkpt lat="45.93856" lon="4.82914">
        <ele>240.9476318</ele>
        <time>2010-05-16T09:25:51Z</time>
      </trkpt>
      <trkpt lat="45.9386" lon="4.82909">
        <ele>239.9862061</ele>
        <time>2010-05-16T09:25:54Z</time>
      </trkpt>
      <trkpt lat="45.93861" lon="4.82908">
        <ele>240.467041</ele>
        <time>2010-05-16T09:25:58Z</time>
      </trkpt>
      <trkpt lat="45.93848" lon="4.82906">
        <ele>247.6767578</ele>
        <time>2010-05-16T09:28:01Z</time>
      </trkpt>
      <trkpt lat="45.93849" lon="4.82906">
        <ele>246.7154541</ele>
        <time>2010-05-16T09:28:02Z</time>
      </trkpt>
      <trkpt lat="45.93851" lon="4.82905">
        <ele>245.7541504</ele>
        <time>2010-05-16T09:28:04Z</time>
      </trkpt>
      <trkpt lat="45.93853" lon="4.82905">
        <ele>245.7541504</ele>
        <time>2010-05-16T09:28:06Z</time>
      </trkpt>
      <trkpt lat="45.93859" lon="4.82898">
        <ele>246.7154541</ele>
        <time>2010-05-16T09:28:12Z</time>
      </trkpt>
      <trkpt lat="45.93864" lon="4.82883">
        <ele>246.2348633</ele>
        <time>2010-05-16T09:28:17Z</time>
      </trkpt>
      <trkpt lat="45.93868" lon="4.82871">
        <ele>244.7928467</ele>
        <time>2010-05-16T09:28:20Z</time>
      </trkpt>
      <trkpt lat="45.9387" lon="4.82867">
        <ele>244.3122559</ele>
        <time>2010-05-16T09:28:21Z</time>
      </trkpt>
      <trkpt lat="45.9388" lon="4.82851">
        <ele>241.9089355</ele>
        <time>2010-05-16T09:28:25Z</time>
      </trkpt>
      <trkpt lat="45.93883" lon="4.82848">
        <ele>241.4282227</ele>
        <time>2010-05-16T09:28:26Z</time>
      </trkpt>
      <trkpt lat="45.93889" lon="4.82842">
        <ele>241.4282227</ele>
        <time>2010-05-16T09:28:28Z</time>
      </trkpt>
      <trkpt lat="45.93893" lon="4.8284">
        <ele>241.9089355</ele>
        <time>2010-05-16T09:28:29Z</time>
      </trkpt>
      <trkpt lat="45.93906" lon="4.8283">
        <ele>241.9089355</ele>
        <time>2010-05-16T09:28:33Z</time>
      </trkpt>
      <trkpt lat="45.93928" lon="4.82809">
        <ele>242.3896484</ele>
        <time>2010-05-16T09:28:40Z</time>
      </trkpt>
      <trkpt lat="45.93942" lon="4.82791">
        <ele>243.831543</ele>
        <time>2010-05-16T09:28:45Z</time>
      </trkpt>
      <trkpt lat="45.9396" lon="4.82772">
        <ele>245.7541504</ele>
        <time>2010-05-16T09:28:52Z</time>
      </trkpt>
      <trkpt lat="45.93977" lon="4.82771">
        <ele>247.6767578</ele>
        <time>2010-05-16T09:28:57Z</time>
      </trkpt>
      <trkpt lat="45.93992" lon="4.82785">
        <ele>250.560791</ele>
        <time>2010-05-16T09:29:02Z</time>
      </trkpt>
      <trkpt lat="45.94015" lon="4.82822">
        <ele>252.9639893</ele>
        <time>2010-05-16T09:29:12Z</time>
      </trkpt>
      <trkpt lat="45.94033" lon="4.82851">
        <ele>252.4833984</ele>
        <time>2010-05-16T09:29:20Z</time>
      </trkpt>
      <trkpt lat="45.94052" lon="4.82885">
        <ele>254.8865967</ele>
        <time>2010-05-16T09:29:29Z</time>
      </trkpt>
      <trkpt lat="45.94067" lon="4.82913">
        <ele>258.7319336</ele>
        <time>2010-05-16T09:29:37Z</time>
      </trkpt>
      <trkpt lat="45.94078" lon="4.82946">
        <ele>258.7319336</ele>
        <time>2010-05-16T09:29:46Z</time>
      </trkpt>
      <trkpt lat="45.94077" lon="4.82975">
        <ele>260.1739502</ele>
        <time>2010-05-16T09:29:53Z</time>
      </trkpt>
      <trkpt lat="45.94069" lon="4.82992">
        <ele>262.0965576</ele>
        <time>2010-05-16T09:29:58Z</time>
      </trkpt>
      <trkpt lat="45.94054" lon="4.82998">
        <ele>263.0578613</ele>
        <time>2010-05-16T09:30:04Z</time>
      </trkpt>
      <trkpt lat="45.94033" lon="4.83005">
        <ele>264.9805908</ele>
        <time>2010-05-16T09:30:12Z</time>
      </trkpt>
      <trkpt lat="45.94017" lon="4.83017">
        <ele>265.4613037</ele>
        <time>2010-05-16T09:30:19Z</time>
      </trkpt>
      <trkpt lat="45.94004" lon="4.83038">
        <ele>265.4613037</ele>
        <time>2010-05-16T09:30:26Z</time>
      </trkpt>
      <trkpt lat="45.93993" lon="4.83069">
        <ele>266.4224854</ele>
        <time>2010-05-16T09:30:34Z</time>
      </trkpt>
      <trkpt lat="45.93981" lon="4.83111">
        <ele>268.3450928</ele>
        <time>2010-05-16T09:30:44Z</time>
      </trkpt>
      <trkpt lat="45.9397" lon="4.83154">
        <ele>270.2677002</ele>
        <time>2010-05-16T09:30:54Z</time>
      </trkpt>
      <trkpt lat="45.93959" lon="4.83192">
        <ele>271.229126</ele>
        <time>2010-05-16T09:31:02Z</time>
      </trkpt>
      <trkpt lat="45.93945" lon="4.83249">
        <ele>271.7097168</ele>
        <time>2010-05-16T09:31:12Z</time>
      </trkpt>
      <trkpt lat="45.93936" lon="4.83281">
        <ele>272.1904297</ele>
        <time>2010-05-16T09:31:17Z</time>
      </trkpt>
      <trkpt lat="45.93928" lon="4.83321">
        <ele>272.6711426</ele>
        <time>2010-05-16T09:31:23Z</time>
      </trkpt>
      <trkpt lat="45.93916" lon="4.83371">
        <ele>272.6711426</ele>
        <time>2010-05-16T09:31:30Z</time>
      </trkpt>
      <trkpt lat="45.9392" lon="4.83388">
        <ele>272.6711426</ele>
        <time>2010-05-16T09:31:33Z</time>
      </trkpt>
      <trkpt lat="45.93934" lon="4.83388">
        <ele>272.1904297</ele>
        <time>2010-05-16T09:31:36Z</time>
      </trkpt>
      <trkpt lat="45.93939" lon="4.83386">
        <ele>271.7097168</ele>
        <time>2010-05-16T09:31:37Z</time>
      </trkpt>
      <trkpt lat="45.93989" lon="4.8337">
        <ele>271.7097168</ele>
        <time>2010-05-16T09:31:47Z</time>
      </trkpt>
      <trkpt lat="45.93997" lon="4.83367">
        <ele>271.7097168</ele>
        <time>2010-05-16T09:31:49Z</time>
      </trkpt>
      <trkpt lat="45.94006" lon="4.83367">
        <ele>271.7097168</ele>
        <time>2010-05-16T09:31:53Z</time>
      </trkpt>
      <trkpt lat="45.94007" lon="4.83367">
        <ele>271.7097168</ele>
        <time>2010-05-16T09:31:54Z</time>
      </trkpt>
      <trkpt lat="45.94007" lon="4.83368">
        <ele>271.7097168</ele>
        <time>2010-05-16T09:31:57Z</time>
      </trkpt>
      <trkpt lat="45.94011" lon="4.83366">
        <ele>271.7097168</ele>
        <time>2010-05-16T09:32:39Z</time>
      </trkpt>
      <trkpt lat="45.94011" lon="4.83366">
        <ele>271.7097168</ele>
        <time>2010-05-16T09:32:39Z</time>
      </trkpt>
      <trkpt lat="45.94021" lon="4.83357">
        <ele>271.7097168</ele>
        <time>2010-05-16T09:32:44Z</time>
      </trkpt>
      <trkpt lat="45.94033" lon="4.83338">
        <ele>271.7097168</ele>
        <time>2010-05-16T09:32:48Z</time>
      </trkpt>
      <trkpt lat="45.94046" lon="4.8332">
        <ele>271.7097168</ele>
        <time>2010-05-16T09:32:51Z</time>
      </trkpt>
      <trkpt lat="45.94063" lon="4.83295">
        <ele>272.1904297</ele>
        <time>2010-05-16T09:32:55Z</time>
      </trkpt>
      <trkpt lat="45.94076" lon="4.83276">
        <ele>272.1904297</ele>
        <time>2010-05-16T09:32:58Z</time>
      </trkpt>
      <trkpt lat="45.94084" lon="4.83264">
        <ele>272.1904297</ele>
        <time>2010-05-16T09:33:00Z</time>
      </trkpt>
      <trkpt lat="45.94109" lon="4.83227">
        <ele>272.1904297</ele>
        <time>2010-05-16T09:33:06Z</time>
      </trkpt>
      <trkpt lat="45.94151" lon="4.83163">
        <ele>272.1904297</ele>
        <time>2010-05-16T09:33:16Z</time>
      </trkpt>
      <trkpt lat="45.94197" lon="4.83095">
        <ele>272.1904297</ele>
        <time>2010-05-16T09:33:26Z</time>
      </trkpt>
      <trkpt lat="45.94251" lon="4.83015">
        <ele>272.1904297</ele>
        <time>2010-05-16T09:33:38Z</time>
      </trkpt>
      <trkpt lat="45.94278" lon="4.82964">
        <ele>272.1904297</ele>
        <time>2010-05-16T09:33:45Z</time>
      </trkpt>
      <trkpt lat="45.94284" lon="4.82949">
        <ele>272.1904297</ele>
        <time>2010-05-16T09:33:47Z</time>
      </trkpt>
      <trkpt lat="45.94303" lon="4.82931">
        <ele>272.1904297</ele>
        <time>2010-05-16T09:33:51Z</time>
      </trkpt>
      <trkpt lat="45.9431" lon="4.8293">
        <ele>272.1904297</ele>
        <time>2010-05-16T09:33:52Z</time>
      </trkpt>
      <trkpt lat="45.94381" lon="4.82921">
        <ele>271.7097168</ele>
        <time>2010-05-16T09:34:04Z</time>
      </trkpt>
      <trkpt lat="45.94439" lon="4.82914">
        <ele>270.7484131</ele>
        <time>2010-05-16T09:34:14Z</time>
      </trkpt>
      <trkpt lat="45.94507" lon="4.82906">
        <ele>270.7484131</ele>
        <time>2010-05-16T09:34:26Z</time>
      </trkpt>
      <trkpt lat="45.94553" lon="4.829">
        <ele>270.2677002</ele>
        <time>2010-05-16T09:34:34Z</time>
      </trkpt>
      <trkpt lat="45.94599" lon="4.82895">
        <ele>269.7871094</ele>
        <time>2010-05-16T09:34:42Z</time>
      </trkpt>
      <trkpt lat="45.94659" lon="4.82886">
        <ele>269.7871094</ele>
        <time>2010-05-16T09:34:52Z</time>
      </trkpt>
      <trkpt lat="45.94709" lon="4.82876">
        <ele>269.7871094</ele>
        <time>2010-05-16T09:35:01Z</time>
      </trkpt>
      <trkpt lat="45.94772" lon="4.82865">
        <ele>270.2677002</ele>
        <time>2010-05-16T09:35:12Z</time>
      </trkpt>
      <trkpt lat="45.94822" lon="4.82856">
        <ele>270.2677002</ele>
        <time>2010-05-16T09:35:21Z</time>
      </trkpt>
      <trkpt lat="45.94861" lon="4.82859">
        <ele>269.3065186</ele>
        <time>2010-05-16T09:35:28Z</time>
      </trkpt>
      <trkpt lat="45.94894" lon="4.82864">
        <ele>268.8258057</ele>
        <time>2010-05-16T09:35:34Z</time>
      </trkpt>
      <trkpt lat="45.94934" lon="4.82871">
        <ele>266.9031982</ele>
        <time>2010-05-16T09:35:41Z</time>
      </trkpt>
      <trkpt lat="45.94987" lon="4.82882">
        <ele>266.4224854</ele>
        <time>2010-05-16T09:35:50Z</time>
      </trkpt>
      <trkpt lat="45.95052" lon="4.82896">
        <ele>265.9418945</ele>
        <time>2010-05-16T09:36:01Z</time>
      </trkpt>
      <trkpt lat="45.95116" lon="4.82907">
        <ele>265.4613037</ele>
        <time>2010-05-16T09:36:12Z</time>
      </trkpt>
      <trkpt lat="45.95172" lon="4.82916">
        <ele>264.4998779</ele>
        <time>2010-05-16T09:36:21Z</time>
      </trkpt>
      <trkpt lat="45.9522" lon="4.82924">
        <ele>263.5385742</ele>
        <time>2010-05-16T09:36:29Z</time>
      </trkpt>
      <trkpt lat="45.95272" lon="4.82933">
        <ele>264.0192871</ele>
        <time>2010-05-16T09:36:38Z</time>
      </trkpt>
      <trkpt lat="45.95318" lon="4.8294">
        <ele>264.0192871</ele>
        <time>2010-05-16T09:36:47Z</time>
      </trkpt>
      <trkpt lat="45.95328" lon="4.82934">
        <ele>264.4998779</ele>
        <time>2010-05-16T09:36:50Z</time>
      </trkpt>
      <trkpt lat="45.95328" lon="4.82929">
        <ele>264.4998779</ele>
        <time>2010-05-16T09:36:51Z</time>
      </trkpt>
      <trkpt lat="45.95329" lon="4.8287">
        <ele>264.4998779</ele>
        <time>2010-05-16T09:36:59Z</time>
      </trkpt>
      <trkpt lat="45.9533" lon="4.82791">
        <ele>264.4998779</ele>
        <time>2010-05-16T09:37:09Z</time>
      </trkpt>
      <trkpt lat="45.95331" lon="4.82733">
        <ele>265.4613037</ele>
        <time>2010-05-16T09:37:18Z</time>
      </trkpt>
      <trkpt lat="45.95332" lon="4.82705">
        <ele>265.9418945</ele>
        <time>2010-05-16T09:37:23Z</time>
      </trkpt>
      <trkpt lat="45.95331" lon="4.82677">
        <ele>266.4224854</ele>
        <time>2010-05-16T09:37:28Z</time>
      </trkpt>
      <trkpt lat="45.95333" lon="4.8265">
        <ele>266.9031982</ele>
        <time>2010-05-16T09:37:33Z</time>
      </trkpt>
      <trkpt lat="45.95333" lon="4.82604">
        <ele>267.3839111</ele>
        <time>2010-05-16T09:37:41Z</time>
      </trkpt>
      <trkpt lat="45.95333" lon="4.82568">
        <ele>267.864502</ele>
        <time>2010-05-16T09:37:48Z</time>
      </trkpt>
      <trkpt lat="45.95333" lon="4.82537">
        <ele>267.3839111</ele>
        <time>2010-05-16T09:37:53Z</time>
      </trkpt>
      <trkpt lat="45.95333" lon="4.82489">
        <ele>266.9031982</ele>
        <time>2010-05-16T09:38:00Z</time>
      </trkpt>
      <trkpt lat="45.95334" lon="4.82404">
        <ele>265.9418945</ele>
        <time>2010-05-16T09:38:11Z</time>
      </trkpt>
      <trkpt lat="45.95335" lon="4.82377">
        <ele>265.4613037</ele>
        <time>2010-05-16T09:38:15Z</time>
      </trkpt>
      <trkpt lat="45.95333" lon="4.82346">
        <ele>265.4613037</ele>
        <time>2010-05-16T09:38:20Z</time>
      </trkpt>
      <trkpt lat="45.95331" lon="4.82309">
        <ele>265.9418945</ele>
        <time>2010-05-16T09:38:27Z</time>
      </trkpt>
      <trkpt lat="45.95329" lon="4.82267">
        <ele>265.9418945</ele>
        <time>2010-05-16T09:38:34Z</time>
      </trkpt>
      <trkpt lat="45.95326" lon="4.82233">
        <ele>265.9418945</ele>
        <time>2010-05-16T09:38:39Z</time>
      </trkpt>
      <trkpt lat="45.95325" lon="4.8222">
        <ele>265.9418945</ele>
        <time>2010-05-16T09:38:41Z</time>
      </trkpt>
      <trkpt lat="45.95323" lon="4.8219">
        <ele>265.4613037</ele>
        <time>2010-05-16T09:38:46Z</time>
      </trkpt>
      <trkpt lat="45.95319" lon="4.82127">
        <ele>265.4613037</ele>
        <time>2010-05-16T09:38:56Z</time>
      </trkpt>
      <trkpt lat="45.95314" lon="4.82071">
        <ele>266.4224854</ele>
        <time>2010-05-16T09:39:05Z</time>
      </trkpt>
      <trkpt lat="45.95309" lon="4.82015">
        <ele>267.3839111</ele>
        <time>2010-05-16T09:39:14Z</time>
      </trkpt>
      <trkpt lat="45.95307" lon="4.81991">
        <ele>267.3839111</ele>
        <time>2010-05-16T09:39:18Z</time>
      </trkpt>
      <trkpt lat="45.95304" lon="4.8196">
        <ele>267.864502</ele>
        <time>2010-05-16T09:39:23Z</time>
      </trkpt>
      <trkpt lat="45.95296" lon="4.81943">
        <ele>267.864502</ele>
        <time>2010-05-16T09:39:27Z</time>
      </trkpt>
      <trkpt lat="45.9525" lon="4.8193">
        <ele>266.4224854</ele>
        <time>2010-05-16T09:39:36Z</time>
      </trkpt>
      <trkpt lat="45.95199" lon="4.81912">
        <ele>265.4613037</ele>
        <time>2010-05-16T09:39:45Z</time>
      </trkpt>
      <trkpt lat="45.9516" lon="4.81901">
        <ele>264.4998779</ele>
        <time>2010-05-16T09:39:51Z</time>
      </trkpt>
      <trkpt lat="45.95113" lon="4.81883">
        <ele>263.5385742</ele>
        <time>2010-05-16T09:39:58Z</time>
      </trkpt>
      <trkpt lat="45.95072" lon="4.81857">
        <ele>263.0578613</ele>
        <time>2010-05-16T09:40:04Z</time>
      </trkpt>
      <trkpt lat="45.95018" lon="4.81825">
        <ele>262.5771484</ele>
        <time>2010-05-16T09:40:12Z</time>
      </trkpt>
      <trkpt lat="45.9497" lon="4.81813">
        <ele>260.654541</ele>
        <time>2010-05-16T09:40:18Z</time>
      </trkpt>
      <trkpt lat="45.94927" lon="4.81799">
        <ele>258.2513428</ele>
        <time>2010-05-16T09:40:23Z</time>
      </trkpt>
      <trkpt lat="45.94903" lon="4.81771">
        <ele>257.2900391</ele>
        <time>2010-05-16T09:40:27Z</time>
      </trkpt>
      <trkpt lat="45.94902" lon="4.8176">
        <ele>257.2900391</ele>
        <time>2010-05-16T09:40:28Z</time>
      </trkpt>
      <trkpt lat="45.94894" lon="4.81689">
        <ele>259.2126465</ele>
        <time>2010-05-16T09:40:36Z</time>
      </trkpt>
      <trkpt lat="45.94888" lon="4.81638">
        <ele>260.1739502</ele>
        <time>2010-05-16T09:40:42Z</time>
      </trkpt>
      <trkpt lat="45.9488" lon="4.81578">
        <ele>261.1352539</ele>
        <time>2010-05-16T09:40:49Z</time>
      </trkpt>
      <trkpt lat="45.94873" lon="4.81526">
        <ele>262.5771484</ele>
        <time>2010-05-16T09:40:56Z</time>
      </trkpt>
      <trkpt lat="45.94876" lon="4.8149">
        <ele>263.0578613</ele>
        <time>2010-05-16T09:41:01Z</time>
      </trkpt>
      <trkpt lat="45.94883" lon="4.81479">
        <ele>263.0578613</ele>
        <time>2010-05-16T09:41:03Z</time>
      </trkpt>
      <trkpt lat="45.9491" lon="4.81441">
        <ele>263.5385742</ele>
        <time>2010-05-16T09:41:10Z</time>
      </trkpt>
      <trkpt lat="45.94922" lon="4.81425">
        <ele>263.0578613</ele>
        <time>2010-05-16T09:41:13Z</time>
      </trkpt>
      <trkpt lat="45.94969" lon="4.81357">
        <ele>263.5385742</ele>
        <time>2010-05-16T09:41:25Z</time>
      </trkpt>
      <trkpt lat="45.95" lon="4.813">
        <ele>262.5771484</ele>
        <time>2010-05-16T09:41:34Z</time>
      </trkpt>
      <trkpt lat="45.95006" lon="4.81284">
        <ele>262.0965576</ele>
        <time>2010-05-16T09:41:36Z</time>
      </trkpt>
      <trkpt lat="45.95012" lon="4.81259">
        <ele>261.1352539</ele>
        <time>2010-05-16T09:41:39Z</time>
      </trkpt>
      <trkpt lat="45.95024" lon="4.81195">
        <ele>260.654541</ele>
        <time>2010-05-16T09:41:46Z</time>
      </trkpt>
      <trkpt lat="45.95035" lon="4.81156">
        <ele>261.6159668</ele>
        <time>2010-05-16T09:41:51Z</time>
      </trkpt>
      <trkpt lat="45.95046" lon="4.81129">
        <ele>262.5771484</ele>
        <time>2010-05-16T09:41:56Z</time>
      </trkpt>
      <trkpt lat="45.9505" lon="4.81119">
        <ele>262.5771484</ele>
        <time>2010-05-16T09:41:58Z</time>
      </trkpt>
      <trkpt lat="45.95056" lon="4.81102">
        <ele>262.5771484</ele>
        <time>2010-05-16T09:42:01Z</time>
      </trkpt>
      <trkpt lat="45.95073" lon="4.81054">
        <ele>262.0965576</ele>
        <time>2010-05-16T09:42:09Z</time>
      </trkpt>
      <trkpt lat="45.95076" lon="4.81048">
        <ele>262.0965576</ele>
        <time>2010-05-16T09:42:10Z</time>
      </trkpt>
      <trkpt lat="45.95093" lon="4.81031">
        <ele>260.654541</ele>
        <time>2010-05-16T09:42:14Z</time>
      </trkpt>
      <trkpt lat="45.95139" lon="4.81006">
        <ele>257.770752</ele>
        <time>2010-05-16T09:42:22Z</time>
      </trkpt>
      <trkpt lat="45.95161" lon="4.8099">
        <ele>258.2513428</ele>
        <time>2010-05-16T09:42:26Z</time>
      </trkpt>
      <trkpt lat="45.95184" lon="4.80975">
        <ele>259.6933594</ele>
        <time>2010-05-16T09:42:32Z</time>
      </trkpt>
      <trkpt lat="45.95217" lon="4.80954">
        <ele>260.654541</ele>
        <time>2010-05-16T09:42:42Z</time>
      </trkpt>
      <trkpt lat="45.95242" lon="4.80935">
        <ele>260.654541</ele>
        <time>2010-05-16T09:42:50Z</time>
      </trkpt>
      <trkpt lat="45.95274" lon="4.80915">
        <ele>260.654541</ele>
        <time>2010-05-16T09:42:59Z</time>
      </trkpt>
      <trkpt lat="45.95308" lon="4.80895">
        <ele>260.1739502</ele>
        <time>2010-05-16T09:43:08Z</time>
      </trkpt>
      <trkpt lat="45.95343" lon="4.80872">
        <ele>259.2126465</ele>
        <time>2010-05-16T09:43:16Z</time>
      </trkpt>
      <trkpt lat="45.95366" lon="4.80857">
        <ele>258.7319336</ele>
        <time>2010-05-16T09:43:21Z</time>
      </trkpt>
      <trkpt lat="45.95373" lon="4.8084">
        <ele>257.2900391</ele>
        <time>2010-05-16T09:43:25Z</time>
      </trkpt>
      <trkpt lat="45.95371" lon="4.80835">
        <ele>257.2900391</ele>
        <time>2010-05-16T09:43:26Z</time>
      </trkpt>
      <trkpt lat="45.9535" lon="4.80788">
        <ele>259.6933594</ele>
        <time>2010-05-16T09:43:36Z</time>
      </trkpt>
      <trkpt lat="45.95337" lon="4.8076">
        <ele>261.1352539</ele>
        <time>2010-05-16T09:43:42Z</time>
      </trkpt>
      <trkpt lat="45.9532" lon="4.80721">
        <ele>262.0965576</ele>
        <time>2010-05-16T09:43:50Z</time>
      </trkpt>
      <trkpt lat="45.95313" lon="4.80706">
        <ele>262.5771484</ele>
        <time>2010-05-16T09:43:53Z</time>
      </trkpt>
      <trkpt lat="45.95316" lon="4.80685">
        <ele>262.5771484</ele>
        <time>2010-05-16T09:43:57Z</time>
      </trkpt>
      <trkpt lat="45.9532" lon="4.80682">
        <ele>262.0965576</ele>
        <time>2010-05-16T09:43:58Z</time>
      </trkpt>
      <trkpt lat="45.95371" lon="4.80659">
        <ele>261.1352539</ele>
        <time>2010-05-16T09:44:10Z</time>
      </trkpt>
      <trkpt lat="45.95408" lon="4.80641">
        <ele>261.1352539</ele>
        <time>2010-05-16T09:44:19Z</time>
      </trkpt>
      <trkpt lat="45.95444" lon="4.80628">
        <ele>260.654541</ele>
        <time>2010-05-16T09:44:27Z</time>
      </trkpt>
      <trkpt lat="45.955" lon="4.80606">
        <ele>260.654541</ele>
        <time>2010-05-16T09:44:39Z</time>
      </trkpt>
      <trkpt lat="45.95509" lon="4.80601">
        <ele>260.1739502</ele>
        <time>2010-05-16T09:44:41Z</time>
      </trkpt>
      <trkpt lat="45.95551" lon="4.8058">
        <ele>259.2126465</ele>
        <time>2010-05-16T09:44:49Z</time>
      </trkpt>
      <trkpt lat="45.95593" lon="4.80566">
        <ele>259.6933594</ele>
        <time>2010-05-16T09:44:57Z</time>
      </trkpt>
      <trkpt lat="45.95637" lon="4.80549">
        <ele>259.6933594</ele>
        <time>2010-05-16T09:45:06Z</time>
      </trkpt>
      <trkpt lat="45.95665" lon="4.80536">
        <ele>258.7319336</ele>
        <time>2010-05-16T09:45:13Z</time>
      </trkpt>
      <trkpt lat="45.95673" lon="4.80533">
        <ele>257.770752</ele>
        <time>2010-05-16T09:45:15Z</time>
      </trkpt>
      <trkpt lat="45.95708" lon="4.80519">
        <ele>253.925415</ele>
        <time>2010-05-16T09:45:22Z</time>
      </trkpt>
      <trkpt lat="45.95746" lon="4.80504">
        <ele>248.6381836</ele>
        <time>2010-05-16T09:45:28Z</time>
      </trkpt>
      <trkpt lat="45.95767" lon="4.80491">
        <ele>247.1960449</ele>
        <time>2010-05-16T09:45:32Z</time>
      </trkpt>
      <trkpt lat="45.95777" lon="4.80487">
        <ele>249.5994873</ele>
        <time>2010-05-16T09:45:38Z</time>
      </trkpt>
      <trkpt lat="45.95789" lon="4.80482">
        <ele>252.9639893</ele>
        <time>2010-05-16T09:45:44Z</time>
      </trkpt>
      <trkpt lat="45.95802" lon="4.80478">
        <ele>254.8865967</ele>
        <time>2010-05-16T09:45:51Z</time>
      </trkpt>
      <trkpt lat="45.95813" lon="4.80474">
        <ele>256.3287354</ele>
        <time>2010-05-16T09:45:58Z</time>
      </trkpt>
      <trkpt lat="45.9583" lon="4.80464">
        <ele>256.3287354</ele>
        <time>2010-05-16T09:46:06Z</time>
      </trkpt>
      <trkpt lat="45.95851" lon="4.80455">
        <ele>256.8093262</ele>
        <time>2010-05-16T09:46:14Z</time>
      </trkpt>
      <trkpt lat="45.95871" lon="4.8044">
        <ele>256.8093262</ele>
        <time>2010-05-16T09:46:21Z</time>
      </trkpt>
      <trkpt lat="45.95874" lon="4.80422">
        <ele>257.2900391</ele>
        <time>2010-05-16T09:46:25Z</time>
      </trkpt>
      <trkpt lat="45.95863" lon="4.80399">
        <ele>257.770752</ele>
        <time>2010-05-16T09:46:31Z</time>
      </trkpt>
      <trkpt lat="45.95841" lon="4.80358">
        <ele>258.2513428</ele>
        <time>2010-05-16T09:46:39Z</time>
      </trkpt>
      <trkpt lat="45.95834" lon="4.80344">
        <ele>258.7319336</ele>
        <time>2010-05-16T09:46:42Z</time>
      </trkpt>
      <trkpt lat="45.95825" lon="4.8032">
        <ele>258.2513428</ele>
        <time>2010-05-16T09:46:48Z</time>
      </trkpt>
      <trkpt lat="45.95823" lon="4.80314">
        <ele>257.770752</ele>
        <time>2010-05-16T09:46:53Z</time>
      </trkpt>
      <trkpt lat="45.95823" lon="4.80314">
        <ele>257.770752</ele>
        <time>2010-05-16T09:46:54Z</time>
      </trkpt>
      <trkpt lat="45.9582" lon="4.80303">
        <ele>255.3673096</ele>
        <time>2010-05-16T09:48:43Z</time>
      </trkpt>
      <trkpt lat="45.9581" lon="4.80283">
        <ele>256.3287354</ele>
        <time>2010-05-16T09:48:48Z</time>
      </trkpt>
      <trkpt lat="45.95801" lon="4.80263">
        <ele>257.770752</ele>
        <time>2010-05-16T09:48:52Z</time>
      </trkpt>
      <trkpt lat="45.95793" lon="4.80247">
        <ele>258.2513428</ele>
        <time>2010-05-16T09:48:55Z</time>
      </trkpt>
      <trkpt lat="45.95781" lon="4.80224">
        <ele>258.7319336</ele>
        <time>2010-05-16T09:48:59Z</time>
      </trkpt>
      <trkpt lat="45.95773" lon="4.80209">
        <ele>259.2126465</ele>
        <time>2010-05-16T09:49:02Z</time>
      </trkpt>
      <trkpt lat="45.95763" lon="4.80188">
        <ele>259.6933594</ele>
        <time>2010-05-16T09:49:07Z</time>
      </trkpt>
      <trkpt lat="45.95758" lon="4.80176">
        <ele>260.1739502</ele>
        <time>2010-05-16T09:49:13Z</time>
      </trkpt>
      <trkpt lat="45.95758" lon="4.80176">
        <ele>260.1739502</ele>
        <time>2010-05-16T09:49:15Z</time>
      </trkpt>
      <trkpt lat="45.95747" lon="4.80168">
        <ele>261.6159668</ele>
        <time>2010-05-16T09:49:25Z</time>
      </trkpt>
      <trkpt lat="45.95729" lon="4.80172">
        <ele>261.6159668</ele>
        <time>2010-05-16T09:49:29Z</time>
      </trkpt>
      <trkpt lat="45.95698" lon="4.80167">
        <ele>261.6159668</ele>
        <time>2010-05-16T09:49:35Z</time>
      </trkpt>
      <trkpt lat="45.95686" lon="4.80147">
        <ele>262.0965576</ele>
        <time>2010-05-16T09:49:39Z</time>
      </trkpt>
      <trkpt lat="45.95687" lon="4.80139">
        <ele>262.0965576</ele>
        <time>2010-05-16T09:49:40Z</time>
      </trkpt>
      <trkpt lat="45.95689" lon="4.80132">
        <ele>261.6159668</ele>
        <time>2010-05-16T09:49:41Z</time>
      </trkpt>
      <trkpt lat="45.95689" lon="4.80132">
        <ele>261.6159668</ele>
        <time>2010-05-16T09:49:41Z</time>
      </trkpt>
      <trkpt lat="45.95706" lon="4.8007">
        <ele>261.1352539</ele>
        <time>2010-05-16T09:49:49Z</time>
      </trkpt>
      <trkpt lat="45.95716" lon="4.80015">
        <ele>259.6933594</ele>
        <time>2010-05-16T09:49:55Z</time>
      </trkpt>
      <trkpt lat="45.9572" lon="4.79983">
        <ele>259.2126465</ele>
        <time>2010-05-16T09:49:58Z</time>
      </trkpt>
      <trkpt lat="45.95737" lon="4.79944">
        <ele>258.2513428</ele>
        <time>2010-05-16T09:50:02Z</time>
      </trkpt>
      <trkpt lat="45.95768" lon="4.79903">
        <ele>254.8865967</ele>
        <time>2010-05-16T09:50:07Z</time>
      </trkpt>
      <trkpt lat="45.95796" lon="4.79849">
        <ele>251.0413818</ele>
        <time>2010-05-16T09:50:12Z</time>
      </trkpt>
      <trkpt lat="45.9583" lon="4.79787">
        <ele>248.1575928</ele>
        <time>2010-05-16T09:50:18Z</time>
      </trkpt>
      <trkpt lat="45.95842" lon="4.79752">
        <ele>246.2348633</ele>
        <time>2010-05-16T09:50:21Z</time>
      </trkpt>
      <trkpt lat="45.95855" lon="4.79673">
        <ele>244.3122559</ele>
        <time>2010-05-16T09:50:27Z</time>
      </trkpt>
      <trkpt lat="45.95858" lon="4.79661">
        <ele>243.831543</ele>
        <time>2010-05-16T09:50:28Z</time>
      </trkpt>
      <trkpt lat="45.95881" lon="4.79608">
        <ele>241.9089355</ele>
        <time>2010-05-16T09:50:33Z</time>
      </trkpt>
      <trkpt lat="45.95923" lon="4.79529">
        <ele>239.9862061</ele>
        <time>2010-05-16T09:50:41Z</time>
      </trkpt>
      <trkpt lat="45.95963" lon="4.79449">
        <ele>238.5443115</ele>
        <time>2010-05-16T09:50:49Z</time>
      </trkpt>
      <trkpt lat="45.95967" lon="4.79439">
        <ele>238.5443115</ele>
        <time>2010-05-16T09:50:50Z</time>
      </trkpt>
      <trkpt lat="45.95976" lon="4.79393">
        <ele>239.0249023</ele>
        <time>2010-05-16T09:50:54Z</time>
      </trkpt>
      <trkpt lat="45.95974" lon="4.79369">
        <ele>239.0249023</ele>
        <time>2010-05-16T09:50:56Z</time>
      </trkpt>
      <trkpt lat="45.95967" lon="4.79325">
        <ele>238.0635986</ele>
        <time>2010-05-16T09:51:00Z</time>
      </trkpt>
      <trkpt lat="45.95968" lon="4.79284">
        <ele>235.6602783</ele>
        <time>2010-05-16T09:51:04Z</time>
      </trkpt>
      <trkpt lat="45.95971" lon="4.79275">
        <ele>235.6602783</ele>
        <time>2010-05-16T09:51:05Z</time>
      </trkpt>
      <trkpt lat="45.95989" lon="4.7923">
        <ele>233.7376709</ele>
        <time>2010-05-16T09:51:10Z</time>
      </trkpt>
      <trkpt lat="45.96016" lon="4.79197">
        <ele>231.3343506</ele>
        <time>2010-05-16T09:51:15Z</time>
      </trkpt>
      <trkpt lat="45.96055" lon="4.79159">
        <ele>228.9311523</ele>
        <time>2010-05-16T09:51:21Z</time>
      </trkpt>
      <trkpt lat="45.96067" lon="4.79143">
        <ele>228.4504395</ele>
        <time>2010-05-16T09:51:23Z</time>
      </trkpt>
      <trkpt lat="45.96088" lon="4.79094">
        <ele>226.527832</ele>
        <time>2010-05-16T09:51:28Z</time>
      </trkpt>
      <trkpt lat="45.96097" lon="4.79035">
        <ele>222.6824951</ele>
        <time>2010-05-16T09:51:33Z</time>
      </trkpt>
      <trkpt lat="45.96109" lon="4.78949">
        <ele>215.4726563</ele>
        <time>2010-05-16T09:51:39Z</time>
      </trkpt>
      <trkpt lat="45.96121" lon="4.78913">
        <ele>212.588623</ele>
        <time>2010-05-16T09:51:42Z</time>
      </trkpt>
      <trkpt lat="45.96148" lon="4.78876">
        <ele>209.704834</ele>
        <time>2010-05-16T09:51:46Z</time>
      </trkpt>
      <trkpt lat="45.96188" lon="4.78829">
        <ele>206.8206787</ele>
        <time>2010-05-16T09:51:51Z</time>
      </trkpt>
      <trkpt lat="45.96211" lon="4.788">
        <ele>205.8594971</ele>
        <time>2010-05-16T09:51:54Z</time>
      </trkpt>
      <trkpt lat="45.96243" lon="4.78753">
        <ele>204.4174805</ele>
        <time>2010-05-16T09:51:59Z</time>
      </trkpt>
      <trkpt lat="45.9627" lon="4.78713">
        <ele>203.4561768</ele>
        <time>2010-05-16T09:52:04Z</time>
      </trkpt>
      <trkpt lat="45.96278" lon="4.78697">
        <ele>203.4561768</ele>
        <time>2010-05-16T09:52:06Z</time>
      </trkpt>
      <trkpt lat="45.96281" lon="4.78689">
        <ele>203.4561768</ele>
        <time>2010-05-16T09:52:07Z</time>
      </trkpt>
      <trkpt lat="45.9629" lon="4.78673">
        <ele>203.4561768</ele>
        <time>2010-05-16T09:52:09Z</time>
      </trkpt>
      <trkpt lat="45.96329" lon="4.78625">
        <ele>202.0142822</ele>
        <time>2010-05-16T09:52:16Z</time>
      </trkpt>
      <trkpt lat="45.96371" lon="4.78575">
        <ele>201.5335693</ele>
        <time>2010-05-16T09:52:23Z</time>
      </trkpt>
      <trkpt lat="45.96394" lon="4.78546">
        <ele>201.0528564</ele>
        <time>2010-05-16T09:52:27Z</time>
      </trkpt>
      <trkpt lat="45.96408" lon="4.78507">
        <ele>201.0528564</ele>
        <time>2010-05-16T09:52:31Z</time>
      </trkpt>
      <trkpt lat="45.96409" lon="4.78496">
        <ele>201.0528564</ele>
        <time>2010-05-16T09:52:32Z</time>
      </trkpt>
      <trkpt lat="45.96414" lon="4.78406">
        <ele>200.0916748</ele>
        <time>2010-05-16T09:52:41Z</time>
      </trkpt>
      <trkpt lat="45.96413" lon="4.78386">
        <ele>200.0916748</ele>
        <time>2010-05-16T09:52:43Z</time>
      </trkpt>
      <trkpt lat="45.96408" lon="4.78351">
        <ele>200.0916748</ele>
        <time>2010-05-16T09:52:47Z</time>
      </trkpt>
      <trkpt lat="45.96413" lon="4.78326">
        <ele>200.5722656</ele>
        <time>2010-05-16T09:52:51Z</time>
      </trkpt>
      <trkpt lat="45.96433" lon="4.78313">
        <ele>200.0916748</ele>
        <time>2010-05-16T09:52:55Z</time>
      </trkpt>
      <trkpt lat="45.96457" lon="4.78289">
        <ele>200.0916748</ele>
        <time>2010-05-16T09:53:00Z</time>
      </trkpt>
      <trkpt lat="45.96459" lon="4.78283">
        <ele>200.0916748</ele>
        <time>2010-05-16T09:53:01Z</time>
      </trkpt>
      <trkpt lat="45.96471" lon="4.78261">
        <ele>199.6108398</ele>
        <time>2010-05-16T09:53:06Z</time>
      </trkpt>
      <trkpt lat="45.96472" lon="4.78259">
        <ele>199.130127</ele>
        <time>2010-05-16T09:53:07Z</time>
      </trkpt>
      <trkpt lat="45.96481" lon="4.78245">
        <ele>198.6495361</ele>
        <time>2010-05-16T09:53:11Z</time>
      </trkpt>
      <trkpt lat="45.96485" lon="4.7823">
        <ele>198.1689453</ele>
        <time>2010-05-16T09:53:14Z</time>
      </trkpt>
      <trkpt lat="45.96484" lon="4.78225">
        <ele>198.1689453</ele>
        <time>2010-05-16T09:53:15Z</time>
      </trkpt>
      <trkpt lat="45.96467" lon="4.78187">
        <ele>199.6108398</ele>
        <time>2010-05-16T09:53:23Z</time>
      </trkpt>
      <trkpt lat="45.96453" lon="4.7817">
        <ele>200.0916748</ele>
        <time>2010-05-16T09:53:28Z</time>
      </trkpt>
      <trkpt lat="45.96421" lon="4.7814">
        <ele>201.0528564</ele>
        <time>2010-05-16T09:53:36Z</time>
      </trkpt>
      <trkpt lat="45.96382" lon="4.78103">
        <ele>202.0142822</ele>
        <time>2010-05-16T09:53:45Z</time>
      </trkpt>
      <trkpt lat="45.96349" lon="4.78069">
        <ele>202.0142822</ele>
        <time>2010-05-16T09:53:52Z</time>
      </trkpt>
      <trkpt lat="45.96301" lon="4.78013">
        <ele>202.0142822</ele>
        <time>2010-05-16T09:54:01Z</time>
      </trkpt>
      <trkpt lat="45.96266" lon="4.77981">
        <ele>201.5335693</ele>
        <time>2010-05-16T09:54:07Z</time>
      </trkpt>
      <trkpt lat="45.96233" lon="4.77949">
        <ele>201.0528564</ele>
        <time>2010-05-16T09:54:13Z</time>
      </trkpt>
      <trkpt lat="45.96201" lon="4.77902">
        <ele>202.9754639</ele>
        <time>2010-05-16T09:54:20Z</time>
      </trkpt>
      <trkpt lat="45.96162" lon="4.77837">
        <ele>202.9754639</ele>
        <time>2010-05-16T09:54:29Z</time>
      </trkpt>
      <trkpt lat="45.96117" lon="4.77762">
        <ele>202.9754639</ele>
        <time>2010-05-16T09:54:39Z</time>
      </trkpt>
      <trkpt lat="45.96079" lon="4.77698">
        <ele>202.494873</ele>
        <time>2010-05-16T09:54:47Z</time>
      </trkpt>
      <trkpt lat="45.9607" lon="4.77685">
        <ele>202.9754639</ele>
        <time>2010-05-16T09:54:49Z</time>
      </trkpt>
      <trkpt lat="45.96068" lon="4.7767">
        <ele>202.0142822</ele>
        <time>2010-05-16T09:54:52Z</time>
      </trkpt>
      <trkpt lat="45.96078" lon="4.77669">
        <ele>201.5335693</ele>
        <time>2010-05-16T09:54:55Z</time>
      </trkpt>
      <trkpt lat="45.96081" lon="4.7767">
        <ele>201.0528564</ele>
        <time>2010-05-16T09:54:56Z</time>
      </trkpt>
      <trkpt lat="45.96117" lon="4.77685">
        <ele>201.0528564</ele>
        <time>2010-05-16T09:55:06Z</time>
      </trkpt>
      <trkpt lat="45.96141" lon="4.77698">
        <ele>201.5335693</ele>
        <time>2010-05-16T09:55:13Z</time>
      </trkpt>
      <trkpt lat="45.96159" lon="4.77708">
        <ele>203.4561768</ele>
        <time>2010-05-16T09:55:20Z</time>
      </trkpt>
      <trkpt lat="45.96174" lon="4.77717">
        <ele>205.3787842</ele>
        <time>2010-05-16T09:55:27Z</time>
      </trkpt>
      <trkpt lat="45.9619" lon="4.77729">
        <ele>208.2628174</ele>
        <time>2010-05-16T09:55:35Z</time>
      </trkpt>
      <trkpt lat="45.962" lon="4.77745">
        <ele>209.704834</ele>
        <time>2010-05-16T09:55:42Z</time>
      </trkpt>
      <trkpt lat="45.96209" lon="4.77762">
        <ele>209.704834</ele>
        <time>2010-05-16T09:55:49Z</time>
      </trkpt>
      <trkpt lat="45.96214" lon="4.7778">
        <ele>210.1854248</ele>
        <time>2010-05-16T09:55:55Z</time>
      </trkpt>
      <trkpt lat="45.9622" lon="4.77801">
        <ele>211.1467285</ele>
        <time>2010-05-16T09:56:01Z</time>
      </trkpt>
      <trkpt lat="45.96232" lon="4.77834">
        <ele>211.1467285</ele>
        <time>2010-05-16T09:56:09Z</time>
      </trkpt>
      <trkpt lat="45.96242" lon="4.77839">
        <ele>212.1080322</ele>
        <time>2010-05-16T09:56:14Z</time>
      </trkpt>
      <trkpt lat="45.96251" lon="4.77841">
        <ele>215.4726563</ele>
        <time>2010-05-16T09:56:21Z</time>
      </trkpt>
      <trkpt lat="45.96259" lon="4.77843">
        <ele>215.4726563</ele>
        <time>2010-05-16T09:56:26Z</time>
      </trkpt>
      <trkpt lat="45.96265" lon="4.77843">
        <ele>215.9532471</ele>
        <time>2010-05-16T09:56:31Z</time>
      </trkpt>
      <trkpt lat="45.96276" lon="4.77844">
        <ele>214.9919434</ele>
        <time>2010-05-16T09:56:38Z</time>
      </trkpt>
      <trkpt lat="45.96285" lon="4.77842">
        <ele>213.5500488</ele>
        <time>2010-05-16T09:56:46Z</time>
      </trkpt>
      <trkpt lat="45.96293" lon="4.7784">
        <ele>212.588623</ele>
        <time>2010-05-16T09:56:53Z</time>
      </trkpt>
      <trkpt lat="45.96303" lon="4.77836">
        <ele>211.6274414</ele>
        <time>2010-05-16T09:57:00Z</time>
      </trkpt>
      <trkpt lat="45.96313" lon="4.77828">
        <ele>212.1080322</ele>
        <time>2010-05-16T09:57:06Z</time>
      </trkpt>
      <trkpt lat="45.96329" lon="4.77821">
        <ele>215.9532471</ele>
        <time>2010-05-16T09:57:13Z</time>
      </trkpt>
      <trkpt lat="45.96339" lon="4.77817">
        <ele>217.8759766</ele>
        <time>2010-05-16T09:57:19Z</time>
      </trkpt>
      <trkpt lat="45.96355" lon="4.77812">
        <ele>217.3953857</ele>
        <time>2010-05-16T09:57:27Z</time>
      </trkpt>
      <trkpt lat="45.96372" lon="4.77808">
        <ele>218.3565674</ele>
        <time>2010-05-16T09:57:34Z</time>
      </trkpt>
      <trkpt lat="45.96395" lon="4.77809">
        <ele>220.2791748</ele>
        <time>2010-05-16T09:57:45Z</time>
      </trkpt>
      <trkpt lat="45.96418" lon="4.77818">
        <ele>221.7211914</ele>
        <time>2010-05-16T09:57:56Z</time>
      </trkpt>
      <trkpt lat="45.9644" lon="4.77828">
        <ele>223.6437988</ele>
        <time>2010-05-16T09:58:06Z</time>
      </trkpt>
      <trkpt lat="45.96459" lon="4.7784">
        <ele>225.5665283</ele>
        <time>2010-05-16T09:58:15Z</time>
      </trkpt>
      <trkpt lat="45.96479" lon="4.77853">
        <ele>226.527832</ele>
        <time>2010-05-16T09:58:24Z</time>
      </trkpt>
      <trkpt lat="45.96497" lon="4.77863">
        <ele>227.0085449</ele>
        <time>2010-05-16T09:58:32Z</time>
      </trkpt>
      <trkpt lat="45.9653" lon="4.77876">
        <ele>227.9697266</ele>
        <time>2010-05-16T09:58:43Z</time>
      </trkpt>
      <trkpt lat="45.9657" lon="4.77894">
        <ele>229.4117432</ele>
        <time>2010-05-16T09:58:55Z</time>
      </trkpt>
      <trkpt lat="45.96614" lon="4.77918">
        <ele>230.3730469</ele>
        <time>2010-05-16T09:59:08Z</time>
      </trkpt>
      <trkpt lat="45.9664" lon="4.77934">
        <ele>228.9311523</ele>
        <time>2010-05-16T09:59:15Z</time>
      </trkpt>
      <trkpt lat="45.96657" lon="4.77927">
        <ele>228.9311523</ele>
        <time>2010-05-16T09:59:19Z</time>
      </trkpt>
      <trkpt lat="45.96684" lon="4.77887">
        <ele>230.8537598</ele>
        <time>2010-05-16T09:59:29Z</time>
      </trkpt>
      <trkpt lat="45.96708" lon="4.77852">
        <ele>231.3343506</ele>
        <time>2010-05-16T09:59:38Z</time>
      </trkpt>
      <trkpt lat="45.96743" lon="4.77802">
        <ele>230.8537598</ele>
        <time>2010-05-16T09:59:50Z</time>
      </trkpt>
      <trkpt lat="45.96775" lon="4.77755">
        <ele>230.3730469</ele>
        <time>2010-05-16T10:00:01Z</time>
      </trkpt>
      <trkpt lat="45.96795" lon="4.77724">
        <ele>230.3730469</ele>
        <time>2010-05-16T10:00:08Z</time>
      </trkpt>
      <trkpt lat="45.96795" lon="4.77704">
        <ele>229.892334</ele>
        <time>2010-05-16T10:00:12Z</time>
      </trkpt>
      <trkpt lat="45.96792" lon="4.77699">
        <ele>229.892334</ele>
        <time>2010-05-16T10:00:13Z</time>
      </trkpt>
      <trkpt lat="45.96764" lon="4.77664">
        <ele>230.3730469</ele>
        <time>2010-05-16T10:00:21Z</time>
      </trkpt>
      <trkpt lat="45.96734" lon="4.77627">
        <ele>230.8537598</ele>
        <time>2010-05-16T10:00:29Z</time>
      </trkpt>
      <trkpt lat="45.96691" lon="4.77578">
        <ele>230.3730469</ele>
        <time>2010-05-16T10:00:38Z</time>
      </trkpt>
      <trkpt lat="45.96677" lon="4.77558">
        <ele>229.892334</ele>
        <time>2010-05-16T10:00:41Z</time>
      </trkpt>
      <trkpt lat="45.96632" lon="4.77503">
        <ele>229.4117432</ele>
        <time>2010-05-16T10:00:50Z</time>
      </trkpt>
      <trkpt lat="45.96596" lon="4.77463">
        <ele>228.9311523</ele>
        <time>2010-05-16T10:00:57Z</time>
      </trkpt>
      <trkpt lat="45.96567" lon="4.77429">
        <ele>229.4117432</ele>
        <time>2010-05-16T10:01:03Z</time>
      </trkpt>
      <trkpt lat="45.96562" lon="4.77424">
        <ele>229.892334</ele>
        <time>2010-05-16T10:01:04Z</time>
      </trkpt>
      <trkpt lat="45.96549" lon="4.77408">
        <ele>230.3730469</ele>
        <time>2010-05-16T10:01:07Z</time>
      </trkpt>
      <trkpt lat="45.96516" lon="4.77369">
        <ele>228.9311523</ele>
        <time>2010-05-16T10:01:16Z</time>
      </trkpt>
      <trkpt lat="45.96494" lon="4.77332">
        <ele>227.9697266</ele>
        <time>2010-05-16T10:01:23Z</time>
      </trkpt>
      <trkpt lat="45.96476" lon="4.77303">
        <ele>227.9697266</ele>
        <time>2010-05-16T10:01:29Z</time>
      </trkpt>
      <trkpt lat="45.96477" lon="4.77284">
        <ele>228.4504395</ele>
        <time>2010-05-16T10:01:33Z</time>
      </trkpt>
      <trkpt lat="45.96484" lon="4.7728">
        <ele>228.4504395</ele>
        <time>2010-05-16T10:01:35Z</time>
      </trkpt>
      <trkpt lat="45.96519" lon="4.77265">
        <ele>229.4117432</ele>
        <time>2010-05-16T10:01:44Z</time>
      </trkpt>
      <trkpt lat="45.96541" lon="4.77255">
        <ele>229.892334</ele>
        <time>2010-05-16T10:01:50Z</time>
      </trkpt>
      <trkpt lat="45.96584" lon="4.77236">
        <ele>230.8537598</ele>
        <time>2010-05-16T10:02:01Z</time>
      </trkpt>
      <trkpt lat="45.96616" lon="4.7722">
        <ele>230.3730469</ele>
        <time>2010-05-16T10:02:10Z</time>
      </trkpt>
      <trkpt lat="45.96647" lon="4.77206">
        <ele>230.8537598</ele>
        <time>2010-05-16T10:02:19Z</time>
      </trkpt>
      <trkpt lat="45.96681" lon="4.77191">
        <ele>231.3343506</ele>
        <time>2010-05-16T10:02:29Z</time>
      </trkpt>
      <trkpt lat="45.9672" lon="4.77172">
        <ele>232.7764893</ele>
        <time>2010-05-16T10:02:41Z</time>
      </trkpt>
      <trkpt lat="45.96753" lon="4.77156">
        <ele>233.7376709</ele>
        <time>2010-05-16T10:02:52Z</time>
      </trkpt>
      <trkpt lat="45.96772" lon="4.77148">
        <ele>234.6990967</ele>
        <time>2010-05-16T10:02:59Z</time>
      </trkpt>
      <trkpt lat="45.96796" lon="4.77138">
        <ele>235.6602783</ele>
        <time>2010-05-16T10:03:09Z</time>
      </trkpt>
      <trkpt lat="45.96811" lon="4.77134">
        <ele>236.6217041</ele>
        <time>2010-05-16T10:03:17Z</time>
      </trkpt>
      <trkpt lat="45.96824" lon="4.77132">
        <ele>237.1022949</ele>
        <time>2010-05-16T10:03:25Z</time>
      </trkpt>
      <trkpt lat="45.96841" lon="4.7713">
        <ele>238.5443115</ele>
        <time>2010-05-16T10:03:34Z</time>
      </trkpt>
      <trkpt lat="45.9686" lon="4.77128">
        <ele>239.9862061</ele>
        <time>2010-05-16T10:03:44Z</time>
      </trkpt>
      <trkpt lat="45.96878" lon="4.77125">
        <ele>241.4282227</ele>
        <time>2010-05-16T10:03:54Z</time>
      </trkpt>
      <trkpt lat="45.96893" lon="4.77125">
        <ele>242.8702393</ele>
        <time>2010-05-16T10:04:02Z</time>
      </trkpt>
      <trkpt lat="45.9691" lon="4.77122">
        <ele>244.3122559</ele>
        <time>2010-05-16T10:04:12Z</time>
      </trkpt>
      <trkpt lat="45.96926" lon="4.77119">
        <ele>247.1960449</ele>
        <time>2010-05-16T10:04:22Z</time>
      </trkpt>
      <trkpt lat="45.96942" lon="4.77114">
        <ele>248.1575928</ele>
        <time>2010-05-16T10:04:31Z</time>
      </trkpt>
      <trkpt lat="45.96961" lon="4.7711">
        <ele>249.5994873</ele>
        <time>2010-05-16T10:04:40Z</time>
      </trkpt>
      <trkpt lat="45.9698" lon="4.77105">
        <ele>250.0802002</ele>
        <time>2010-05-16T10:04:49Z</time>
      </trkpt>
      <trkpt lat="45.97006" lon="4.77099">
        <ele>250.560791</ele>
        <time>2010-05-16T10:04:59Z</time>
      </trkpt>
      <trkpt lat="45.97023" lon="4.77095">
        <ele>250.0802002</ele>
        <time>2010-05-16T10:05:05Z</time>
      </trkpt>
      <trkpt lat="45.97029" lon="4.77108">
        <ele>250.0802002</ele>
        <time>2010-05-16T10:05:09Z</time>
      </trkpt>
      <trkpt lat="45.97032" lon="4.77147">
        <ele>250.560791</ele>
        <time>2010-05-16T10:05:17Z</time>
      </trkpt>
      <trkpt lat="45.97036" lon="4.77196">
        <ele>250.560791</ele>
        <time>2010-05-16T10:05:26Z</time>
      </trkpt>
      <trkpt lat="45.97042" lon="4.77234">
        <ele>251.0413818</ele>
        <time>2010-05-16T10:05:33Z</time>
      </trkpt>
      <trkpt lat="45.97047" lon="4.77265">
        <ele>251.5220947</ele>
        <time>2010-05-16T10:05:39Z</time>
      </trkpt>
      <trkpt lat="45.97051" lon="4.77304">
        <ele>252.0028076</ele>
        <time>2010-05-16T10:05:46Z</time>
      </trkpt>
      <trkpt lat="45.97064" lon="4.77346">
        <ele>251.5220947</ele>
        <time>2010-05-16T10:05:54Z</time>
      </trkpt>
      <trkpt lat="45.97068" lon="4.77356">
        <ele>251.5220947</ele>
        <time>2010-05-16T10:05:56Z</time>
      </trkpt>
      <trkpt lat="45.97078" lon="4.77375">
        <ele>251.0413818</ele>
        <time>2010-05-16T10:06:00Z</time>
      </trkpt>
      <trkpt lat="45.97084" lon="4.77383">
        <ele>251.0413818</ele>
        <time>2010-05-16T10:06:02Z</time>
      </trkpt>
      <trkpt lat="45.97109" lon="4.77417">
        <ele>251.0413818</ele>
        <time>2010-05-16T10:06:10Z</time>
      </trkpt>
      <trkpt lat="45.97135" lon="4.77447">
        <ele>250.560791</ele>
        <time>2010-05-16T10:06:18Z</time>
      </trkpt>
      <trkpt lat="45.97169" lon="4.77479">
        <ele>249.5994873</ele>
        <time>2010-05-16T10:06:27Z</time>
      </trkpt>
      <trkpt lat="45.97206" lon="4.77513">
        <ele>247.6767578</ele>
        <time>2010-05-16T10:06:35Z</time>
      </trkpt>
      <trkpt lat="45.97219" lon="4.77527">
        <ele>247.1960449</ele>
        <time>2010-05-16T10:06:38Z</time>
      </trkpt>
      <trkpt lat="45.97237" lon="4.77543">
        <ele>247.1960449</ele>
        <time>2010-05-16T10:06:42Z</time>
      </trkpt>
      <trkpt lat="45.97237" lon="4.77543">
        <ele>247.1960449</ele>
        <time>2010-05-16T10:06:42Z</time>
      </trkpt>
      <trkpt lat="45.9725" lon="4.77555">
        <ele>246.7154541</ele>
        <time>2010-05-16T10:06:45Z</time>
      </trkpt>
      <trkpt lat="45.97267" lon="4.77576">
        <ele>247.6767578</ele>
        <time>2010-05-16T10:06:50Z</time>
      </trkpt>
      <trkpt lat="45.97294" lon="4.77609">
        <ele>248.1575928</ele>
        <time>2010-05-16T10:06:59Z</time>
      </trkpt>
      <trkpt lat="45.9732" lon="4.7764">
        <ele>248.6381836</ele>
        <time>2010-05-16T10:07:08Z</time>
      </trkpt>
      <trkpt lat="45.97346" lon="4.77668">
        <ele>250.0802002</ele>
        <time>2010-05-16T10:07:18Z</time>
      </trkpt>
      <trkpt lat="45.97372" lon="4.77697">
        <ele>250.560791</ele>
        <time>2010-05-16T10:07:28Z</time>
      </trkpt>
      <trkpt lat="45.97396" lon="4.77722">
        <ele>250.560791</ele>
        <time>2010-05-16T10:07:36Z</time>
      </trkpt>
      <trkpt lat="45.97419" lon="4.77746">
        <ele>250.560791</ele>
        <time>2010-05-16T10:07:43Z</time>
      </trkpt>
      <trkpt lat="45.97449" lon="4.77777">
        <ele>250.0802002</ele>
        <time>2010-05-16T10:07:51Z</time>
      </trkpt>
      <trkpt lat="45.9749" lon="4.77817">
        <ele>249.5994873</ele>
        <time>2010-05-16T10:08:01Z</time>
      </trkpt>
      <trkpt lat="45.97531" lon="4.77855">
        <ele>248.6381836</ele>
        <time>2010-05-16T10:08:10Z</time>
      </trkpt>
      <trkpt lat="45.9756" lon="4.7788">
        <ele>248.6381836</ele>
        <time>2010-05-16T10:08:16Z</time>
      </trkpt>
      <trkpt lat="45.97594" lon="4.77921">
        <ele>248.1575928</ele>
        <time>2010-05-16T10:08:25Z</time>
      </trkpt>
      <trkpt lat="45.97608" lon="4.77952">
        <ele>248.6381836</ele>
        <time>2010-05-16T10:08:31Z</time>
      </trkpt>
      <trkpt lat="45.97618" lon="4.77984">
        <ele>249.5994873</ele>
        <time>2010-05-16T10:08:38Z</time>
      </trkpt>
      <trkpt lat="45.97629" lon="4.78019">
        <ele>251.0413818</ele>
        <time>2010-05-16T10:08:48Z</time>
      </trkpt>
      <trkpt lat="45.97639" lon="4.78052">
        <ele>252.0028076</ele>
        <time>2010-05-16T10:08:57Z</time>
      </trkpt>
      <trkpt lat="45.97651" lon="4.78091">
        <ele>252.0028076</ele>
        <time>2010-05-16T10:09:07Z</time>
      </trkpt>
      <trkpt lat="45.97662" lon="4.78126">
        <ele>252.4833984</ele>
        <time>2010-05-16T10:09:15Z</time>
      </trkpt>
      <trkpt lat="45.97674" lon="4.78168">
        <ele>252.4833984</ele>
        <time>2010-05-16T10:09:23Z</time>
      </trkpt>
      <trkpt lat="45.9769" lon="4.78211">
        <ele>251.5220947</ele>
        <time>2010-05-16T10:09:31Z</time>
      </trkpt>
      <trkpt lat="45.97713" lon="4.78253">
        <ele>250.560791</ele>
        <time>2010-05-16T10:09:38Z</time>
      </trkpt>
      <trkpt lat="45.97751" lon="4.78303">
        <ele>248.6381836</ele>
        <time>2010-05-16T10:09:47Z</time>
      </trkpt>
      <trkpt lat="45.97785" lon="4.78331">
        <ele>248.1575928</ele>
        <time>2010-05-16T10:09:54Z</time>
      </trkpt>
      <trkpt lat="45.97813" lon="4.78353">
        <ele>248.1575928</ele>
        <time>2010-05-16T10:10:00Z</time>
      </trkpt>
      <trkpt lat="45.97838" lon="4.78385">
        <ele>247.1960449</ele>
        <time>2010-05-16T10:10:07Z</time>
      </trkpt>
      <trkpt lat="45.9787" lon="4.78426">
        <ele>248.1575928</ele>
        <time>2010-05-16T10:10:17Z</time>
      </trkpt>
      <trkpt lat="45.97905" lon="4.7846">
        <ele>248.6381836</ele>
        <time>2010-05-16T10:10:27Z</time>
      </trkpt>
      <trkpt lat="45.97946" lon="4.78492">
        <ele>248.6381836</ele>
        <time>2010-05-16T10:10:38Z</time>
      </trkpt>
      <trkpt lat="45.97987" lon="4.78521">
        <ele>247.1960449</ele>
        <time>2010-05-16T10:10:48Z</time>
      </trkpt>
      <trkpt lat="45.98026" lon="4.78547">
        <ele>246.2348633</ele>
        <time>2010-05-16T10:10:56Z</time>
      </trkpt>
      <trkpt lat="45.98045" lon="4.7856">
        <ele>245.7541504</ele>
        <time>2010-05-16T10:11:00Z</time>
      </trkpt>
      <trkpt lat="45.98077" lon="4.78583">
        <ele>245.7541504</ele>
        <time>2010-05-16T10:11:07Z</time>
      </trkpt>
      <trkpt lat="45.98116" lon="4.7862">
        <ele>244.7928467</ele>
        <time>2010-05-16T10:11:16Z</time>
      </trkpt>
      <trkpt lat="45.98147" lon="4.78671">
        <ele>243.3508301</ele>
        <time>2010-05-16T10:11:25Z</time>
      </trkpt>
      <trkpt lat="45.98178" lon="4.78735">
        <ele>243.3508301</ele>
        <time>2010-05-16T10:11:35Z</time>
      </trkpt>
      <trkpt lat="45.98208" lon="4.78793">
        <ele>243.831543</ele>
        <time>2010-05-16T10:11:44Z</time>
      </trkpt>
      <trkpt lat="45.98239" lon="4.78848">
        <ele>243.831543</ele>
        <time>2010-05-16T10:11:53Z</time>
      </trkpt>
      <trkpt lat="45.98268" lon="4.78892">
        <ele>244.3122559</ele>
        <time>2010-05-16T10:12:01Z</time>
      </trkpt>
      <trkpt lat="45.98305" lon="4.78947">
        <ele>243.831543</ele>
        <time>2010-05-16T10:12:12Z</time>
      </trkpt>
      <trkpt lat="45.98308" lon="4.78952">
        <ele>243.831543</ele>
        <time>2010-05-16T10:12:13Z</time>
      </trkpt>
      <trkpt lat="45.98325" lon="4.78979">
        <ele>244.3122559</ele>
        <time>2010-05-16T10:12:19Z</time>
      </trkpt>
      <trkpt lat="45.98328" lon="4.78984">
        <ele>244.7928467</ele>
        <time>2010-05-16T10:12:20Z</time>
      </trkpt>
      <trkpt lat="45.98336" lon="4.79007">
        <ele>244.3122559</ele>
        <time>2010-05-16T10:12:26Z</time>
      </trkpt>
      <trkpt lat="45.98337" lon="4.79009">
        <ele>244.7928467</ele>
        <time>2010-05-16T10:12:27Z</time>
      </trkpt>
      <trkpt lat="45.98337" lon="4.7901">
        <ele>244.7928467</ele>
        <time>2010-05-16T10:12:30Z</time>
      </trkpt>
      <trkpt lat="45.98339" lon="4.79019">
        <ele>244.7928467</ele>
        <time>2010-05-16T10:14:54Z</time>
      </trkpt>
      <trkpt lat="45.98336" lon="4.79035">
        <ele>244.3122559</ele>
        <time>2010-05-16T10:14:58Z</time>
      </trkpt>
      <trkpt lat="45.98333" lon="4.79037">
        <ele>244.3122559</ele>
        <time>2010-05-16T10:14:59Z</time>
      </trkpt>
      <trkpt lat="45.98308" lon="4.79054">
        <ele>244.3122559</ele>
        <time>2010-05-16T10:15:05Z</time>
      </trkpt>
      <trkpt lat="45.9827" lon="4.79081">
        <ele>244.3122559</ele>
        <time>2010-05-16T10:15:13Z</time>
      </trkpt>
      <trkpt lat="45.98225" lon="4.79113">
        <ele>243.831543</ele>
        <time>2010-05-16T10:15:22Z</time>
      </trkpt>
      <trkpt lat="45.98184" lon="4.79143">
        <ele>243.831543</ele>
        <time>2010-05-16T10:15:30Z</time>
      </trkpt>
      <trkpt lat="45.98147" lon="4.79171">
        <ele>244.3122559</ele>
        <time>2010-05-16T10:15:37Z</time>
      </trkpt>
      <trkpt lat="45.98108" lon="4.79199">
        <ele>243.831543</ele>
        <time>2010-05-16T10:15:44Z</time>
      </trkpt>
      <trkpt lat="45.98078" lon="4.79221">
        <ele>242.3896484</ele>
        <time>2010-05-16T10:15:50Z</time>
      </trkpt>
      <trkpt lat="45.98057" lon="4.79236">
        <ele>240.9476318</ele>
        <time>2010-05-16T10:15:54Z</time>
      </trkpt>
      <trkpt lat="45.9805" lon="4.79261">
        <ele>240.9476318</ele>
        <time>2010-05-16T10:15:58Z</time>
      </trkpt>
      <trkpt lat="45.98056" lon="4.79284">
        <ele>241.9089355</ele>
        <time>2010-05-16T10:16:01Z</time>
      </trkpt>
      <trkpt lat="45.98076" lon="4.79349">
        <ele>241.9089355</ele>
        <time>2010-05-16T10:16:08Z</time>
      </trkpt>
      <trkpt lat="45.98066" lon="4.79388">
        <ele>240.9476318</ele>
        <time>2010-05-16T10:16:12Z</time>
      </trkpt>
      <trkpt lat="45.98057" lon="4.79418">
        <ele>241.4282227</ele>
        <time>2010-05-16T10:16:15Z</time>
      </trkpt>
      <trkpt lat="45.98062" lon="4.79444">
        <ele>239.9862061</ele>
        <time>2010-05-16T10:16:17Z</time>
      </trkpt>
      <trkpt lat="45.98066" lon="4.79456">
        <ele>239.0249023</ele>
        <time>2010-05-16T10:16:18Z</time>
      </trkpt>
      <trkpt lat="45.98109" lon="4.79553">
        <ele>234.2183838</ele>
        <time>2010-05-16T10:16:27Z</time>
      </trkpt>
      <trkpt lat="45.98132" lon="4.79618">
        <ele>232.2957764</ele>
        <time>2010-05-16T10:16:33Z</time>
      </trkpt>
      <trkpt lat="45.9815" lon="4.79698">
        <ele>231.3343506</ele>
        <time>2010-05-16T10:16:40Z</time>
      </trkpt>
      <trkpt lat="45.98163" lon="4.79729">
        <ele>231.8149414</ele>
        <time>2010-05-16T10:16:44Z</time>
      </trkpt>
      <trkpt lat="45.98166" lon="4.79751">
        <ele>231.8149414</ele>
        <time>2010-05-16T10:16:47Z</time>
      </trkpt>
      <trkpt lat="45.98173" lon="4.79782">
        <ele>231.3343506</ele>
        <time>2010-05-16T10:16:51Z</time>
      </trkpt>
      <trkpt lat="45.98192" lon="4.79834">
        <ele>229.892334</ele>
        <time>2010-05-16T10:16:57Z</time>
      </trkpt>
      <trkpt lat="45.98222" lon="4.7992">
        <ele>227.0085449</ele>
        <time>2010-05-16T10:17:06Z</time>
      </trkpt>
      <trkpt lat="45.98248" lon="4.79993">
        <ele>226.527832</ele>
        <time>2010-05-16T10:17:14Z</time>
      </trkpt>
      <trkpt lat="45.98257" lon="4.80018">
        <ele>226.527832</ele>
        <time>2010-05-16T10:17:17Z</time>
      </trkpt>
      <trkpt lat="45.98261" lon="4.8004">
        <ele>226.527832</ele>
        <time>2010-05-16T10:17:21Z</time>
      </trkpt>
      <trkpt lat="45.98254" lon="4.80049">
        <ele>226.0471191</ele>
        <time>2010-05-16T10:17:26Z</time>
      </trkpt>
      <trkpt lat="45.98253" lon="4.80054">
        <ele>226.0471191</ele>
        <time>2010-05-16T10:17:28Z</time>
      </trkpt>
      <trkpt lat="45.98252" lon="4.80058">
        <ele>226.0471191</ele>
        <time>2010-05-16T10:17:30Z</time>
      </trkpt>
      <trkpt lat="45.9825" lon="4.8006">
        <ele>225.5665283</ele>
        <time>2010-05-16T10:17:34Z</time>
      </trkpt>
    </trkseg>
  </trk>
</gpx>